[[{"header":{"parameterUnit":"m.s-1","parameterCategory":1,"la1":31.0,"la2":29.5877,"lo1":-88.7671,"lo2":-86.6584,"dy":0.0162,"dx":0.0185,"nx":115,"ny":88,"refTime":"2024-09-14T06:00:00:Z","depth":0,"parameterNumber":2,"parameterNumberName":"U-component_of_WINDS"},"data":[0.0,0.0,0.0,0.0,0.0,0.0,0.0,0.0,0.0,0.0,0.0,0.0,0.0,0.0,0.0,0.0,0.0,0.0,0.0,0.0,0.0,0.0,0.0,0.0,0.0,0.0,0.0,0.0,0.0,0.0,0.0,0.0,0.0,0.0,0.0,0.0,0.0,0.0,0.0,0.0,0.0,0.0,0.0,0.0,0.0,0.0,0.0,0.0,0.0,0.0,0.0,0.0,0.0,0.0,0.0,0.0,0.0,0.0,0.0,0.0,0.0,0.0,0.0,0.0,0.0,0.0,0.0,0.0,0.0,0.0,0.0,0.0,0.0,0.0,0.0,0.0,0.0,0.0,0.0,0.0,0.0,0.0,0.0,0.0,0.0,0.0,0.0,0.0,0.0,0.0,0.0,0.0,0.0,0.0,0.0,0.0,0.0,0.0,0.0,0.0,0.0,0.0,0.0,0.0,0.0,0.0,0.0,0.0,0.0,0.0,0.0,0.0,0.0,0.0,0.0,0.0,0.0,0.0,0.0,0.0,0.0,0.0,0.0,0.0,0.0,0.0,0.0,0.0,0.0,0.0,0.0,0.0,0.0,0.0,0.0,0.0,0.0,0.0,0.0,0.0,0.0,0.0,0.0,0.0,0.0,0.0,0.0,0.0,0.0,0.0,0.0,0.0,0.0,0.0,0.0,0.0,0.0,0.0,0.0,0.0,0.0,0.0,0.0,0.0,0.0,0.0,0.0,0.0,0.0,0.0,0.0,0.0,0.0,0.0,0.0,0.0,0.0,0.0,0.0,0.0,0.0,0.0,0.0,0.0,0.0,0.0,0.0,0.0,0.0,0.0,0.0,0.0,0.0,0.0,0.0,0.0,0.0,0.0,0.0,0.0,0.0,0.0,0.0,0.0,0.0,0.0,0.0,0.0,0.0,0.0,0.0,0.0,0.0,0.0,0.0,0.0,0.0,0.0,0.0,0.0,0.0,0.0,0.0,0.0,0.0,0.0,0.0,0.0,0.0,0.0,0.0,0.0,0.0,0.0,0.0,0.0,0.0,0.0,0.0,0.0,0.0,0.0,0.0,0.0,0.0,0.0,0.0,0.0,0.0,0.0,0.0,0.0,0.0,0.0,0.0,0.0,0.0,0.0,0.0,0.0,0.0,0.0,0.0,0.0,0.0,0.0,0.0,0.0,0.0,0.0,0.0,0.0,0.0,0.0,0.0,0.0,0.0,0.0,0.0,0.0,0.0,0.0,0.0,0.0,0.0,0.0,0.0,0.0,0.0,0.0,0.0,0.0,0.0,0.0,0.0,0.0,0.0,0.0,0.0,0.0,0.0,0.0,0.0,0.0,0.0,0.0,0.0,0.0,0.0,0.0,0.0,0.0,0.0,0.0,0.0,0.0,0.0,0.0,0.0,0.0,0.0,0.0,0.0,0.0,0.0,0.0,0.0,0.0,0.0,0.0,0.0,0.0,0.0,0.0,0.0,0.0,0.0,0.0,0.0,0.0,0.0,0.0,0.0,0.0,0.0,0.0,0.0,0.0,0.0,0.0,0.0,0.0,0.0,0.0,0.0,0.0,0.0,0.0,0.0,0.0,0.0,0.0,0.0,0.0,0.0,0.0,0.0,0.0,0.0,0.0,0.0,0.0,0.0,0.0,0.0,0.0,0.0,0.0,0.0,0.0,0.0,0.0,0.0,0.0,0.0,0.0,0.0,0.0,0.0,0.0,0.0,0.0,0.0,0.0,0.0,0.0,0.0,0.0,0.0,0.0,0.0,0.0,0.0,0.0,0.0,0.0,0.0,0.0,0.0,0.0,0.0,0.0,0.0,0.0,0.0,0.0,0.0,0.0,0.0,0.0,0.0,0.0,0.0,0.0,0.0,0.0,0.0,0.0,0.0,0.0,0.0,0.0,0.0,0.0,0.0,0.0,0.0,0.0,0.0,0.0,0.0,0.0,0.0,0.0,0.0,0.0,0.0,0.0,0.0,0.0,0.0,0.0,0.0,0.0,0.0,0.0,0.0,0.0,0.0,0.0,0.0,0.0,0.0,0.0,0.0,0.0,0.0,0.0,0.0,0.0,0.0,0.0,0.0,0.0,0.0,0.0,0.0,0.0,0.0,0.0,0.0,0.0,0.0,0.0,0.0,0.0,0.0,0.0,0.0,0.0,0.0,0.0,0.0,0.0,0.0,0.0,0.0,0.0,0.0,0.0,0.0,0.0,0.0,0.0,0.0,0.0,0.0,0.0,0.0,0.0,0.0,0.0,0.0,0.0,0.0,0.0,0.0,0.0,0.0,0.0,0.0,0.0,0.0,0.0,0.0,0.0,0.0,0.0,0.0,0.0,0.0,0.0,0.0,0.0,0.0,0.0,0.0,0.0,0.0,0.0,0.0,0.0,0.0,0.0,0.0,0.0,0.0,0.0,0.0,0.0,0.0,0.0,0.0,0.0,0.0,0.0,0.0,0.0,0.0,0.0,0.0,0.0,0.0,0.0,0.0,0.0,0.0,0.0,0.0,0.0,0.0,0.0,0.0,0.0,0.0,0.0,0.0,0.0,0.0,0.0,0.0,0.0,0.0,0.0,0.0,0.0,0.0,0.0,0.0,0.0,0.0,0.0,0.0,0.0,0.0,0.0,0.0,0.0,0.0,0.0,0.0,0.0,0.0,0.0,0.0,0.0,0.0,0.0,0.0,0.0,0.0,0.0,0.0,0.0,0.0,0.0,0.0,0.0,0.0,0.0,0.0,0.0,0.0,0.0,0.0,0.0,0.0,0.0,0.0,0.0,0.0,0.0,0.0,0.0,0.0,0.0,0.0,0.0,0.0,0.0,0.0,0.0,0.0,0.0,0.0,0.0,0.0,0.0,0.0,0.0,0.0,0.0,0.0,0.0,0.0,0.0,0.0,0.0,0.0,0.0,0.0,0.0,0.0,0.0,0.0,0.0,0.0,0.0,0.0,0.0,0.0,0.0,0.0,0.0,0.0,0.0,0.0,0.0,0.0,0.0,0.0,0.0,0.0,0.0,0.0,0.0,0.0,0.0,0.0,0.0,0.0,0.0,0.0,0.0,0.0,0.0,0.0,0.0,0.0,0.0,0.0,0.0,0.0,0.0,0.0,0.0,0.0,0.0,0.0,0.0,0.0,0.0,0.0,0.0,0.0,0.0,0.0,0.0,0.0,0.0,0.0,0.0,0.0,0.0,0.0,0.0,0.0,0.0,0.0,0.0,0.0,0.0,0.0,0.0,0.0,0.0,0.0,0.0,0.0,0.0,0.0,0.0,0.0,0.0,0.0,0.0,0.0,0.0,0.0,0.0,0.0,0.0,0.0,0.0,0.0,0.0,0.0,0.0,0.0,0.0,0.0,0.0,0.0,0.0,0.0,0.0,0.0,0.0,0.0,0.0,0.0,0.0,0.0,0.0,0.0,0.0,0.0,0.0,0.0,0.0,0.0,0.0,0.0,0.0,0.0,0.0,0.0,0.0,0.0,0.0,0.0,0.0,0.0,0.0,0.0,0.0,0.0,0.0,0.0,0.0,0.0,0.0,0.0,0.0,0.0,0.0,0.0,0.0,0.0,0.0,0.0,0.0,0.0,0.0,0.0,0.0,0.0,0.0,0.0,0.0,0.0,0.0,0.0,0.0,0.0,0.0,0.0,0.0,0.0,0.0,0.0,0.0,0.0,0.0,0.0,0.0,0.0,0.0,0.0,0.0,0.0,0.0,0.0,0.0,0.0,0.0,0.0,0.0,0.0,0.0,0.0,0.0,0.0,0.0,0.0,0.0,0.0,0.0,0.0,0.0,0.0,0.0,0.0,0.0,0.0,0.0,0.0,0.0,0.0,0.0,0.0,0.0,0.0,0.0,0.0,0.0,0.0,0.0,0.0,0.0,0.0,0.0,0.0,0.0,0.0,0.0,0.0,0.0,0.0,0.0,0.0,0.0,0.0,0.0,0.0,0.0,0.0,0.0,0.0,0.0,0.0,0.0,0.0,0.0,0.0,0.0,0.0,0.0,0.0,0.0,0.0,0.0,0.0,0.0,0.0,0.0,0.0,0.0,0.0,0.0,0.0,0.0,0.0,0.0,0.0,0.0,0.0,0.0,0.0,0.0,0.0,0.0,0.0,0.0,0.0,0.0,0.0,0.0,0.0,0.0,0.0,0.0,0.0,0.0,0.0,0.0,0.0,0.0,0.0,0.0,0.0,0.0,0.0,0.0,0.0,0.0,0.0,0.0,0.0,0.0,0.0,0.0,0.0,0.0,0.0,0.0,1.0254,0.0,0.0,0.0,0.0,0.0,0.0,0.0,0.0,0.0,0.0,0.0,0.0,0.0,0.0,0.0,0.0,0.0,0.0,0.0,0.0,0.0,0.0,0.0,0.0,0.0,0.0,0.0,0.0,0.0,0.0,0.0,0.0,0.0,0.0,0.0,0.0,0.0,0.0,0.0,0.0,0.0,0.0,0.0,0.0,0.0,0.0,0.0,0.0,0.0,0.0,0.0,0.0,0.0,0.0,0.0,0.0,0.0,0.0,0.0,0.0,0.0,0.0,0.0,0.0,0.0,0.0,0.0,0.0,0.0,0.0,0.0,0.0,0.0,0.0,0.0,0.0,0.0,0.0,0.0,0.0,0.0,0.0,0.0,0.0,0.0,0.0,0.0,0.0,0.0,0.0,0.0,0.0,0.0,0.0,0.0,0.0,0.0,0.0,0.0,0.0,0.0,0.0,0.0,0.0,0.0,0.0,0.0,0.0,0.0,0.0,1.0931,1.0477,1.0498,1.0398,1.0215,0.0,0.0,0.0,0.0,0.0,0.0,0.0,0.0,0.0,0.0,0.0,0.0,0.0,0.0,0.0,0.0,0.0,0.0,0.0,0.0,0.0,0.0,0.0,0.0,0.0,0.0,0.0,0.0,0.0,0.0,0.0,0.0,0.0,0.0,0.0,0.0,0.0,0.0,0.0,0.0,0.0,0.0,0.0,0.0,0.0,0.0,0.0,0.0,0.0,0.0,0.0,0.0,0.0,0.0,0.0,0.0,0.0,0.0,0.0,0.0,0.0,0.0,0.0,0.0,0.0,0.0,0.0,0.0,0.0,0.0,0.0,0.0,0.0,0.0,0.0,0.0,0.0,0.0,0.0,0.0,0.0,0.0,0.0,0.0,0.0,0.0,0.0,0.0,0.0,0.0,0.0,0.0,0.0,0.0,0.0,0.0,0.0,0.0,0.0,0.0,0.0,0.0,0.0,0.0,0.0,0.0,0.0,0.0,0.0,0.0,0.0,0.0,1.091,1.0887,1.0589,0.0,0.0,0.0,0.0,0.0,0.0,0.0,0.0,0.0,0.0,0.0,0.0,0.0,0.0,0.0,0.0,0.0,0.0,0.0,0.0,0.0,0.0,0.0,0.0,0.0,0.0,0.0,0.0,0.0,0.0,0.0,0.0,0.0,0.0,0.0,0.0,0.0,0.0,0.0,0.0,0.0,0.0,0.0,0.0,0.0,0.0,0.0,0.0,0.0,0.0,0.0,0.0,0.0,0.0,0.0,0.0,0.0,0.0,0.0,0.0,0.0,0.0,0.0,0.0,0.0,0.0,0.0,0.0,0.0,0.0,0.0,0.0,0.0,0.0,0.0,0.0,0.0,0.0,0.0,0.0,0.0,0.0,0.0,0.0,0.0,0.0,0.0,0.0,0.0,0.0,0.0,0.0,0.0,0.0,0.0,0.0,0.0,0.0,0.0,0.0,0.0,0.0,0.0,0.0,0.0,0.0,0.0,0.0,0.0,0.0,1.1348,1.2233,1.2106,0.0,1.2015,0.0,0.0,0.0,0.0,0.0,0.0,0.0,0.0,0.0,0.0,0.0,0.0,0.0,0.0,0.0,0.0,0.0,0.0,0.0,0.0,0.0,0.0,0.0,0.0,0.0,0.0,0.0,0.0,0.0,0.0,0.0,0.0,0.0,0.0,0.0,0.0,0.0,0.0,0.0,0.0,0.0,0.0,0.0,0.0,0.0,0.0,0.0,0.0,0.0,0.0,0.0,0.0,0.0,0.0,0.0,0.0,0.0,0.0,0.0,0.0,0.0,0.0,0.0,0.0,0.0,0.0,0.0,0.0,0.0,0.0,0.0,0.0,0.0,0.0,0.0,0.0,0.0,0.0,0.0,0.0,0.0,0.0,0.0,0.0,0.0,0.0,0.0,0.0,0.0,0.0,0.0,0.0,0.0,0.0,0.0,0.0,0.0,0.0,0.0,0.0,0.0,0.0,0.0,0.0,0.0,0.0,0.0,0.0,0.0,0.0,1.1787,1.1975,1.1871,1.1826,0.0,0.0,0.0,0.0,0.0,0.0,0.0,0.0,0.0,0.0,0.0,0.0,0.0,0.0,0.0,0.0,0.0,0.0,0.0,0.0,0.0,0.0,0.0,0.0,0.0,0.0,0.0,0.0,0.0,0.0,0.0,0.0,0.0,0.0,0.0,0.0,0.0,0.0,0.0,0.0,0.0,0.0,0.0,0.0,0.0,0.0,0.0,0.0,0.0,0.0,0.0,0.0,0.0,0.0,0.0,0.0,0.0,0.0,0.0,0.0,0.0,0.0,0.0,0.0,0.0,0.0,0.0,0.0,0.0,0.0,0.0,0.0,0.0,0.0,0.0,0.0,0.0,0.0,0.0,0.0,0.0,0.0,0.0,0.0,0.0,0.0,0.0,0.0,0.0,0.0,0.0,0.0,0.0,0.0,0.0,0.0,0.0,0.0,0.0,0.0,0.0,0.0,0.0,0.0,0.0,0.0,0.0,0.0,0.0,0.0,1.1765,0.0,1.1939,1.1969,1.1851,1.1606,0.0,0.0,0.0,0.0,0.0,0.0,0.0,0.0,0.0,0.0,0.0,0.0,0.0,0.0,0.0,0.0,0.0,0.0,0.0,0.0,0.0,0.0,0.0,0.0,0.0,0.0,0.0,0.0,0.0,0.0,0.0,0.0,0.0,0.0,0.0,0.0,0.0,0.0,0.0,0.0,0.0,0.0,0.0,0.0,0.0,0.0,0.0,0.0,0.0,0.0,0.0,0.0,0.0,0.0,0.0,0.0,0.0,0.0,0.0,0.0,0.0,0.0,0.0,0.0,0.0,0.0,0.0,0.0,0.0,0.0,0.0,0.0,0.0,0.0,0.0,0.0,0.0,0.0,0.0,0.0,0.0,0.0,0.0,0.0,0.0,0.0,0.0,0.0,0.0,0.0,0.0,0.0,0.0,0.0,0.0,0.0,0.0,0.0,0.0,0.0,0.0,0.0,0.0,0.0,0.0,0.0,0.0,0.0,0.0,1.1704,1.1543,1.2773,1.2871,1.2469,0.0,0.0,0.0,0.0,0.0,0.0,0.0,0.0,0.0,0.0,0.0,0.0,0.0,0.0,0.0,0.0,0.0,0.0,0.0,0.0,0.0,0.0,0.0,0.0,0.0,0.0,0.0,0.0,0.0,0.0,0.0,0.0,0.0,0.0,0.0,0.0,0.0,0.0,0.0,0.0,0.0,0.0,0.0,0.0,0.0,0.0,0.0,0.0,0.0,0.0,0.0,0.0,0.0,0.0,0.0,0.0,0.0,0.0,0.0,0.0,0.0,0.0,0.0,0.0,0.0,0.0,0.0,0.0,0.0,0.0,0.0,0.0,0.0,0.0,0.0,0.0,0.0,0.0,0.0,0.0,0.0,0.0,0.0,0.0,0.0,0.0,0.0,0.0,0.0,0.0,0.0,0.0,0.0,0.0,0.0,0.0,0.0,0.0,0.0,0.0,0.0,0.0,0.0,0.0,0.0,0.0,0.0,0.0,0.0,1.1291,1.1348,1.208,1.3555,1.2353,1.1592,0.0,0.0,0.0,0.0,0.0,0.0,0.0,0.0,0.0,0.0,0.0,0.0,0.0,0.0,0.0,0.0,0.0,0.0,0.0,0.0,0.0,0.0,0.0,0.0,0.0,0.0,0.0,0.0,0.0,0.0,0.0,0.0,0.0,0.0,0.0,0.0,0.0,0.0,0.0,0.0,0.0,0.0,0.0,0.0,0.0,0.0,0.0,0.0,0.0,0.0,0.0,0.0,0.0,0.0,0.0,0.0,0.0,0.0,0.0,0.0,0.0,0.0,0.0,0.0,0.0,0.0,0.0,0.0,0.0,0.0,0.0,0.0,0.0,0.0,0.0,0.0,0.0,0.0,0.0,0.0,0.0,0.0,0.0,0.0,0.0,0.0,0.0,0.0,0.0,0.0,0.0,0.0,0.0,0.0,0.0,0.0,0.0,0.0,0.0,0.0,0.0,0.0,0.0,0.0,0.0,0.0,0.0,0.0,0.0,1.0877,0.0,1.2677,0.0,1.2018,1.111,0.0,0.0,0.0,0.0,0.0,0.0,0.0,0.0,0.0,0.0,0.0,0.0,0.0,0.0,0.0,0.0,0.0,0.0,0.0,0.0,0.0,0.0,0.0,0.0,0.0,0.0,0.0,0.0,0.0,0.0,0.0,0.0,0.0,0.0,0.0,0.0,0.0,0.0,0.0,0.0,0.0,0.0,0.0,0.0,0.0,0.0,0.0,0.0,0.0,0.0,0.0,0.0,0.0,0.0,0.0,0.0,0.0,0.0,0.0,0.0,0.0,0.0,0.0,0.0,0.0,0.0,0.0,0.0,0.0,0.0,0.0,0.0,0.0,0.0,0.0,0.0,0.0,0.0,0.0,0.0,0.0,0.0,0.0,0.0,0.0,0.0,0.0,0.0,0.0,0.0,0.0,0.0,0.0,0.0,0.0,0.0,0.0,0.0,0.0,0.0,0.0,0.0,0.0,0.0,0.0,0.0,0.0,0.0,1.0886,1.1947,1.3061,1.3128,1.2081,1.1976,1.1031,0.0,0.0,0.0,0.0,0.0,0.0,0.0,0.0,0.0,0.0,0.0,0.0,0.0,0.0,0.0,0.0,0.0,0.0,0.0,0.0,0.0,0.0,0.0,0.0,0.0,0.0,0.0,0.0,0.0,0.0,0.0,0.0,0.0,0.0,0.0,0.0,0.0,0.0,0.0,0.0,0.0,0.0,0.0,0.0,0.0,0.0,0.0,0.0,0.0,0.0,0.0,0.0,0.0,0.0,0.0,0.0,0.0,0.0,0.0,0.0,0.0,0.0,0.0,0.0,0.0,0.0,0.0,0.0,0.0,0.0,0.0,0.0,0.0,0.0,0.0,0.0,0.0,0.0,0.0,0.0,0.0,0.0,0.0,0.0,0.0,0.0,0.0,0.0,0.0,0.0,0.0,0.0,0.0,0.0,0.0,0.0,0.0,0.0,0.0,0.0,0.0,0.0,0.0,0.0,0.0,0.0,0.0,0.0,0.0,1.1528,1.2357,1.2893,1.3025,1.1797,1.1085,0.0,0.0,0.0,0.0,0.0,0.0,0.0,0.0,0.0,0.0,0.0,0.0,0.0,0.0,0.0,0.0,0.0,0.0,0.0,0.0,0.0,0.0,0.0,0.0,0.0,0.0,0.0,0.0,0.0,0.0,0.0,0.0,0.0,0.0,0.0,0.0,0.0,0.0,0.0,0.0,0.0,0.0,0.0,0.0,0.0,0.0,0.0,0.0,0.0,0.0,0.0,0.0,0.0,0.0,0.0,0.0,0.0,0.0,0.0,0.0,0.0,0.0,0.0,0.0,0.0,0.0,0.0,0.0,0.0,0.0,0.0,0.0,0.0,0.0,0.0,0.0,0.0,0.0,0.0,0.0,0.0,0.0,0.0,0.0,0.0,0.0,0.0,0.0,0.0,0.0,0.0,0.0,0.0,0.0,0.0,0.0,0.0,0.0,0.0,0.0,0.0,0.0,0.0,0.0,0.0,0.0,0.0,0.0,0.0,1.209,1.2959,1.3504,1.3764,1.2478,1.1683,1.1398,0.0,0.0,0.0,0.0,0.0,0.0,0.0,0.0,0.0,0.0,0.0,0.0,0.0,0.0,0.0,0.0,0.0,0.0,0.0,0.0,0.0,0.0,0.0,0.0,0.0,0.0,0.0,0.0,0.0,0.0,0.0,0.0,0.0,0.0,0.0,0.0,0.0,0.0,0.0,0.0,0.0,0.0,0.0,0.0,0.0,0.0,0.0,0.0,0.0,0.0,0.0,0.0,0.0,0.0,0.0,0.0,0.0,0.0,0.0,0.0,0.0,0.0,0.0,0.0,0.0,0.0,0.0,0.0,0.0,0.0,0.0,0.0,0.0,0.0,0.0,0.0,0.0,0.0,0.0,0.0,0.0,0.0,0.0,0.0,0.0,0.0,0.0,0.0,0.0,0.0,0.0,0.0,0.0,0.0,0.0,0.0,0.0,0.0,0.0,0.0,0.0,0.0,0.0,0.0,0.0,0.0,0.0,0.0,1.3451,1.4593,1.4832,1.4116,1.3728,1.2723,0.0,0.0,0.0,0.0,0.0,0.0,0.0,0.0,0.0,0.0,0.0,0.0,0.0,0.0,0.0,0.0,0.0,0.0,0.0,0.0,0.0,0.0,0.0,0.0,0.0,0.0,0.0,0.0,0.0,0.0,0.0,0.0,0.0,0.0,0.0,0.0,0.0,0.0,0.0,0.0,0.0,0.0,0.0,0.0,0.0,0.0,0.0,0.0,0.0,0.0,0.0,0.0,0.0,0.0,0.0,0.0,0.0,0.0,0.0,0.0,0.0,0.0,0.0,0.0,0.0,0.0,0.0,0.0,0.0,0.0,0.0,0.0,0.0,0.0,0.0,0.0,0.0,0.0,0.0,0.0,0.0,0.0,0.0,0.0,0.0,0.0,0.0,0.0,0.0,0.0,0.0,0.0,0.0,0.0,0.0,0.0,0.0,0.0,0.0,0.0,0.0,0.0,0.0,0.0,0.0,0.0,0.0,0.0,0.0,1.4194,1.5377,1.5753,1.5265,1.4184,1.3218,0.0,0.0,0.0,0.0,0.0,0.0,0.0,0.0,0.0,0.0,0.0,0.0,0.0,0.0,0.0,0.0,0.0,0.0,0.0,0.0,0.0,0.0,0.0,0.0,0.0,0.0,0.0,0.0,0.0,0.0,0.0,0.0,0.0,0.0,0.0,0.0,0.0,0.0,0.0,0.0,0.0,0.0,0.0,0.0,0.0,0.0,0.0,0.0,0.0,0.0,0.0,0.0,0.0,0.0,0.0,0.0,0.0,0.0,0.0,0.0,0.0,0.0,0.0,0.0,0.0,0.0,0.0,0.0,0.0,0.0,0.0,0.0,0.0,0.0,0.0,0.0,0.0,0.0,0.0,0.0,0.0,0.0,0.0,0.0,0.0,0.0,0.0,0.0,0.0,0.0,0.0,0.0,0.0,0.0,0.0,0.0,0.0,0.0,0.0,0.0,0.0,0.0,0.0,0.0,0.0,0.0,0.0,0.0,1.3928,1.4753,1.5945,1.6376,1.5964,1.5065,1.4063,0.0,0.0,0.0,0.0,0.0,0.0,0.0,0.0,0.0,0.0,0.0,0.0,0.0,0.0,0.0,0.0,0.0,0.0,0.0,0.0,0.0,0.0,0.0,0.0,0.0,0.0,0.0,0.0,0.0,0.0,0.0,0.0,0.0,0.0,0.0,0.0,0.0,0.0,0.0,0.0,0.0,0.0,0.0,0.0,0.0,0.0,0.0,0.0,0.0,0.0,0.0,0.0,0.0,0.0,0.0,0.0,0.0,0.0,0.0,0.0,0.0,0.0,0.0,0.0,0.0,0.0,0.0,0.0,0.0,0.0,0.0,0.0,0.0,0.0,0.0,0.0,0.0,0.0,0.0,0.0,0.0,0.0,0.0,0.0,0.0,0.0,0.0,0.0,0.0,0.0,0.0,0.0,0.0,0.0,0.0,0.0,0.0,0.0,0.0,0.0,0.0,0.0,0.0,0.0,0.0,0.0,0.0,0.0,1.4323,1.4969,1.6285,1.6734,1.6376,1.6021,1.4907,0.0,0.0,0.0,0.0,0.0,0.0,0.0,0.0,0.0,0.0,0.0,0.0,0.0,0.0,0.0,0.0,0.0,0.0,0.0,0.0,0.0,0.0,0.0,0.0,0.0,0.0,0.0,0.0,0.0,0.0,0.0,0.0,0.0,0.0,0.0,0.0,0.0,0.0,0.0,0.0,0.0,0.0,0.0,0.0,0.0,0.0,0.0,0.0,0.0,0.0,0.0,0.0,0.0,0.0,0.0,0.0,0.0,0.0,0.0,0.0,0.0,0.0,0.0,0.0,0.0,0.0,0.0,0.0,0.0,0.0,0.0,0.0,0.0,0.0,0.0,0.0,0.0,0.0,0.0,0.0,0.0,0.0,0.0,0.0,0.0,0.0,0.0,0.0,0.0,0.0,0.0,0.0,0.0,0.0,0.0,0.0,0.0,0.0,0.0,0.0,0.0,0.0,0.0,0.0,0.0,0.0,0.0,0.0,1.4357,1.4318,1.5999,1.6862,1.678,1.5901,1.4818,0.0,0.0,0.0,0.0,0.0,0.0,0.0,0.0,0.0,0.0,0.0,0.0,0.0,0.0,0.0,0.0,0.0,0.0,0.0,0.0,0.0,0.0,0.0,0.0,0.0,0.0,0.0,0.0,0.0,0.0,0.0,0.0,0.0,0.0,0.0,0.0,0.0,0.0,0.0,0.0,0.0,0.0,0.0,0.0,0.0,0.0,0.0,0.0,1.3685,0.0,0.0,0.0,0.0,0.0,0.0,0.0,0.0,0.0,0.0,0.0,0.0,0.0,0.0,0.0,0.0,0.0,0.0,0.0,0.0,0.0,0.0,0.0,0.0,0.0,0.0,0.0,0.0,0.0,0.0,0.0,0.0,0.0,0.0,0.0,0.0,0.0,0.0,0.0,0.0,0.0,0.0,0.0,0.0,0.0,0.0,0.0,0.0,0.0,0.0,0.0,0.0,0.0,0.0,0.0,0.0,0.0,0.0,0.0,1.4656,1.4405,1.5683,1.6323,1.6049,1.5343,1.4556,0.0,0.0,0.0,0.0,0.0,0.0,0.0,0.0,0.0,0.0,0.0,0.0,0.0,0.0,0.0,0.0,0.0,0.0,0.0,0.0,0.0,0.0,0.0,0.0,0.0,0.0,0.0,0.0,0.0,0.0,0.0,0.0,0.0,0.0,0.0,0.0,0.0,0.0,0.0,0.0,0.0,0.0,0.0,0.0,0.0,0.0,0.0,0.0,0.0,0.0,0.0,0.0,0.0,0.0,0.0,0.0,0.0,0.0,0.0,0.0,0.0,0.0,0.0,0.0,0.0,0.0,0.0,0.0,0.0,0.0,0.0,0.0,0.0,0.0,0.0,0.0,0.0,0.0,0.0,0.0,0.0,0.0,0.0,0.0,0.0,0.0,0.0,0.0,0.0,0.0,0.0,0.0,0.0,0.0,0.0,0.0,0.0,0.0,0.0,0.0,0.0,0.0,0.0,0.0,0.0,0.0,0.0,1.3741,1.4506,1.4416,1.5087,1.5299,1.4985,1.4686,1.4257,1.3657,0.0,0.0,0.0,0.0,0.0,0.0,0.0,0.0,0.0,0.0,0.0,0.0,0.0,0.0,0.0,0.0,0.0,0.0,0.0,0.0,0.0,0.0,0.0,0.0,0.0,0.0,0.0,0.0,0.0,0.0,0.0,0.0,0.0,0.0,0.0,0.0,0.0,0.0,1.1619,1.2271,0.0,0.0,0.0,0.0,0.0,0.0,0.0,0.0,1.3186,0.0,0.0,0.0,0.0,0.0,0.0,0.0,0.0,0.0,0.0,0.0,0.0,0.0,0.0,0.0,0.0,0.0,0.0,0.0,0.0,0.0,0.0,0.0,0.0,0.0,0.0,0.0,0.0,0.0,0.0,0.0,0.0,0.0,0.0,0.0,0.0,0.0,0.0,0.0,0.0,0.0,0.0,0.0,0.0,0.0,0.0,0.0,0.0,0.0,0.0,0.0,0.0,0.0,0.0,0.0,0.0,1.1748,1.2092,1.2596,1.3364,1.3785,1.3972,1.3981,1.4092,1.3683,1.2612,0.0,0.0,0.0,0.0,0.0,0.0,0.0,0.0,0.0,0.0,0.0,0.0,0.0,0.0,0.0,0.0,0.0,0.0,0.0,0.0,0.0,0.0,0.0,0.0,0.0,0.0,0.0,0.0,0.0,0.0,0.0,0.0,0.0,0.0,0.0,0.0,0.0,0.0,0.0,1.268,1.2943,0.0,0.0,0.0,0.0,0.0,0.0,0.0,0.0,1.3146,0.0,0.0,0.0,0.0,0.0,0.0,0.0,0.0,0.0,0.0,0.0,0.0,0.0,0.0,0.0,0.0,0.0,0.0,0.0,0.0,0.0,0.0,0.0,0.0,0.0,0.0,0.0,0.0,0.0,0.0,0.0,0.0,0.0,0.0,0.0,0.0,0.0,0.0,0.0,0.0,0.0,0.0,0.0,0.0,0.0,0.0,0.0,0.0,0.0,0.0,0.0,0.0,0.0,0.0,0.0,1.1107,1.2278,1.2792,1.2523,1.2933,1.3017,1.2841,1.2657,1.2246,0.0,0.0,0.0,0.0,0.0,0.0,0.0,0.0,0.0,0.0,0.0,0.0,0.0,0.0,0.0,0.0,0.0,0.0,0.0,0.0,0.0,0.0,0.0,0.0,0.0,0.0,0.0,0.0,0.0,0.0,0.0,0.0,0.0,0.0,0.0,0.0,0.0,0.0,0.0,0.0,1.2924,1.2998,1.287,0.0,0.0,0.0,0.0,0.0,0.0,1.293,1.2451,0.0,0.0,0.0,0.0,0.0,0.0,0.0,0.0,0.0,0.0,0.0,0.0,0.0,0.0,0.0,0.0,0.0,0.0,0.0,0.0,0.0,0.0,0.0,0.0,0.0,0.0,0.0,0.0,0.0,0.0,0.0,0.0,0.0,0.0,0.0,0.0,0.0,0.0,0.0,0.0,0.0,0.0,0.0,0.0,0.0,0.0,0.0,0.0,0.0,0.0,0.0,0.0,0.0,0.0,0.0,1.0536,1.2272,1.2789,1.1926,1.2116,1.2058,1.1747,1.1374,1.1077,0.0,0.0,0.0,0.0,0.0,0.0,0.0,0.0,0.0,0.0,0.0,0.0,0.0,0.0,0.0,0.0,0.0,0.0,0.0,0.0,0.0,0.0,0.0,0.0,0.0,0.0,0.0,0.0,0.0,0.0,0.0,0.0,0.0,0.0,0.0,0.0,0.0,0.0,0.0,0.0,0.0,1.3181,1.2617,1.3235,0.0,0.0,0.0,0.0,1.3557,1.2731,0.0,0.0,0.0,0.0,0.0,0.0,0.0,0.0,0.0,0.0,0.0,0.0,0.0,0.0,0.0,0.0,0.0,0.0,0.0,0.0,0.0,0.0,0.0,0.0,0.0,0.0,0.0,0.0,0.0,0.0,0.0,0.0,0.0,0.0,0.0,0.0,0.0,0.0,0.0,0.0,0.0,0.0,0.0,0.0,0.0,0.0,0.0,0.0,0.0,0.0,0.0,0.0,0.0,0.0,0.0,0.0,1.0412,1.0287,1.0625,1.149,1.108,1.0839,1.0798,1.1219,1.1078,0.0,0.0,0.0,0.0,0.0,0.0,0.0,0.0,0.0,0.0,0.0,0.0,0.0,0.0,0.0,0.0,0.0,0.0,0.0,0.0,0.0,0.0,0.0,0.0,0.0,0.0,0.0,0.0,0.0,0.0,0.0,0.0,0.0,0.0,0.0,0.0,0.0,0.0,0.0,0.0,0.0,1.3731,1.3216,1.3267,1.3383,0.0,0.0,1.3469,1.2947,1.3023,0.0,0.0,0.0,0.0,0.0,0.0,0.0,0.0,0.0,0.0,0.0,0.0,0.0,0.0,0.0,0.0,0.0,0.0,0.0,0.0,0.0,0.0,0.0,0.0,0.0,0.0,0.0,0.0,0.0,0.0,0.0,0.0,0.0,0.0,0.0,0.0,0.0,0.0,0.0,0.0,0.0,0.0,0.0,0.0,0.0,0.0,0.0,0.0,0.0,0.0,0.0,0.0,0.0,0.0,0.0,0.9387,0.9914,1.0483,1.0834,1.0975,1.0744,1.0618,1.0618,1.0375,0.993,0.0,0.0,0.0,0.0,0.0,0.0,0.0,0.0,0.0,0.0,0.0,0.0,0.0,0.0,0.0,0.0,0.0,0.0,0.0,0.0,0.0,0.0,0.0,0.0,0.0,0.0,0.0,0.0,0.0,0.0,0.0,0.0,0.0,0.0,0.0,0.0,0.0,0.0,0.0,0.0,0.0,0.0,1.3382,1.4225,0.0,0.0,0.0,1.44,1.4046,0.0,0.0,0.0,0.0,0.0,0.0,0.0,0.0,0.0,0.0,0.0,0.0,0.0,0.0,0.0,0.0,0.0,0.0,0.0,0.0,0.0,0.0,0.0,0.0,0.0,0.0,0.0,0.0,0.0,0.0,0.0,0.0,0.0,0.0,0.0,0.0,0.0,0.0,0.0,0.0,0.0,0.0,0.0,0.0,0.0,0.0,0.0,0.0,0.0,0.0,0.0,0.0,0.0,0.0,0.0,0.0,0.0,0.9661,1.0704,1.1052,1.0624,1.0618,1.0618,1.0611,0.9846,0.0,0.0,0.0,0.0,0.0,0.0,0.0,0.0,0.0,0.0,0.0,0.0,0.0,0.0,0.0,0.0,0.0,0.0,0.0,0.0,0.0,0.0,0.0,0.0,0.0,0.0,0.0,0.7821,0.0,0.0,0.0,0.0,0.0,0.0,0.0,0.0,0.0,0.0,0.0,0.0,0.0,0.0,1.3769,1.366,1.4839,1.5185,0.0,0.0,1.4972,1.4758,1.3547,1.2514,0.0,0.0,0.0,0.0,0.0,0.0,0.0,0.0,0.0,0.0,0.0,0.0,0.0,0.0,0.0,0.0,0.0,0.0,0.0,0.0,0.0,0.0,0.0,0.0,0.0,0.0,0.0,0.0,0.0,0.0,0.0,0.0,0.0,0.0,0.0,0.0,0.0,0.0,0.0,0.0,0.0,0.0,0.0,0.0,0.0,0.0,0.0,0.0,0.0,0.0,0.0,0.0,0.0,0.0,0.0,1.0072,1.0474,1.0624,1.0618,1.0618,1.0618,1.0618,1.0227,0.9863,0.0,0.0,0.0,0.0,0.0,0.0,0.0,0.0,0.0,0.0,0.0,0.0,0.0,0.0,0.0,0.0,0.0,0.0,0.0,0.0,0.0,0.0,0.0,0.0,0.0,0.0,0.0,0.0,0.0,0.0,0.0,0.0,0.0,0.0,0.0,0.0,0.0,0.0,0.0,0.0,0.0,1.4449,1.4016,1.4698,1.5041,0.0,0.0,1.4646,1.4205,1.4038,1.3541,1.2182,0.0,0.0,0.0,0.0,0.0,0.0,0.0,0.0,0.0,0.0,0.0,0.0,0.0,0.0,0.0,0.0,0.0,0.0,0.0,0.0,0.0,0.0,0.0,0.0,0.0,0.0,0.0,0.0,0.0,0.0,0.0,0.0,0.0,0.0,0.0,0.0,0.0,0.0,0.0,0.0,0.0,0.0,0.0,0.0,0.0,0.0,0.0,0.0,0.0,0.0,0.0,0.0,0.0,0.9308,1.0079,1.0429,1.0618,1.0618,1.0618,1.0618,1.0618,1.0274,0.9874,0.0,0.0,0.0,0.0,0.0,0.0,0.0,0.0,0.0,0.0,0.0,0.0,0.0,0.0,0.0,0.0,0.0,0.0,0.0,0.0,0.0,0.0,0.0,0.0,0.0,0.0,0.0,0.0,1.0201,1.0376,1.025,0.0,0.0,0.0,0.0,0.0,0.0,0.0,0.0,0.0,0.0,1.4656,1.5007,1.5698,0.0,0.0,1.5373,1.544,1.4527,1.4055,1.3427,1.2318,1.1737,0.0,0.0,0.0,0.0,0.0,0.0,0.0,0.0,0.0,0.0,0.0,0.0,0.0,0.0,0.0,0.0,0.0,0.0,0.0,0.0,0.0,0.0,0.0,0.0,0.0,0.0,0.0,0.0,0.0,0.0,0.0,0.0,0.0,0.0,0.0,0.0,0.0,0.0,0.0,0.0,0.0,0.0,0.0,0.0,0.0,0.0,0.0,0.0,0.0,0.0,0.0,0.0,0.9264,1.0023,1.0418,1.0618,1.0618,1.0618,1.0618,1.0611,1.0274,0.9904,0.0,0.0,0.0,0.0,0.0,0.0,0.0,0.0,0.0,0.0,0.0,0.0,0.0,0.0,0.0,0.0,0.0,0.0,0.0,0.0,0.0,0.0,0.0,0.0,0.0,0.0,0.0,0.0,1.0785,1.0615,0.993,0.0,0.0,0.0,0.0,0.0,0.0,0.0,0.0,0.0,0.0,1.5027,1.5566,1.5942,1.5966,1.5315,1.5445,1.5378,1.4744,1.4235,1.3601,1.2719,0.0,0.0,0.0,0.0,0.0,0.0,0.0,0.0,0.0,0.0,0.0,0.0,0.0,0.0,0.0,0.0,0.0,0.0,0.0,0.0,0.0,0.0,0.0,0.0,0.0,0.0,0.0,0.0,0.0,0.0,0.7187,0.0,0.0,0.0,0.0,0.0,0.0,0.0,0.0,0.0,0.0,0.0,0.0,0.0,0.0,0.0,0.0,0.0,0.0,0.0,0.0,0.0,0.0,0.923,0.9926,1.0342,1.0618,1.0618,1.0618,1.0618,1.0611,1.0274,0.9973,0.9646,0.0,0.0,0.0,0.0,0.0,0.0,0.0,0.0,0.0,0.0,0.0,0.0,0.0,0.0,0.0,0.0,0.0,0.0,0.0,0.0,0.0,0.0,0.0,0.0,0.0,0.0,1.1361,1.1066,1.031,0.0,0.0,0.0,0.0,0.0,0.0,0.0,0.0,0.0,0.0,1.4828,1.5479,1.5376,1.5241,1.5288,1.5712,1.4863,1.4415,1.487,1.4689,1.4202,0.0,0.0,0.0,0.0,0.0,0.0,0.0,0.0,0.0,0.0,0.0,0.0,0.0,0.0,0.0,0.0,0.0,0.0,0.0,0.0,0.0,0.0,0.0,0.0,0.0,0.0,0.0,0.9435,0.9059,0.0,0.0,0.0,0.0,0.0,0.0,0.0,0.0,0.0,0.0,0.0,1.1527,1.1923,0.0,0.0,0.0,0.0,0.0,0.0,0.0,0.0,0.0,0.0,0.0,0.0,0.9184,0.9893,1.0349,1.0618,1.0618,1.0618,1.0618,1.0618,1.053,1.0094,0.9412,0.0,0.0,0.0,0.0,0.0,0.0,0.0,0.0,0.0,0.0,0.0,0.0,0.0,0.0,0.0,0.0,0.0,0.0,0.0,0.0,0.0,0.0,0.0,0.0,0.0,1.0356,0.0,0.0,0.0,0.0,0.0,0.0,0.0,0.0,0.0,0.0,0.0,1.3502,1.4192,1.5014,1.5511,1.5631,1.5605,1.5611,0.0,0.0,0.0,0.0,0.0,0.0,0.0,0.0,0.0,0.0,0.0,0.0,0.0,0.0,1.113,1.0031,0.9617,0.9464,0.9537,0.0,0.0,0.0,0.0,0.0,0.0,0.0,0.0,0.0,0.0,0.0,0.0,0.0,0.0,1.0717,0.0,1.0054,0.0,0.0,0.0,0.0,0.0,0.0,0.0,0.0,1.1808,1.2351,1.2413,1.2694,1.2569,0.0,1.1727,1.091,0.0,0.0,0.0,0.0,0.0,0.0,0.0,0.0,0.9313,0.9931,1.039,1.0618,1.0618,1.0618,1.0618,1.0618,1.0618,1.0241,0.9508,0.933,0.8892,0.0,0.0,0.0,0.0,0.0,0.0,0.0,0.0,0.0,0.0,0.0,0.0,0.0,0.0,0.0,0.0,0.0,0.0,0.0,0.0,0.0,0.0,0.0,1.0041,0.0,0.0,0.0,0.0,0.0,0.0,0.0,0.0,0.0,1.2324,1.3081,1.3988,1.4774,1.5219,1.5464,1.5454,0.0,0.0,0.0,0.0,0.0,0.0,0.0,1.3952,1.4038,1.3915,1.3671,1.2991,1.2469,1.2043,1.1878,0.0,0.0,1.0192,0.9822,0.9657,0.9728,1.0019,1.014,0.9902,0.9994,0.9995,0.0,0.0,0.0,0.0,0.0,0.0,0.0,0.0,1.2227,1.1948,0.0,1.1517,0.0,0.0,0.0,0.0,0.0,1.1601,0.0,0.0,1.3109,1.3629,1.3033,1.3099,1.3013,1.294,1.3288,1.248,1.0717,0.9303,0.0,0.0,0.0,0.0,0.0,0.0,0.9584,1.008,1.0463,1.0618,1.0618,1.0618,1.0618,1.0618,1.0618,1.0421,1.0147,1.0094,0.9586,0.8548,0.8643,0.0,0.0,0.0,0.0,0.0,0.0,0.0,0.0,0.0,0.0,0.0,0.0,0.0,0.0,0.0,0.0,0.0,0.0,0.0,0.0,0.9574,0.0,0.0,0.0,0.0,0.0,0.0,0.0,0.0,0.0,0.0,1.2395,1.3605,1.4787,1.5334,0.0,0.0,0.0,0.0,1.3631,1.3138,1.2517,1.2384,1.2819,1.2877,1.2699,1.251,0.0,0.0,1.2464,1.1957,1.1499,1.0906,1.0574,1.0485,1.138,1.0789,1.0413,1.0575,1.0281,1.0082,1.0243,0.976,0.9302,1.3046,0.0,0.0,0.0,0.0,1.3516,1.4029,1.4616,1.4057,1.358,1.3167,1.2571,0.0,0.0,0.0,0.0,0.0,0.0,1.3295,1.3938,1.4522,1.48,1.4935,1.4951,1.4414,1.3397,1.3494,1.2729,1.1219,1.0554,0.968,0.8475,0.0,0.0,0.0,0.0,0.9775,1.0107,1.0408,1.0618,1.0618,1.0618,1.0618,1.0618,1.0618,1.0584,1.0434,1.0227,0.9967,0.9619,0.8917,0.0,0.0,0.0,0.0,0.0,0.0,0.0,0.0,0.0,0.0,0.0,0.0,0.0,0.0,0.0,0.0,0.0,0.0,0.0,0.9005,0.8937,0.9059,0.0,0.0,0.0,0.0,0.0,0.0,0.0,0.0,0.0,1.1563,1.3537,1.4772,0.0,0.0,1.4817,1.4696,1.3905,1.3374,1.3217,0.0,0.0,0.0,1.2994,1.2873,1.3233,1.3005,1.2622,1.2399,1.1634,1.0932,1.0707,1.0469,1.0325,1.0625,1.0245,0.9935,0.976,0.9715,0.9568,0.9519,0.9344,0.9243,1.3616,1.3778,1.4385,1.4598,1.4625,1.4873,1.5052,1.5256,1.506,1.4714,1.4201,1.3968,1.3506,1.291,1.2755,0.0,0.0,0.0,1.4369,1.4952,1.4784,1.4759,1.4846,1.4438,1.3838,1.3184,1.3109,1.2571,1.143,1.1519,1.0857,0.9562,0.0,0.0,0.9085,0.9593,1.0,1.0281,1.0468,1.0618,1.0618,1.0618,1.0618,1.0618,1.0618,1.0618,1.0618,1.0394,1.0241,1.0114,0.9446,0.895,0.0,0.0,0.0,0.0,0.0,0.0,0.0,0.0,0.0,0.0,0.0,0.7266,0.6592,0.0,0.0,0.0,0.8248,0.903,0.9356,0.9332,0.0,0.0,0.0,0.0,0.0,0.0,0.0,1.0196,1.0644,1.0972,1.101,1.2757,1.3919,1.3751,1.392,1.3936,1.3683,0.0,1.2555,1.2224,1.2135,1.2163,1.224,1.2045,1.2154,1.2505,1.2116,1.1769,1.166,1.1122,1.0692,1.0582,1.0366,1.0257,1.0036,0.9757,0.9522,0.9419,0.9273,0.9229,0.9015,0.9092,0.9161,1.3739,1.4489,1.5297,1.5631,1.5541,1.5568,1.5242,1.4644,1.529,1.5207,1.4609,1.5227,1.5351,1.5058,1.4711,0.0,1.5131,1.5131,1.496,1.4678,1.4263,1.3897,1.3621,1.2606,1.2249,1.2516,1.2509,1.2176,1.1572,1.2114,1.1952,1.1049,1.0521,1.0227,1.0194,1.0214,1.0361,1.0685,1.0698,1.0692,1.0698,1.0672,1.0595,1.0658,1.0631,1.0618,1.0618,1.0618,1.0434,1.0174,1.0114,0.9593,0.8537,0.0,0.0,0.0,0.0,0.0,0.0,0.0,0.0,0.0,0.0,0.0,0.0,0.0,0.0,0.0,0.8244,0.0,0.9661,1.0166,0.0,0.0,0.0,1.0073,1.0827,1.0594,1.0485,1.0691,0.0,0.0,1.0387,1.1487,1.2457,1.2991,1.3117,1.2951,1.2202,1.1868,1.1308,1.0646,1.0452,1.0509,1.0845,1.0757,1.0757,1.0777,1.0586,1.0692,1.0692,1.0692,1.0476,1.0257,1.0257,1.0036,0.9489,0.9361,0.9379,0.9361,0.9147,0.8933,0.8927,0.8933,0.8937,1.3874,1.4401,1.5213,1.5127,1.44,1.4731,1.4776,1.462,1.4421,1.4307,1.4155,1.4006,1.4246,1.4754,1.5196,1.5303,1.5207,1.5141,1.5002,1.4636,1.4521,1.4434,1.4363,1.4088,1.3724,1.3236,1.3236,1.2806,1.2091,1.2236,1.2087,1.1663,1.1523,1.1229,1.0808,1.1002,1.1149,1.1223,1.1223,1.1223,1.1216,1.1009,1.0889,1.0889,1.0739,1.0618,1.0618,1.0618,1.0591,1.0448,1.0027,0.9659,0.9379,0.8212,0.0,0.0,0.0,0.0,0.0,0.0,0.0,0.0,0.0,0.8425,0.7044,0.0,0.8521,0.0,0.7749,0.8004,0.8298,0.8615,0.0,0.0,1.006,1.0163,1.0577,1.032,0.99,0.9426,0.9459,0.9514,0.977,1.0105,1.0623,1.1272,1.1882,1.214,1.1709,1.1259,1.0795,1.0401,1.0518,1.0538,1.0464,1.0143,1.0036,1.0036,1.0036,1.0036,1.0036,1.0033,0.9926,0.9926,0.9706,0.9599,0.9379,0.9158,0.9051,0.9051,0.894,0.8937,0.8937,0.8937,0.8937,1.362,1.3999,1.433,1.4121,1.3719,1.4622,1.4762,1.4313,1.4418,1.4261,1.3823,1.3901,1.4364,1.5137,1.5188,1.5317,1.5446,1.5099,1.4849,1.4601,1.4243,1.4106,1.4106,1.3738,1.3382,1.2952,1.2959,1.2739,1.2305,1.2305,1.2218,1.2058,1.2064,1.1897,1.159,1.1476,1.143,1.143,1.143,1.1354,1.1279,1.1076,1.0929,1.085,1.0715,1.0618,1.0618,1.0441,1.0367,1.0347,0.9927,0.9686,0.9673,0.8778,0.833,0.0,0.0,0.0,0.0,0.0,0.0,0.0,0.0,0.0,0.0,0.0,0.8958,0.8036,0.8182,0.8458,0.8711,0.9151,0.9662,1.0556,1.0157,1.0031,1.034,0.9856,0.922,0.8899,0.8828,0.892,0.9465,0.9651,0.9926,1.0476,1.1021,1.1311,1.1,1.0736,1.0476,1.0147,1.0253,1.0253,1.0147,0.9923,0.9816,0.9816,0.9816,0.9816,0.9816,0.9816,0.9816,0.9706,0.9485,0.9379,0.9161,0.9047,0.8937,0.8937,0.8937,0.8937,0.8937,0.8937,0.8937,1.3289,1.3592,1.3434,1.3327,1.34,1.4781,1.4712,1.3845,1.4531,1.4342,1.3448,1.4168,1.4864,1.5471,1.4895,1.4966,1.5471,1.4744,1.4386,1.4243,1.3673,1.3382,1.3317,1.2659,1.2305,1.2305,1.2305,1.2305,1.2305,1.2305,1.2305,1.2305,1.2305,1.2305,1.2285,1.179,1.1536,1.1543,1.1536,1.1467,1.1253,1.1182,1.1022,1.077,1.0704,1.0645,1.0564,1.0327,1.0214,1.0167,0.9907,0.9715,0.9669,0.9341,0.9164,0.0,0.9213,0.0,0.0,0.0,0.0,0.0,0.0,0.0,0.0,0.9376,0.9218,0.8404,0.88,0.9257,0.9651,1.0229,1.0604,1.0943,1.0226,0.9701,0.9847,0.9176,0.874,0.874,0.8859,0.9047,0.9372,0.9599,0.9926,1.0257,1.0582,1.0578,1.0359,1.0253,1.0147,0.9816,0.9706,0.9816,0.9706,0.9706,0.9599,0.9706,0.9596,0.9706,0.9596,0.9706,0.9596,0.9379,0.9268,0.9268,0.8937,0.8937,0.8937,0.8937,0.8716,0.8602,0.8826,0.8937,0.8826,1.3574,1.4001,1.3941,1.3921,1.3921,1.4248,1.3933,1.3355,1.3505,1.3326,1.2962,1.37,1.3999,1.397,1.4394,1.4322,1.3962,1.3745,1.3382,1.2739,1.2592,1.2519,1.2519,1.2372,1.2305,1.2305,1.2305,1.2305,1.2305,1.2305,1.2305,1.2305,1.2305,1.2305,1.2298,0.0,0.0,0.0,1.2131,1.2138,1.2052,1.1857,1.159,1.1281,1.1062,0.0,1.0241,1.0608,1.0722,1.0494,1.0065,0.0,0.0,0.0,0.0,0.0,0.0,0.0,0.0,0.0,0.0,0.0,0.8784,0.889,0.9425,0.9154,0.8759,0.8269,0.8247,0.8179,0.8207,0.859,0.8809,0.8874,0.8895,0.8955,0.8987,0.891,0.8893,0.8896,0.892,0.9158,0.9596,0.9596,0.9706,1.0147,1.0366,1.0253,0.9926,1.0147,1.0036,0.9596,0.9489,0.9489,0.9485,0.9268,0.9158,0.9047,0.9047,0.9047,0.9158,0.9047,0.9047,0.9047,0.894,0.8937,0.8937,0.8937,0.8937,0.8937,0.8156,0.7709,0.8716,0.8937,0.8605,1.3483,0.0,1.3913,1.3997,0.0,1.4088,1.3921,1.3634,1.3487,1.3253,1.3057,1.3431,1.371,1.3848,1.3938,1.3938,1.3848,1.3397,1.2968,1.2512,1.2365,1.2305,1.2305,1.2305,1.2305,1.2305,1.2305,1.2305,1.2305,1.2305,1.2305,1.2305,1.2305,1.2305,1.2305,1.2305,1.2305,1.2305,1.2305,1.2224,1.2144,1.2024,1.1797,1.1497,0.0,0.0,0.0,0.0,0.0,0.0,0.0,0.0,0.0,0.0,0.0,0.9264,0.9706,0.9762,0.9238,0.9438,0.9572,0.9415,0.9121,0.8974,0.9208,0.8667,0.8237,0.8067,0.8063,0.8038,0.8045,0.818,0.833,0.8476,0.8621,0.8733,0.8818,0.8893,0.8937,0.8937,0.8937,0.9047,0.9596,0.9489,0.9599,0.9926,1.0147,1.0147,0.9926,0.9923,0.9816,0.9272,0.9158,0.9158,0.9158,0.9047,0.8937,0.8937,0.8937,0.8937,0.8937,0.8937,0.8937,0.8937,0.8937,0.8937,0.8937,0.8937,0.8716,0.8156,0.7487,0.7041,0.726,0.7146,0.7035,1.3376,1.3809,1.3672,1.3828,1.3997,1.4004,1.4082,1.4068,0.0,0.0,0.0,1.3287,1.3557,1.4031,1.343,1.3509,1.4009,1.3235,1.2903,1.2812,1.2518,1.2385,1.2378,1.2331,1.2224,1.2231,1.2224,1.2231,1.2231,1.2305,1.2305,1.2305,1.2305,1.2305,1.2305,1.2305,1.2305,1.2305,1.2305,1.2224,1.2077,1.1998,1.1852,1.1657,1.1421,1.1201,1.1149,1.0268,0.9799,0.9719,0.8858,0.8467,0.8791,0.8851,0.9168,0.9657,0.9983,0.9983,0.9674,0.996,0.997,0.9491,0.9214,0.8936,0.8675,0.8147,0.7902,0.8028,0.8038,0.8102,0.8255,0.8296,0.8414,0.8682,0.8733,0.8804,0.8916,0.8937,0.8937,0.8937,0.8937,0.9051,0.9379,0.9382,0.9379,0.9706,0.9926,1.004,0.9816,0.9816,0.9706,0.9158,0.9047,0.9047,0.8937,0.8937,0.8937,0.8937,0.8937,0.8937,0.8937,0.8937,0.8937,0.8937,0.8937,0.8826,0.8602,0.8491,0.8159,0.7038,0.6594,0.6255,0.5361,0.4916,0.4804,1.3667,1.4089,1.3671,1.3568,1.3737,1.3737,1.3913,1.4088,1.4041,1.3854,1.3587,1.3499,1.3447,1.3358,1.3213,1.3286,1.3358,1.3239,1.3146,0.0,1.2832,1.2761,1.2748,1.2269,1.2003,1.2077,1.2077,1.2003,1.2083,1.2231,1.2305,1.2311,1.2305,1.2311,1.2305,1.2305,1.2305,1.2305,1.2305,1.2305,1.2231,1.2258,1.2118,1.1813,1.119,1.0621,1.0327,0.9919,0.9681,0.9612,0.9261,0.9001,0.8961,0.903,0.9021,0.8881,0.9775,0.9928,0.8896,0.9091,0.8905,0.8185,0.838,0.8332,0.7994,0.7919,0.8018,0.8038,0.8038,0.8102,0.8252,0.8381,0.8516,0.8693,0.8828,0.8916,0.8937,0.8937,0.8937,0.8937,0.8937,0.9047,0.9268,0.9158,0.9158,0.9375,0.9599,0.9489,0.9599,0.971,0.9706,0.9379,0.9379,0.9268,0.8937,0.8937,0.8937,0.8937,0.8937,0.883,0.8716,0.8716,0.8712,0.8826,0.8602,0.8377,0.7598,0.7376,0.6816,0.5919,0.5029,0.425,0.3916,0.3135,0.28,1.3869,1.4161,1.3937,1.388,1.3913,1.3913,1.3997,1.4088,1.4088,1.4008,1.3895,1.3888,1.3814,1.3694,1.3687,1.3687,1.3681,1.3514,1.3447,1.342,1.314,1.2999,1.2966,1.2609,1.248,1.2619,1.2467,1.248,1.2626,1.2716,1.2792,1.2792,1.2799,1.2799,1.2792,1.2792,1.2799,1.2786,1.2472,1.2305,1.2305,1.2305,1.2238,1.2104,1.1434,1.1007,1.0819,0.9946,0.9424,0.934,0.8806,0.8591,0.8617,0.8534,0.8464,0.8491,0.8903,0.8914,0.8284,0.843,0.8542,0.8409,0.8488,0.8499,0.8329,0.829,0.8137,0.8038,0.8038,0.8133,0.8357,0.8445,0.8574,0.8811,0.8899,0.8937,0.8937,0.8937,0.8937,0.8937,0.8937,0.894,0.9158,0.9051,0.894,0.9158,0.9268,0.9489,0.9599,0.971,0.9596,0.9268,0.9161,0.9047,0.8937,0.8937,0.8937,0.8937,0.8937,0.8605,0.8156,0.7934,0.7706,0.7146,0.7035,0.6813,0.6255,0.6144,0.5697,0.4695,0.4026,0.3469,0.2799,0.213,0.2018,1.4032,1.4274,1.4203,1.4109,1.4103,1.4108,1.4088,1.4088,1.4088,1.4088,1.4088,1.4088,1.4088,1.4088,1.4088,1.4088,1.4055,1.3848,1.3741,1.3632,1.344,1.3307,1.328,1.2993,1.2902,1.3087,1.2882,1.2902,1.3107,1.3134,1.3206,1.3206,1.3206,1.3206,1.3206,1.3206,1.3206,1.318,1.2746,1.2505,1.2512,1.2505,1.243,1.2136,1.155,1.1143,1.0892,0.9705,0.9004,0.9045,0.8472,0.8203,0.8345,0.8221,0.8185,0.8434,0.8356,0.8285,0.8153,0.8283,0.8503,0.8814,0.8829,0.8829,0.8825,0.8627,0.8435,0.8237,0.8137,0.8261,0.8626,0.8689,0.8817,0.9003,0.9047,0.9158,0.9051,0.9047,0.9051,0.9047,0.8937,0.8937,0.8937,0.8937,0.8937,0.8937,0.9158,0.9489,0.9596,0.9596,0.9375,0.8823,0.8716,0.894,0.8937,0.8605,0.8491,0.8491,0.8156,0.7595,0.6927,0.6705,0.6478,0.5806,0.5472,0.5361,0.5139,0.5027,0.447,0.3469,0.3135,0.28,0.213,0.1907,0.1795,1.4217,1.453,1.4119,1.4046,1.4202,1.4123,1.4102,1.4095,1.4088,1.4088,1.4088,1.4088,1.4088,1.4088,1.4088,1.4088,1.4088,1.4055,1.4035,1.4001,1.3741,1.3607,1.3492,1.314,1.287,1.2988,1.2949,1.2956,1.3021,1.316,1.322,1.3206,1.3206,1.3233,1.322,1.3227,1.322,1.3213,1.3153,1.3126,1.3126,1.3126,1.2726,1.1842,1.1044,1.0355,0.979,0.8848,0.8512,0.8582,0.8595,0.8519,0.8552,0.8682,0.8607,0.8572,0.8753,0.8902,0.8754,0.8693,0.8806,0.8825,0.9031,0.9034,0.8825,0.9031,0.9031,0.873,0.8528,0.8567,0.9175,0.9223,0.925,0.9332,0.9489,0.9599,0.9379,0.9379,0.9379,0.9379,0.9161,0.8937,0.894,0.8937,0.8937,0.8937,0.9161,0.9158,0.8933,0.9044,0.8706,0.7931,0.8266,0.8933,0.8712,0.7934,0.7374,0.7152,0.648,0.5919,0.5697,0.5586,0.5472,0.4916,0.5139,0.4693,0.4137,0.3692,0.3358,0.2577,0.213,0.2018,0.1795,0.1795,0.1795,1.4515,1.4823,1.4622,1.4592,1.4668,1.4469,1.4342,1.4329,1.4162,1.4088,1.4088,1.4088,1.4088,1.4088,1.4088,1.4088,1.4088,1.4088,1.4088,1.4082,1.3955,1.3901,1.3874,1.3526,1.3391,1.3536,1.3391,1.3391,1.3619,1.3728,1.3734,1.3728,1.3734,1.3734,1.3728,1.3734,1.3728,1.3734,1.3728,1.348,1.2934,1.2562,1.224,1.1686,1.0587,0.979,0.947,0.8815,0.8487,0.8564,0.8572,0.8617,0.871,0.8697,0.8647,0.875,0.879,0.8954,0.9225,0.913,0.913,0.9229,0.9327,0.943,0.9225,0.9232,0.9232,0.9229,0.8928,0.8866,0.9272,0.9332,0.9356,0.9632,0.9706,0.9706,0.971,0.9596,0.9596,0.9596,0.9489,0.9379,0.9158,0.9047,0.8937,0.8937,0.9047,0.8712,0.8045,0.7931,0.7485,0.648,0.67,0.6922,0.6922,0.6478,0.6144,0.6033,0.5697,0.525,0.4472,0.436,0.4137,0.3469,0.3469,0.3357,0.2688,0.2577,0.2354,0.1795,0.1795,0.1795,0.1795,0.1795,0.1795,1.476,1.4946,1.4961,1.5081,1.5057,1.477,1.4636,1.4603,1.4335,1.4202,1.4202,1.4122,1.4088,1.4088,1.4088,1.4088,1.4088,1.4088,1.4088,1.4088,1.4088,1.4088,1.4062,1.3874,1.3874,1.4021,1.3868,1.3881,1.4068,1.4088,1.4088,1.4088,1.4088,1.4088,1.4088,1.4088,1.4088,1.4075,1.3828,1.3392,1.265,1.1744,1.1308,1.1155,1.0228,0.9469,0.9217,0.8839,0.8572,0.8572,0.8609,0.869,0.8808,0.873,0.8828,0.9107,0.9056,0.9229,0.9525,0.943,0.943,0.9628,0.9624,0.9624,0.9628,0.943,0.9434,0.9525,0.9229,0.9168,0.9473,0.9537,0.9682,0.9874,0.9923,1.0033,0.9923,0.9926,0.9926,0.9926,0.9816,0.9706,0.9489,0.9044,0.8602,0.8491,0.8156,0.782,0.6927,0.6594,0.6258,0.5139,0.4916,0.5139,0.525,0.5139,0.5025,0.4804,0.4582,0.3916,0.3246,0.3135,0.3024,0.2577,0.2018,0.1795,0.2018,0.1907,0.1795,0.1795,0.1795,0.1795,0.1795,0.1795,0.1795,1.4484,1.4727,1.4946,1.5213,1.5351,1.507,1.4943,1.4923,1.4636,1.4502,1.4462,1.4222,1.4095,1.4102,1.4095,1.4088,1.4088,1.4088,1.4088,1.4088,1.4088,1.4088,1.4088,1.4075,1.4068,1.4088,1.4055,1.4055,1.4088,1.4088,1.4088,1.4088,1.4088,1.4088,1.4088,1.4088,1.4082,1.3913,1.3228,1.2705,1.2443,1.0864,1.0058,0.9971,0.9918,0.9401,0.8807,0.8648,0.8572,0.8572,0.8718,0.8812,0.8852,0.9149,0.9409,0.9583,0.9521,0.9529,0.9624,0.9529,0.9628,0.9624,0.9624,0.9624,0.9624,0.9628,0.9529,0.9624,0.9541,0.969,0.9991,1.006,1.0103,1.0311,1.0472,1.0472,1.0253,1.0257,1.0253,1.0257,0.9926,0.9592,0.9592,0.8813,0.8036,0.7482,0.6702,0.5924,0.5699,0.5475,0.4918,0.4026,0.3692,0.4026,0.4916,0.436,0.3802,0.358,0.3023,0.2242,0.2019,0.1907,0.1795,0.1907,0.1795,0.1795,0.1795,0.1795,0.1795,0.1795,0.1795,0.1795,0.1795,0.1795,0.1795,1.4592,1.4975,1.5246,1.5483,1.5638,1.5364,1.5237,1.5211,1.493,1.4803,1.4756,1.4489,1.4362,1.4355,1.4168,1.4088,1.4088,1.4088,1.4088,1.4088,1.4088,1.4088,1.4088,1.4088,1.4088,1.4088,1.4088,1.4088,1.4088,1.4088,1.4088,1.4088,1.4088,1.4088,1.4088,1.4088,1.3828,1.3222,1.2875,1.21,1.1063,1.0207,0.9685,0.9087,0.9087,0.8911,0.866,0.8572,0.8617,0.8723,0.8787,0.8926,0.9153,0.9397,0.9555,0.9616,0.9624,0.9624,0.9624,0.9624,0.9624,0.9624,0.9624,0.9624,0.9624,0.9624,0.9624,0.9644,0.9738,0.9908,1.0087,1.016,1.0306,1.0506,1.0692,1.0692,1.0582,1.0582,1.0582,1.0363,0.9702,0.8706,0.8036,0.726,0.6927,0.6705,0.6371,0.559,0.4808,0.4474,0.4027,0.2912,0.2465,0.2576,0.2912,0.28,0.2465,0.2353,0.2018,0.2018,0.1795,0.1795,0.1795,0.1795,0.1795,0.1795,0.1795,0.1795,0.1795,0.1795,0.1795,0.1795,0.1795,0.1795,0.1795,1.4592,1.4981,1.5261,1.5547,1.571,1.5625,1.5538,1.5498,1.5231,1.5104,1.505,1.4796,1.4663,1.4616,1.4355,1.4229,1.4208,1.4135,1.4088,1.4088,1.4088,1.4088,1.4088,1.4088,1.4088,1.4088,1.4088,1.4088,1.4088,1.4088,1.4088,1.4088,1.4088,1.4088,1.4088,1.4088,1.3659,1.2881,1.2443,1.1494,1.0033,0.9598,0.9257,0.8744,0.8572,0.8572,0.8572,0.8617,0.8694,0.8812,0.8926,0.9129,0.9417,0.9555,0.9624,0.9624,0.9624,0.9624,0.9624,0.9624,0.9624,0.9624,0.9624,0.9624,0.9624,0.9624,0.9624,0.9661,0.9786,0.9961,1.0123,1.0217,1.0371,1.0631,1.0692,1.0692,1.0692,1.0692,1.0472,0.9919,0.8809,0.7811,0.6922,0.6371,0.6038,0.5815,0.5592,0.47,0.392,0.3473,0.3137,0.213,0.1907,0.1907,0.213,0.213,0.2019,0.2018,0.1906,0.1795,0.1795,0.1795,0.1795,0.1795,0.1795,0.1795,0.1795,0.1795,0.1795,0.1795,0.1795,0.1795,0.1795,0.1795,0.1795,1.449,1.4694,1.4981,1.5261,1.554,1.5704,1.5818,1.5745,1.5518,1.5398,1.5357,1.509,1.4963,1.4903,1.4656,1.4516,1.4436,1.4235,1.4108,1.4088,1.4088,1.4088,1.4088,1.4088,1.4088,1.4088,1.4088,1.4088,1.4088,1.4088,1.4088,1.4088,1.4088,1.4088,1.4088,1.4088,1.3652,1.279,1.1929,1.0977,0.9946,0.917,0.874,0.8656,0.858,0.8593,0.8589,0.8727,0.8812,0.8869,0.9153,0.9425,0.9571,0.9624,0.9624,0.9624,0.9624,0.9624,0.9624,0.9624,0.9624,0.9624,0.9624,0.9624,0.9624,0.9624,0.9624,0.9648,0.9807,0.9977,1.0152,1.0327,1.0501,1.066,1.0692,1.0692,1.0692,1.0692,1.0245,0.903,0.7808,0.7141,0.6808,0.5924,0.5146,0.481,0.4142,0.3473,0.3029,0.2692,0.2356,0.2131,0.1907,0.1795,0.1795,0.1795,0.1795,0.1795,0.1795,0.1795,0.1795,0.1795,0.1795,0.1795,0.1795,0.1795,0.1795,0.1795,0.1795,0.1795,0.1795,0.1795,0.1795,0.1795,0.1795,1.449,1.4694,1.4987,1.5267,1.554,1.5737,1.5825,1.5818,1.5725,1.5698,1.5638,1.5391,1.5264,1.5197,1.4957,1.4716,1.4522,1.4416,1.4282,1.4115,1.4088,1.4088,1.4088,1.4088,1.4088,1.4088,1.4088,1.4088,1.4088,1.4088,1.4088,1.4088,1.4088,1.4088,1.4088,1.4088,1.3652,1.2784,1.2443,1.1499,1.0033,0.9685,0.9257,0.8664,0.8678,0.8743,0.8743,0.8792,0.8885,0.9007,0.923,0.9437,0.9587,0.9624,0.9624,0.9624,0.9624,0.9624,0.9624,0.9624,0.9624,0.9624,0.9624,0.9624,0.9624,0.9624,0.9628,0.9661,0.9892,1.0111,1.0197,1.044,1.0619,1.0684,1.0692,1.0692,1.0582,0.9919,0.8916,0.7808,0.6589,0.5701,0.4923,0.4257,0.4257,0.4143,0.3698,0.3251,0.2805,0.2581,0.2356,0.2019,0.1907,0.1795,0.1795,0.1795,0.1795,0.1795,0.1795,0.1795,0.1795,0.1795,0.1795,0.1795,0.1795,0.1795,0.1795,0.1795,0.1795,0.1795,0.1795,0.1795,0.1795,0.1795,0.1795,1.4394,1.4592,1.4885,1.5077,1.5356,1.554,1.573,1.5825,1.5825,1.5825,1.5778,1.5638,1.5551,1.5498,1.5251,1.4963,1.4689,1.4576,1.4369,1.4122,1.4088,1.4088,1.4088,1.4088,1.4088,1.4088,1.4088,1.4088,1.4088,1.4088,1.4088,1.4088,1.4088,1.4088,1.4088,1.4088,1.3659,1.2875,1.2699,1.1923,1.0631,1.0115,0.963,0.919,0.8943,0.8852,0.8913,0.8978,0.9072,0.9198,0.936,0.951,0.962,0.9624,0.9624,0.9624,0.9624,0.9624,0.9624,0.9624,0.9624,0.9624,0.9624,0.9624,0.9624,0.9624,0.9644,0.9758,0.9985,1.0193,1.029,1.0509,1.0676,1.0692,1.0692,1.0692,1.0472,0.9251,0.8029,0.7033,0.5813,0.4479,0.381,0.3587,0.3587,0.3587,0.3587,0.3475,0.3029,0.2806,0.2356,0.2019,0.1907,0.1795,0.1795,0.1795,0.1795,0.1795,0.1795,0.1795,0.1795,0.1795,0.1795,0.1795,0.1795,0.1795,0.1795,0.1795,0.1795,0.1795,0.1795,0.1795,0.1795,0.1795,0.1795,1.4298,1.4298,1.4592,1.4885,1.5178,1.5452,1.5635,1.5832,1.5825,1.5825,1.5818,1.5798,1.5798,1.5758,1.5524,1.5264,1.4983,1.4756,1.4469,1.4229,1.4148,1.4135,1.4095,1.4088,1.4088,1.4088,1.4088,1.4088,1.4088,1.4088,1.4088,1.4088,1.4088,1.4088,1.4088,1.4088,1.3659,1.3045,1.2875,1.2357,1.1419,1.0492,1.005,1.0046,0.9315,0.8958,0.9104,0.9254,0.9352,0.9388,0.9522,0.9604,0.9624,0.9624,0.9624,0.9624,0.9624,0.9624,0.9624,0.9624,0.9624,0.9624,0.9624,0.9624,0.9624,0.9628,0.9693,0.9843,1.0042,1.0233,1.04,1.0582,1.068,1.0692,1.0692,1.0692,1.0359,0.8468,0.7252,0.6586,0.5033,0.3587,0.3587,0.3587,0.3587,0.3587,0.3587,0.3362,0.3027,0.2692,0.2468,0.2244,0.1907,0.1795,0.1795,0.1795,0.1795,0.1795,0.1795,0.1795,0.1795,0.1795,0.1795,0.1795,0.1795,0.1795,0.1795,0.1795,0.1795,0.1795,0.1795,0.1795,0.1795,0.1795,0.1795,1.4298,1.4298,1.4592,1.4885,1.5083,1.5356,1.5635,1.5825,1.5825,1.5825,1.5825,1.5825,1.5825,1.5818,1.5752,1.5558,1.5199,1.5093,1.487,1.4462,1.4402,1.4275,1.4122,1.4088,1.4088,1.4088,1.4088,1.4088,1.4088,1.4088,1.4088,1.4088,1.4088,1.4088,1.4088,1.4088,1.3997,1.3737,1.375,1.3234,1.2312,1.1499,1.0805,1.0164,0.9528,0.9313,0.9299,0.9462,0.9555,0.9559,0.9596,0.9624,0.9624,0.9624,0.9624,0.9624,0.9624,0.9624,0.9624,0.9624,0.9624,0.9624,0.9624,0.9624,0.9624,0.9624,0.9713,0.9872,1.005,1.0237,1.0416,1.059,1.068,1.0692,1.0692,1.0359,0.9364,0.8026,0.6808,0.5813,0.4479,0.3811,0.3587,0.3587,0.3587,0.3587,0.3362,0.325,0.2915,0.2692,0.2356,0.2131,0.1795,0.1795,0.1795,0.1795,0.1795,0.1795,0.1795,0.1795,0.1795,0.1795,0.1795,0.1795,0.1795,0.1795,0.1795,0.1795,0.1795,0.1795,0.1795,0.1795,0.1795,0.1795,0.1795,1.4592,1.4592,1.4688,1.4879,1.5267,1.5363,1.5547,1.573,1.5825,1.5825,1.5825,1.5825,1.5825,1.573,1.5343,1.4999,1.475,1.4724,1.4404,1.4025,1.4196,1.4229,1.4108,1.4088,1.4088,1.4088,1.4095,1.4088,1.4088,1.4088,1.4088,1.4088,1.4088,1.4088,1.4088,1.4088,1.4088,1.4108,1.4188,1.3827,1.288,1.2137,1.1323,1.0508,0.9828,0.938,0.9466,0.9571,0.9624,0.9624,0.9624,0.9624,0.9624,0.9624,0.9624,0.9624,0.9624,0.9624,0.9624,0.9624,0.9624,0.9624,0.9624,0.9624,0.9624,0.9628,0.9709,0.9981,1.0103,1.0282,1.0497,1.0639,1.0684,1.0692,1.0692,1.0249,0.9034,0.7805,0.67,0.5481,0.4369,0.3587,0.3587,0.3587,0.3587,0.3587,0.3475,0.325,0.2915,0.258,0.2244,0.2019,0.1795,0.1795,0.1795,0.1795,0.1795,0.1795,0.1795,0.1795,0.1795,0.1795,0.1795,0.1795,0.1795,0.1795,0.1795,0.1795,0.1795,0.1795,0.1795,0.1795,0.1795,0.1795,0.1795,1.5083,1.5077,1.4885,1.507,1.5445,1.5261,1.5458,1.5737,1.5825,1.5825,1.5825,1.5825,1.5635,1.5635,1.4771,1.4159,1.3737,1.396,1.3799,1.3755,1.3873,1.4095,1.4102,1.4162,1.4182,1.4188,1.4162,1.4188,1.4195,1.4162,1.4115,1.4095,1.4088,1.4122,1.4168,1.4162,1.4155,1.4282,1.4469,1.4025,1.3175,1.2383,1.1564,1.0679,0.9836,0.9474,0.9567,0.9624,0.9624,0.9624,0.9624,0.9624,0.9624,0.9624,0.9624,0.9624,0.9624,0.9624,0.9624,0.9624,0.9624,0.9624,0.9624,0.9624,0.9624,0.9632,0.975,1.0034,1.0144,1.0327,1.0595,1.0692,1.0692,1.0692,1.0692,1.0135,0.8916,0.7697,0.6589,0.5369,0.4145,0.3699,0.3587,0.3587,0.3587,0.3587,0.3475,0.325,0.3027,0.2805,0.2468,0.2132,0.2019,0.1907,0.1795,0.1795,0.1795,0.1795,0.1795,0.1795,0.1795,0.1795,0.1795,0.1795,0.1795,0.1795,0.1795,0.1795,0.1795,0.1795,0.1795,0.1795,0.1795,0.1795,0.1795,1.5083,1.5083,1.5083,1.5172,1.5445,1.5452,1.5547,1.5825,1.5825,1.5825,1.5825,1.5825,1.535,1.4682,1.4394,1.3861,1.3301,1.3743,1.4297,1.4576,1.413,1.4108,1.4142,1.4196,1.4409,1.4456,1.4663,1.4629,1.4476,1.4369,1.4302,1.4102,1.4128,1.4202,1.4382,1.4422,1.4556,1.4736,1.4836,1.4219,1.3176,1.245,1.167,1.0705,0.9968,0.9571,0.9608,0.9624,0.9624,0.9624,0.9624,0.9624,0.9624,0.9624,0.9624,0.9624,0.9624,0.9624,0.9624,0.9624,0.9624,0.9624,0.9624,0.9624,0.9624,0.9624,0.9726,0.9929,1.0079,1.0314,1.0627,1.0692,1.0692,1.0692,1.0692,0.9805,0.8029,0.7252,0.6255,0.4589,0.381,0.3587,0.3587,0.3587,0.3587,0.3587,0.3475,0.325,0.3027,0.2917,0.258,0.2356,0.2019,0.1907,0.1795,0.1795,0.1795,0.1795,0.1795,0.1795,0.1795,0.1795,0.1795,0.1795,0.1795,0.1795,0.1795,0.1795,0.1795,0.1795,0.1795,0.1795,0.1795,0.1795,0.1795,1.5452,1.5458,1.5356,1.5452,1.5635,1.554,1.5635,1.5825,1.5825,1.5825,1.5825,1.5825,1.5445,1.4962,1.449,1.3902,1.3634,1.372,1.4235,1.4582,1.403,1.3665,1.3972,1.4004,1.3986,1.4475,1.481,1.4783,1.4589,1.4496,1.4362,1.4135,1.4215,1.4362,1.4536,1.4656,1.4517,1.4205,1.4358,1.3762,1.2314,1.1936,1.1303,1.0347,0.9763,0.9624,0.9624,0.9624,0.9624,0.9624,0.9624,0.9624,0.9624,0.9624,0.9624,0.9624,0.9624,0.9624,0.9624,0.9624,0.9624,0.9624,0.9624,0.9624,0.9624,0.9624,0.9709,0.9872,1.0067,1.0306,1.0639,1.0692,1.0692,1.0692,1.0692,0.9691,0.7695,0.7141,0.6142,0.4255,0.3587,0.3587,0.3587,0.3587,0.3587,0.3587,0.3587,0.3362,0.3251,0.3029,0.2805,0.2468,0.2132,0.1907,0.1795,0.1795,0.1795,0.1795,0.1795,0.1795,0.1795,0.1795,0.1795,0.1795,0.1795,0.1795,0.1795,0.1795,0.1795,0.1795,0.1795,0.1795,0.1795,0.1795,0.1795,1.5825,1.5825,1.5635,1.5635,1.5737,1.5635,1.5635,1.5825,1.5825,1.5825,1.5825,1.5825,1.5635,1.535,1.4682,1.4298,1.4171,1.3839,1.406,1.4718,1.3915,1.3658,1.3926,1.3832,1.3899,1.4469,1.4823,1.4803,1.4663,1.4522,1.4369,1.4182,1.4369,1.4536,1.4636,1.487,1.4805,1.4258,1.4322,1.3461,1.1777,1.1549,1.1044,0.9895,0.9612,0.9624,0.9624,0.9624,0.9624,0.9624,0.9624,0.9624,0.9624,0.9624,0.9624,0.9624,0.9624,0.9624,0.9624,0.9624,0.9624,0.9624,0.9624,0.9624,0.9624,0.9636,0.9717,0.9892,1.0095,1.0355,1.0643,1.0692,1.0692,1.0692,1.0692,0.9578,0.7805,0.703,0.5919,0.4143,0.3587,0.3587,0.3587,0.3587,0.3587,0.3587,0.3587,0.3587,0.3363,0.3253,0.2917,0.258,0.2244,0.2019,0.1795,0.1795,0.1795,0.1795,0.1795,0.1795,0.1795,0.1795,0.1795,0.1795,0.1795,0.1795,0.1795,0.1795,0.1795,0.1795,0.1795,0.1795,0.1795,0.1795,0.1795,1.5825,1.5825,1.573,1.5737,1.5825,1.573,1.573,1.5825,1.5825,1.5825,1.5825,1.5825,1.535,1.4777,1.4484,1.4298,1.4303,1.4105,1.4232,1.488,1.4226,1.4071,1.4045,1.3991,1.4235,1.4508,1.479,1.487,1.479,1.4643,1.4389,1.4208,1.4402,1.4636,1.4917,1.5177,1.5332,1.4971,1.4993,1.407,1.2651,1.2007,1.137,0.9821,0.9624,0.9624,0.9624,0.9624,0.9624,0.9624,0.9624,0.9624,0.9624,0.9624,0.9624,0.9624,0.9624,0.9624,0.9624,0.9624,0.9624,0.9624,0.9624,0.9624,0.9624,0.9636,0.9726,0.9933,1.0188,1.0469,1.0664,1.0692,1.0692,1.0692,1.0578,0.9688,0.7805,0.6919,0.6142,0.4032,0.3699,0.3587,0.3587,0.3587,0.3587,0.3587,0.3587,0.3587,0.3475,0.3251,0.2915,0.2692,0.2356,0.2132,0.1907,0.1795,0.1795,0.1795,0.1795,0.1795,0.1795,0.1795,0.1795,0.1795,0.1795,0.1795,0.1795,0.1795,0.1795,0.1795,0.1795,0.1795,0.1795,0.1795,0.1795,1.5825,1.5825,1.5825,1.5825,1.5825,1.5825,1.5825,1.5825,1.5825,1.5825,1.5825,1.5825,1.554,1.5159,1.5057,1.5064,1.4893,1.4765,1.4844,1.502,1.4287,1.4022,1.4111,1.3905,1.4154,1.4474,1.4763,1.4756,1.4723,1.4596,1.4449,1.4436,1.4603,1.4897,1.519,1.5478,1.5383,1.5242,1.4962,1.4382,1.2823,1.2339,1.1082,1.0113,0.9624,0.9624,0.9624,0.9624,0.9624,0.9624,0.9624,0.9624,0.9624,0.9624,0.9624,0.9624,0.9624,0.9624,0.9624,0.9624,0.9624,0.9624,0.9624,0.9624,0.9624,0.9648,0.9758,1.001,1.0237,1.0505,1.0672,1.0688,1.0692,1.0692,1.0692,0.9578,0.7916,0.7252,0.581,0.4032,0.3698,0.3587,0.3587,0.3587,0.3587,0.3587,0.3587,0.3475,0.3362,0.3139,0.2803,0.2467,0.2244,0.2019,0.1795,0.1795,0.1795,0.1795,0.1795,0.1795,0.1795,0.1795,0.1795,0.1795,0.1795,0.1795,0.1795,0.1795,0.1795,0.1795,0.1795,0.1795,0.1795,0.1795,0.1795,1.535,1.5146,1.5146,1.5153,1.5153,1.5153,1.5146,1.5146,1.5146,1.5051,1.5146,1.5146,1.5051,1.5146,1.5051,1.5051,1.5134,1.481,1.4801,1.4727,1.3954,1.3793,1.4099,1.3928,1.3911,1.4747,1.4783,1.4643,1.4783,1.4689,1.4629,1.4689,1.4903,1.5144,1.5391,1.5638,1.5121,1.4873,1.458,1.4094,1.3022,1.2052,1.1175,1.031,1.0015,1.0015,1.0109,0.9723,0.9624,0.9624,0.9624,0.9624,0.9624,0.9624,0.9624,0.9624,0.9624,0.9624,0.9624,0.9624,0.9624,0.9624,0.9624,0.9624,0.9669,0.9734,0.9876,1.0132,1.0379,1.0538,1.0668,1.0692,1.0692,1.0692,1.0582,0.9915,0.8026,0.6808,0.5922,0.47,0.3921,0.3587,0.3699,0.3587,0.3587,0.3587,0.3587,0.3362,0.325,0.3029,0.2692,0.2243,0.2019,0.1907,0.1795,0.1795,0.1795,0.1795,0.1795,0.1795,0.1795,0.1795,0.1795,0.1795,0.1795,0.1795,0.1795,0.1795,0.1795,0.1795,0.1795,0.1795,0.1795,0.1795,0.1795,1.3902,1.3113,1.3113,1.3119,1.3216,1.3312,1.3216,1.3312,1.3403,1.3022,1.3505,1.3216,1.3307,1.3403,1.3312,1.3216,1.3199,1.3352,1.3613,1.3918,1.3668,1.3872,1.4751,1.489,1.4563,1.501,1.4957,1.5077,1.513,1.4997,1.491,1.4963,1.506,1.5378,1.5471,1.551,1.5724,1.5635,1.554,1.5064,1.41,1.3022,1.2533,1.2052,1.1468,1.0881,1.0788,1.0203,0.9723,0.9624,0.9624,0.9624,0.9624,0.9624,0.9624,0.9624,0.9624,0.9624,0.9624,0.9624,0.9624,0.9624,0.9624,0.9624,0.9709,0.9904,1.0075,1.0148,1.0448,1.0631,1.068,1.0688,1.0692,1.0692,1.0692,0.9471,0.7805,0.7584,0.6475,0.5144,0.4479,0.4033,0.3811,0.3699,0.3587,0.3587,0.3587,0.3362,0.3138,0.2805,0.2468,0.2131,0.1907,0.1795,0.1795,0.1795,0.1795,0.1795,0.1795,0.1795,0.1795,0.1795,0.1795,0.1795,0.1795,0.1795,0.1795,0.1795,0.1795,0.1795,0.1795,0.1795,0.1795,0.1795,0.1795,1.3307,1.4472,1.4472,1.4472,1.4472,1.4472,1.4472,1.4376,1.38,1.3607,1.3613,1.3613,1.3613,1.3414,1.3022,1.2732,1.2732,1.2732,1.2876,1.3115,1.3202,1.3543,1.4062,1.4216,1.4359,1.5008,1.5237,1.5371,1.5424,1.5139,1.5023,1.5126,1.4857,1.492,1.5398,1.5184,1.5337,1.554,1.573,1.5261,1.4484,1.3806,1.3312,1.2732,1.2242,1.1853,1.1272,1.0881,1.0109,0.9821,0.9624,0.9624,0.9624,0.9624,0.9624,0.9624,0.9624,0.9624,0.9624,0.9624,0.9624,0.9624,0.9636,0.9669,0.9791,0.9994,1.0217,1.0318,1.0542,1.0672,1.0692,1.0692,1.0692,1.0692,1.0692,0.9695,0.8585,0.8361,0.7587,0.6255,0.5035,0.459,0.4145,0.3811,0.3699,0.3587,0.3475,0.3363,0.2915,0.2355,0.2132,0.1907,0.1795,0.1795,0.1795,0.1795,0.1795,0.1795,0.1795,0.1795,0.1795,0.1795,0.1795,0.1795,0.1795,0.1795,0.1795,0.1795,0.1795,0.1795,0.1795,0.1795,0.1795,0.1795,0.1795,1.292,1.4956,1.4758,1.4663,1.4663,1.486,1.4956,1.486,1.419,1.3806,1.3908,1.3806,1.3806,1.3811,1.3022,1.2732,1.2732,1.2732,1.2926,1.2951,1.2958,1.3337,1.3842,1.3896,1.4007,1.474,1.4459,1.4559,1.4653,1.4627,1.46,1.5398,1.4946,1.4948,1.5373,1.5248,1.5255,1.573,1.5825,1.5445,1.4867,1.4771,1.4286,1.3703,1.3216,1.2727,1.2047,1.1658,1.1082,1.0694,1.0207,1.0207,1.0109,0.9821,0.9624,0.9624,0.9624,0.9624,0.9624,0.9624,0.9624,0.9624,0.9632,0.9673,0.9791,1.0014,1.0197,1.0318,1.0566,1.066,1.0692,1.0692,1.0692,1.0692,1.0692,0.9915,0.9254,0.892,0.8251,0.6808,0.5699,0.5258,0.4814,0.4033,0.3699,0.3587,0.3475,0.3251,0.2803,0.2243,0.2019,0.1907,0.1795,0.1795,0.1795,0.1795,0.1795,0.1795,0.1795,0.1795,0.1795,0.1795,0.1795,0.1795,0.1795,0.1795,0.1795,0.1795,0.1795,0.1795,0.1795,0.1795,0.1795,0.1795,0.1795,1.2732,1.2829,1.1945,1.175,1.1848,1.2528,1.292,1.321,1.2926,1.2829,1.2829,1.2732,1.2732,1.2732,1.2538,1.2339,1.2533,1.2635,1.2829,1.3511,1.4172,1.3646,1.3701,1.3683,1.3701,1.3346,1.3521,1.3448,1.3102,1.3425,1.4266,1.5406,1.4848,1.5393,1.5724,1.5635,1.554,1.573,1.5642,1.5635,1.5445,1.5445,1.5343,1.5159,1.4586,1.41,1.3998,1.3119,1.2436,1.2052,1.1468,1.1077,1.0984,1.031,0.9916,0.992,0.9624,0.9624,0.9624,0.9624,0.9624,0.9624,0.9632,0.9652,0.9742,0.9989,1.0148,1.0245,1.0509,1.0651,1.068,1.0692,1.0692,1.0692,1.0692,1.0249,0.9695,0.9364,0.8585,0.7252,0.6586,0.6258,0.5481,0.4814,0.3921,0.3699,0.3475,0.3251,0.2915,0.2467,0.2131,0.1907,0.1907,0.1795,0.1795,0.1795,0.1795,0.1795,0.1795,0.1795,0.1795,0.1795,0.1795,0.1795,0.1795,0.1795,0.1795,0.1795,0.1795,0.1795,0.1795,0.1795,0.1795,0.1795,0.1795,1.0788,1.0792,1.1077,1.156,1.2145,1.2538,1.2732,1.2538,1.2047,1.1755,1.1755,1.1179,1.1179,1.1468,1.0984,1.0788,1.0792,1.0797,1.1282,1.1282,1.138,1.1765,1.2247,1.3119,1.3403,1.3414,1.3511,1.3703,1.38,1.2829,1.3017,1.3692,1.3986,1.4854,1.5242,1.5635,1.573,1.554,1.5255,1.4962,1.4867,1.4873,1.4873,1.4777,1.5445,1.4777,1.4298,1.3902,1.3318,1.2732,1.2242,1.2047,1.176,1.0886,1.0502,1.0306,0.9916,0.9624,0.9624,0.9624,0.9624,0.9624,0.9632,0.9661,0.9734,0.9929,1.0128,1.0282,1.0432,1.0546,1.068,1.0688,1.0692,1.0692,1.0582,1.0359,1.0139,0.9805,0.9695,0.8692,0.8029,0.759,0.6591,0.5481,0.459,0.3698,0.3474,0.325,0.2915,0.2691,0.2355,0.2131,0.2019,0.1907,0.1795,0.1795,0.1795,0.1795,0.1795,0.1795,0.1795,0.1795,0.1795,0.1795,0.1795,0.1795,0.1795,0.1795,0.1795,0.1795,0.1795,0.1795,0.1795,0.1795,0.1795,0.9547,0.9649,1.0378,1.1277,1.2242,1.2533,1.2732,1.2538,1.2047,1.1658,1.1565,1.089,1.089,1.1272,1.0984,1.0694,1.089,1.089,1.0694,1.089,1.1082,1.0792,1.1272,1.1853,1.2339,1.2931,1.2937,1.2743,1.3022,1.2247,1.2339,1.2533,1.2533,1.3403,1.437,1.5248,1.535,1.5153,1.5159,1.4771,1.4771,1.4873,1.4586,1.4675,1.5255,1.486,1.4292,1.3806,1.3613,1.2926,1.2339,1.2242,1.1853,1.1468,1.0886,1.0498,1.0109,0.9624,0.9624,0.9624,0.9624,0.9624,0.9628,0.9693,0.9778,0.9851,1.0022,1.0172,1.0294,1.0424,1.0586,1.0595,1.0647,1.0655,1.0688,1.0582,1.0582,1.0359,1.0468,1.0135,0.9137,0.7587,0.67,0.5479,0.4367,0.3699,0.3587,0.3362,0.3026,0.2802,0.2579,0.2355,0.2132,0.2019,0.1907,0.1795,0.1795,0.1795,0.1795,0.1795,0.1795,0.1795,0.1795,0.1795,0.1795,0.1795,0.1795,0.1795,0.1795,0.1795,0.1795,0.1795,0.1795,0.1795,0.1795,0.9456,0.9384,0.9637,1.0288,1.1346,1.2242,1.2533,1.2344,1.2344,1.2242,1.2145,1.2047,1.2052,1.215,1.1663,1.157,1.1668,1.1858,1.1955,1.1663,1.137,1.1565,1.137,1.1272,1.1365,1.0015,1.0502,1.1277,1.1565,1.0694,1.1082,1.1663,1.1565,1.1853,1.2823,1.3806,1.4298,1.4388,1.5064,1.5057,1.5153,1.5057,1.4675,1.4675,1.5255,1.4956,1.419,1.4004,1.3811,1.3125,1.2145,1.1853,1.156,1.0694,1.0109,1.0015,0.9821,0.9624,0.9624,0.9624,0.9624,0.9624,0.9624,0.9648,0.9677,0.9766,0.9888,1.0022,1.0091,1.0245,1.0363,1.0448,1.0526,1.0574,1.0595,1.0639,1.0635,1.0692,1.0692,1.0582,0.8803,0.7027,0.6251,0.5365,0.4255,0.3587,0.3587,0.3475,0.325,0.3138,0.2915,0.2691,0.2467,0.2243,0.2019,0.1907,0.1795,0.1795,0.1795,0.1795,0.1795,0.1795,0.1795,0.1795,0.1795,0.1795,0.1795,0.1795,0.1795,0.1795,0.1795,0.1795,0.1795,0.1795,0.1795,0.9464,0.9652,0.972,1.0005,1.0513,1.0547,1.0694,1.0596,1.0694,1.0699,1.06,1.0596,1.0596,1.0596,1.0774,1.0769,1.069,1.06,1.0596,1.0694,1.0788,1.0502,1.0306,1.0788,1.0881,1.0783,1.069,1.0592,1.1272,1.0113,0.992,1.0408,1.0694,1.1179,1.2339,1.3119,1.3216,1.3119,1.3022,1.3017,1.3698,1.389,1.3992,1.4196,1.5057,1.5057,1.4184,1.4094,1.3709,1.3221,1.2242,1.1853,1.1755,1.0886,1.0493,1.04,1.0207,0.9624,0.9624,0.9624,0.9624,0.9624,0.9624,0.9624,0.9644,0.9669,0.9758,0.9847,0.9925,1.0079,1.0205,1.0245,1.0302,1.0331,1.0375,1.0473,1.0526,1.0635,1.0692,1.0359,0.9137,0.7141,0.5922,0.5033,0.3921,0.3587,0.3587,0.3587,0.3475,0.3362,0.3251,0.3026,0.2802,0.2466,0.2243,0.2019,0.1907,0.1907,0.1795,0.1795,0.1795,0.1795,0.1795,0.1795,0.1795,0.1795,0.1795,0.1795,0.1795,0.1795,0.1795,0.1795,0.1795,0.1795,0.1795,0.9556,0.9745,0.9811,0.9907,0.9957,0.985,0.9759,0.9715,0.9624,0.9596,0.9539,0.9527,0.9579,0.9546,0.9445,0.9502,0.9522,0.9531,0.9604,0.9608,0.9624,0.9723,0.9916,1.0207,1.04,1.069,1.069,1.069,1.117,1.0109,0.9821,0.9723,0.9624,1.0306,1.137,1.176,1.2145,1.215,1.2145,1.2436,1.2727,1.2829,1.2926,1.3318,1.38,1.4184,1.3698,1.3312,1.313,1.2737,1.215,1.1663,1.1473,1.1082,1.069,1.04,1.0109,0.9628,0.9624,0.9624,0.9624,0.9624,0.9624,0.9624,0.9624,0.964,0.9689,0.9754,0.9799,0.9904,1.0026,1.0054,1.0099,1.0132,1.0221,1.0322,1.0375,1.0481,1.0482,1.0167,0.8913,0.7141,0.5367,0.459,0.3699,0.3587,0.3587,0.3586,0.3585,0.3587,0.3475,0.325,0.3026,0.2691,0.2355,0.2131,0.2019,0.1907,0.1907,0.1795,0.1795,0.1795,0.1795,0.1795,0.1795,0.1795,0.1795,0.1795,0.1795,0.1795,0.1795,0.1795,0.1795,0.1795,0.1795,0.9543,0.9574,0.9741,0.9811,0.9855,1.0039,1.0031,0.9993,0.9694,0.9494,0.9444,0.9444,0.9386,0.9145,0.9116,0.921,0.9344,0.9364,0.9466,0.9571,0.9608,0.9616,0.9624,0.9723,0.9916,0.9821,0.9817,1.0301,1.0881,1.0109,0.9624,0.9624,0.9624,0.9916,1.0306,1.0694,1.1082,1.1179,1.1468,1.1853,1.2242,1.2436,1.2344,1.2441,1.2727,1.2436,1.1858,1.137,1.1082,1.0502,0.992,0.9821,0.9723,0.9624,0.9624,0.9628,0.9628,0.9628,0.9624,0.9624,0.9624,0.9624,0.9624,0.9624,0.9624,0.9624,0.9652,0.9665,0.9689,0.9766,0.9847,0.9892,0.9941,1.0014,1.0103,1.016,1.0188,1.0282,1.0297,0.9522,0.7981,0.6354,0.4583,0.3583,0.356,0.3572,0.357,0.3567,0.357,0.3587,0.3475,0.3362,0.3027,0.2806,0.258,0.2243,0.2019,0.2019,0.1907,0.1795,0.1795,0.1795,0.1795,0.1795,0.1795,0.1795,0.1795,0.1795,0.1795,0.1795,0.1795,0.1795,0.1795,0.1795,0.1795,0.9693,0.9874,0.993,1.0037,1.0108,1.0209,1.013,0.9992,0.9789,0.9583,0.9357,0.9353,0.9308,0.91,0.9096,0.9125,0.9198,0.9291,0.9368,0.9462,0.9555,0.9604,0.9624,0.9624,0.9624,0.9624,0.9723,0.9821,1.0015,0.9624,0.9624,0.9624,0.9624,0.9624,0.9723,0.9916,1.0113,1.0207,1.06,1.1082,1.1468,1.1663,1.1663,1.195,1.2145,1.176,1.157,1.1077,1.0788,1.069,0.992,0.9628,0.9624,0.9624,0.9624,0.9624,0.9628,0.9624,0.9624,0.9624,0.9624,0.9624,0.9624,0.9624,0.9624,0.9624,0.9624,0.9624,0.9624,0.9701,0.973,0.9762,0.9786,0.9839,0.992,0.9871,0.9907,1.0008,0.9922,0.8783,0.7253,0.5751,0.3997,0.3536,0.3518,0.354,0.3548,0.354,0.3548,0.3561,0.3586,0.3361,0.3248,0.3025,0.2803,0.2578,0.2243,0.2019,0.1906,0.1794,0.1795,0.1795,0.1795,0.1795,0.1795,0.1795,0.1795,0.1795,0.1795,0.1795,0.1795,0.1795,0.1795,0.1795,0.1795,0.9859,1.0038,1.0038,1.0162,1.0258,1.0134,1.0177,1.0143,0.9939,0.9714,0.9451,0.9447,0.9317,0.9055,0.9051,0.9001,0.8991,0.9072,0.919,0.9397,0.9466,0.9551,0.9592,0.962,0.9624,0.9624,0.9624,0.9624,0.9624,0.9624,0.9624,0.9624,0.9624,0.9624,0.9624,0.9723,0.9624,0.9723,0.9821,1.0015,1.0306,1.0596,1.0984,1.137,1.1565,1.157,1.157,1.0788,1.069,1.0592,0.9723,0.9628,0.9624,0.9624,0.9624,0.9624,0.9624,0.9624,0.9624,0.9624,0.9624,0.9624,0.9624,0.9624,0.9624,0.9624,0.9624,0.9624,0.9624,0.9632,0.9628,0.9628,0.9632,0.964,0.961,0.9578,0.9661,0.9749,0.8953,0.7934,0.6501,0.5019,0.4041,0.3694,0.3466,0.3476,0.3478,0.3471,0.3489,0.3516,0.3556,0.3471,0.3357,0.3244,0.3018,0.2673,0.2338,0.2116,0.1903,0.1903,0.1793,0.1793,0.1791,0.1792,0.1795,0.1791,0.1785,0.1793,0.1795,0.1791,0.1789,0.1792,0.1793,0.1795,0.1795,1.0038,1.0038,1.0038,1.0055,1.0201,1.0055,1.0088,1.0253,0.9962,0.9688,0.9547,0.953,0.9357,0.9101,0.9,0.897,0.8972,0.8968,0.9124,0.9407,0.9324,0.9393,0.949,0.9592,0.9555,0.9587,0.962,0.9624,0.9624,0.9624,0.9624,0.9624,0.9624,0.9624,0.9624,0.9624,0.9624,0.9624,0.9624,0.9723,0.9723,0.9723,0.9624,0.9723,0.9821,0.9821,0.9821,0.9624,0.9624,0.9624,0.9624,0.9624,0.9624,0.9624,0.9624,0.9624,0.9624,0.9624,0.9624,0.9624,0.9624,0.9624,0.9624,0.9624,0.9624,0.9624,0.9624,0.9624,0.9624,0.9624,0.9624,0.9624,0.9624,0.9426,0.9264,0.8992,0.8825,0.8512,0.7604,0.6563,0.5561,0.4307,0.3879,0.3431,0.3422,0.3418,0.3392,0.3387,0.3425,0.3461,0.3492,0.3541,0.3425,0.3302,0.3074,0.2849,0.2529,0.2207,0.1994,0.1883,0.1761,0.1771,0.1785,0.1774,0.1762,0.1772,0.1774,0.1772,0.1769,0.1771,0.1772,0.1785,0.1789,0.1788,0.1795,1.0038,1.0038,1.0038,1.0076,1.0017,1.0062,0.9979,1.0031,0.9986,0.9828,0.9596,0.9592,0.949,0.927,0.917,0.9134,0.8907,0.9016,0.9038,0.9099,0.9189,0.9292,0.9267,0.9384,0.9413,0.947,0.9531,0.9604,0.96,0.9608,0.9624,0.9624,0.9624,0.9624,0.9624,0.9624,0.9624,0.9624,0.9624,0.9624,0.9624,0.9624,0.9624,0.9624,0.9624,0.9624,0.9624,0.9624,0.9624,0.9624,0.9624,0.9624,0.9624,0.9624,0.9624,0.9624,0.9624,0.9624,0.9624,0.9624,0.9624,0.9624,0.9624,0.9624,0.9624,0.9628,0.9624,0.9624,0.9624,0.9624,0.9525,0.9525,0.9426,0.9225,0.8825,0.8425,0.7922,0.7015,0.609,0.5318,0.4534,0.3914,0.3494,0.3387,0.3383,0.3349,0.3296,0.329,0.3353,0.3394,0.3394,0.3431,0.3451,0.3337,0.3118,0.2911,0.2598,0.2269,0.2055,0.1838,0.1731,0.1739,0.1747,0.1732,0.1723,0.1737,0.1741,0.1727,0.1727,0.1739,0.1748,0.1759,0.1767,0.1769,0.1783,1.012,1.0038,1.0038,1.0038,1.0038,1.0038,1.0038,1.0038,1.0038,0.9951,0.9777,0.9777,0.9694,0.9432,0.9432,0.9345,0.9104,0.9181,0.9212,0.9216,0.9092,0.9208,0.9202,0.928,0.9218,0.9287,0.9417,0.9498,0.9429,0.9604,0.9624,0.9525,0.9525,0.9525,0.9525,0.9628,0.9525,0.9624,0.9624,0.9624,0.9624,0.9624,0.9624,0.9624,0.9624,0.9624,0.9624,0.9624,0.9624,0.9624,0.9624,0.9624,0.9624,0.9624,0.9624,0.9624,0.9624,0.9624,0.9624,0.9624,0.9624,0.9624,0.9628,0.9529,0.9426,0.9426,0.9225,0.9225,0.9525,0.9624,0.8924,0.8722,0.8722,0.8524,0.7822,0.7223,0.6526,0.5663,0.5298,0.5112,0.4325,0.361,0.3303,0.3301,0.3298,0.3297,0.324,0.3236,0.329,0.333,0.3327,0.3337,0.3365,0.3377,0.3269,0.2967,0.2772,0.2338,0.2009,0.1917,0.1818,0.1709,0.1705,0.17,0.17,0.171,0.1707,0.1696,0.1702,0.1718,0.1724,0.1729,0.1738,0.1746,0.1757,1.0467,1.0207,1.012,1.0125,1.0033,1.0038,1.0038,1.0038,1.0038,1.0038,0.9951,0.9951,0.9864,0.9689,0.9694,0.9519,0.9358,0.9385,0.9389,0.9366,0.9221,0.9293,0.9204,0.9128,0.8987,0.8769,0.8783,0.8856,0.881,0.88,0.8773,0.9114,0.9229,0.9225,0.9327,0.943,0.9327,0.9525,0.9624,0.9624,0.9624,0.9624,0.9624,0.9624,0.9624,0.9624,0.9624,0.9624,0.9624,0.9624,0.9624,0.9624,0.9624,0.9624,0.9624,0.9624,0.9624,0.9624,0.9624,0.9624,0.9624,0.9628,0.9529,0.9327,0.9126,0.8825,0.8623,0.8623,0.8924,0.8825,0.812,0.7819,0.7819,0.7621,0.6822,0.6024,0.5131,0.4433,0.4437,0.4541,0.4041,0.324,0.3238,0.3234,0.3233,0.3232,0.323,0.323,0.324,0.3263,0.3275,0.3288,0.3311,0.3316,0.3209,0.3014,0.2825,0.2605,0.2182,0.1995,0.1795,0.1677,0.1673,0.1682,0.1684,0.168,0.1681,0.1674,0.1684,0.169,0.1697,0.17,0.1705,0.1714,0.1724,1.1149,1.0982,1.0636,1.0467,1.0467,1.012,1.0038,1.0038,1.0038,1.0038,1.0038,1.0038,0.9951,0.9951,0.9951,0.9777,0.9607,0.9515,0.9432,0.931,0.9173,0.9279,0.9068,0.8572,0.8317,0.8106,0.7886,0.759,0.802,0.7521,0.7027,0.7304,0.722,0.7521,0.8322,0.8425,0.8623,0.8924,0.9225,0.9229,0.9525,0.9525,0.9624,0.9624,0.9624,0.9624,0.9624,0.9624,0.9624,0.9624,0.9624,0.9624,0.9624,0.9624,0.9624,0.9624,0.9624,0.9426,0.9426,0.9327,0.9327,0.9023,0.8825,0.8322,0.7922,0.7325,0.7123,0.6921,0.7123,0.7123,0.6625,0.6722,0.6722,0.6326,0.5827,0.4931,0.4033,0.3732,0.3633,0.3633,0.3534,0.3234,0.3234,0.3232,0.3232,0.323,0.323,0.323,0.323,0.323,0.323,0.3248,0.3267,0.3253,0.3249,0.3057,0.2864,0.2651,0.2346,0.2059,0.1753,0.1635,0.1635,0.1651,0.1645,0.1638,0.1639,0.1652,0.1645,0.165,0.1663,0.1671,0.1675,0.1681,0.1692]},{"header":{"parameterUnit":"m.s-1","parameterCategory":1,"la1":31.0,"la2":29.5877,"lo1":-88.7671,"lo2":-86.6584,"dy":0.0162,"dx":0.0185,"nx":115,"ny":88,"refTime":"2024-09-14T06:00:00:Z","depth":0,"parameterNumber":3,"parameterNumberName":"V-component_of_WINDS"},"data":[0.0,0.0,0.0,0.0,0.0,0.0,0.0,0.0,0.0,0.0,0.0,0.0,0.0,0.0,0.0,0.0,0.0,0.0,0.0,0.0,0.0,0.0,0.0,0.0,0.0,0.0,0.0,0.0,0.0,0.0,0.0,0.0,0.0,0.0,0.0,0.0,0.0,0.0,0.0,0.0,0.0,0.0,0.0,0.0,0.0,0.0,0.0,0.0,0.0,0.0,0.0,0.0,0.0,0.0,0.0,0.0,0.0,0.0,0.0,0.0,0.0,0.0,0.0,0.0,0.0,0.0,0.0,0.0,0.0,0.0,0.0,0.0,0.0,0.0,0.0,0.0,0.0,0.0,0.0,0.0,0.0,0.0,0.0,0.0,0.0,0.0,0.0,0.0,0.0,0.0,0.0,0.0,0.0,0.0,0.0,0.0,0.0,0.0,0.0,0.0,0.0,0.0,0.0,0.0,0.0,0.0,0.0,0.0,0.0,0.0,0.0,0.0,0.0,0.0,0.0,0.0,0.0,0.0,0.0,0.0,0.0,0.0,0.0,0.0,0.0,0.0,0.0,0.0,0.0,0.0,0.0,0.0,0.0,0.0,0.0,0.0,0.0,0.0,0.0,0.0,0.0,0.0,0.0,0.0,0.0,0.0,0.0,0.0,0.0,0.0,0.0,0.0,0.0,0.0,0.0,0.0,0.0,0.0,0.0,0.0,0.0,0.0,0.0,0.0,0.0,0.0,0.0,0.0,0.0,0.0,0.0,0.0,0.0,0.0,0.0,0.0,0.0,0.0,0.0,0.0,0.0,0.0,0.0,0.0,0.0,0.0,0.0,0.0,0.0,0.0,0.0,0.0,0.0,0.0,0.0,0.0,0.0,0.0,0.0,0.0,0.0,0.0,0.0,0.0,0.0,0.0,0.0,0.0,0.0,0.0,0.0,0.0,0.0,0.0,0.0,0.0,0.0,0.0,0.0,0.0,0.0,0.0,0.0,0.0,0.0,0.0,0.0,0.0,0.0,0.0,0.0,0.0,0.0,0.0,0.0,0.0,0.0,0.0,0.0,0.0,0.0,0.0,0.0,0.0,0.0,0.0,0.0,0.0,0.0,0.0,0.0,0.0,0.0,0.0,0.0,0.0,0.0,0.0,0.0,0.0,0.0,0.0,0.0,0.0,0.0,0.0,0.0,0.0,0.0,0.0,0.0,0.0,0.0,0.0,0.0,0.0,0.0,0.0,0.0,0.0,0.0,0.0,0.0,0.0,0.0,0.0,0.0,0.0,0.0,0.0,0.0,0.0,0.0,0.0,0.0,0.0,0.0,0.0,0.0,0.0,0.0,0.0,0.0,0.0,0.0,0.0,0.0,0.0,0.0,0.0,0.0,0.0,0.0,0.0,0.0,0.0,0.0,0.0,0.0,0.0,0.0,0.0,0.0,0.0,0.0,0.0,0.0,0.0,0.0,0.0,0.0,0.0,0.0,0.0,0.0,0.0,0.0,0.0,0.0,0.0,0.0,0.0,0.0,0.0,0.0,0.0,0.0,0.0,0.0,0.0,0.0,0.0,0.0,0.0,0.0,0.0,0.0,0.0,0.0,0.0,0.0,0.0,0.0,0.0,0.0,0.0,0.0,0.0,0.0,0.0,0.0,0.0,0.0,0.0,0.0,0.0,0.0,0.0,0.0,0.0,0.0,0.0,0.0,0.0,0.0,0.0,0.0,0.0,0.0,0.0,0.0,0.0,0.0,0.0,0.0,0.0,0.0,0.0,0.0,0.0,0.0,0.0,0.0,0.0,0.0,0.0,0.0,0.0,0.0,0.0,0.0,0.0,0.0,0.0,0.0,0.0,0.0,0.0,0.0,0.0,0.0,0.0,0.0,0.0,0.0,0.0,0.0,0.0,0.0,0.0,0.0,0.0,0.0,0.0,0.0,0.0,0.0,0.0,0.0,0.0,0.0,0.0,0.0,0.0,0.0,0.0,0.0,0.0,0.0,0.0,0.0,0.0,0.0,0.0,0.0,0.0,0.0,0.0,0.0,0.0,0.0,0.0,0.0,0.0,0.0,0.0,0.0,0.0,0.0,0.0,0.0,0.0,0.0,0.0,0.0,0.0,0.0,0.0,0.0,0.0,0.0,0.0,0.0,0.0,0.0,0.0,0.0,0.0,0.0,0.0,0.0,0.0,0.0,0.0,0.0,0.0,0.0,0.0,0.0,0.0,0.0,0.0,0.0,0.0,0.0,0.0,0.0,0.0,0.0,0.0,0.0,0.0,0.0,0.0,0.0,0.0,0.0,0.0,0.0,0.0,0.0,0.0,0.0,0.0,0.0,0.0,0.0,0.0,0.0,0.0,0.0,0.0,0.0,0.0,0.0,0.0,0.0,0.0,0.0,0.0,0.0,0.0,0.0,0.0,0.0,0.0,0.0,0.0,0.0,0.0,0.0,0.0,0.0,0.0,0.0,0.0,0.0,0.0,0.0,0.0,0.0,0.0,0.0,0.0,0.0,0.0,0.0,0.0,0.0,0.0,0.0,0.0,0.0,0.0,0.0,0.0,0.0,0.0,0.0,0.0,0.0,0.0,0.0,0.0,0.0,0.0,0.0,0.0,0.0,0.0,0.0,0.0,0.0,0.0,0.0,0.0,0.0,0.0,0.0,0.0,0.0,0.0,0.0,0.0,0.0,0.0,0.0,0.0,0.0,0.0,0.0,0.0,0.0,0.0,0.0,0.0,0.0,0.0,0.0,0.0,0.0,0.0,0.0,0.0,0.0,0.0,0.0,0.0,0.0,0.0,0.0,0.0,0.0,0.0,0.0,0.0,0.0,0.0,0.0,0.0,0.0,0.0,0.0,0.0,0.0,0.0,0.0,0.0,0.0,0.0,0.0,0.0,0.0,0.0,0.0,0.0,0.0,0.0,0.0,0.0,0.0,0.0,0.0,0.0,0.0,0.0,0.0,0.0,0.0,0.0,0.0,0.0,0.0,0.0,0.0,0.0,0.0,0.0,0.0,0.0,0.0,0.0,0.0,0.0,0.0,0.0,0.0,0.0,0.0,0.0,0.0,0.0,0.0,0.0,0.0,0.0,0.0,0.0,0.0,0.0,0.0,0.0,0.0,0.0,0.0,0.0,0.0,0.0,0.0,0.0,0.0,0.0,0.0,0.0,0.0,0.0,0.0,0.0,0.0,0.0,0.0,0.0,0.0,0.0,0.0,0.0,0.0,0.0,0.0,0.0,0.0,0.0,0.0,0.0,0.0,0.0,0.0,0.0,0.0,0.0,0.0,0.0,0.0,0.0,0.0,0.0,0.0,0.0,0.0,0.0,0.0,0.0,0.0,0.0,0.0,0.0,0.0,0.0,0.0,0.0,0.0,0.0,0.0,0.0,0.0,0.0,0.0,0.0,0.0,0.0,0.0,0.0,0.0,0.0,0.0,0.0,0.0,0.0,0.0,0.0,0.0,0.0,0.0,0.0,0.0,0.0,0.0,0.0,0.0,0.0,0.0,0.0,0.0,0.0,0.0,0.0,0.0,0.0,0.0,0.0,0.0,0.0,0.0,0.0,0.0,0.0,0.0,0.0,0.0,0.0,0.0,0.0,0.0,0.0,0.0,0.0,0.0,0.0,0.0,0.0,0.0,0.0,0.0,0.0,0.0,0.0,0.0,0.0,0.0,0.0,0.0,0.0,0.0,0.0,0.0,0.0,0.0,0.0,0.0,0.0,0.0,0.0,0.0,0.0,0.0,0.0,0.0,0.0,0.0,0.0,0.0,0.0,0.0,0.0,0.0,0.0,0.0,0.0,0.0,0.0,0.0,0.0,0.0,0.0,0.0,0.0,0.0,0.0,0.0,0.0,0.0,0.0,0.0,0.0,0.0,0.0,0.0,0.0,0.0,0.0,0.0,0.0,0.0,0.0,0.0,0.0,0.0,0.0,0.0,0.0,0.0,0.0,0.0,0.0,0.0,0.0,0.0,0.0,0.0,0.0,0.0,0.0,0.0,0.0,0.0,0.0,0.0,0.0,0.0,0.0,0.0,0.0,0.0,0.0,0.0,0.0,0.0,0.0,0.0,0.0,0.0,0.0,0.0,0.0,0.0,0.0,0.0,0.0,0.0,0.0,0.0,0.0,0.0,0.0,0.0,0.0,0.0,0.0,0.0,0.0,0.0,0.0,0.0,0.0,0.0,0.0,0.0,0.0,0.0,0.0,0.0,0.0,0.0,0.0,0.0,0.0,0.0,0.0,0.0,0.0,0.0,0.0,0.0,0.0,0.0,0.0,1.785,0.0,0.0,0.0,0.0,0.0,0.0,0.0,0.0,0.0,0.0,0.0,0.0,0.0,0.0,0.0,0.0,0.0,0.0,0.0,0.0,0.0,0.0,0.0,0.0,0.0,0.0,0.0,0.0,0.0,0.0,0.0,0.0,0.0,0.0,0.0,0.0,0.0,0.0,0.0,0.0,0.0,0.0,0.0,0.0,0.0,0.0,0.0,0.0,0.0,0.0,0.0,0.0,0.0,0.0,0.0,0.0,0.0,0.0,0.0,0.0,0.0,0.0,0.0,0.0,0.0,0.0,0.0,0.0,0.0,0.0,0.0,0.0,0.0,0.0,0.0,0.0,0.0,0.0,0.0,0.0,0.0,0.0,0.0,0.0,0.0,0.0,0.0,0.0,0.0,0.0,0.0,0.0,0.0,0.0,0.0,0.0,0.0,0.0,0.0,0.0,0.0,0.0,0.0,0.0,0.0,0.0,0.0,0.0,0.0,0.0,1.7926,1.7698,1.8183,1.8285,1.7873,0.0,0.0,0.0,0.0,0.0,0.0,0.0,0.0,0.0,0.0,0.0,0.0,0.0,0.0,0.0,0.0,0.0,0.0,0.0,0.0,0.0,0.0,0.0,0.0,0.0,0.0,0.0,0.0,0.0,0.0,0.0,0.0,0.0,0.0,0.0,0.0,0.0,0.0,0.0,0.0,0.0,0.0,0.0,0.0,0.0,0.0,0.0,0.0,0.0,0.0,0.0,0.0,0.0,0.0,0.0,0.0,0.0,0.0,0.0,0.0,0.0,0.0,0.0,0.0,0.0,0.0,0.0,0.0,0.0,0.0,0.0,0.0,0.0,0.0,0.0,0.0,0.0,0.0,0.0,0.0,0.0,0.0,0.0,0.0,0.0,0.0,0.0,0.0,0.0,0.0,0.0,0.0,0.0,0.0,0.0,0.0,0.0,0.0,0.0,0.0,0.0,0.0,0.0,0.0,0.0,0.0,0.0,0.0,0.0,0.0,0.0,0.0,1.9185,1.9243,1.8716,0.0,0.0,0.0,0.0,0.0,0.0,0.0,0.0,0.0,0.0,0.0,0.0,0.0,0.0,0.0,0.0,0.0,0.0,0.0,0.0,0.0,0.0,0.0,0.0,0.0,0.0,0.0,0.0,0.0,0.0,0.0,0.0,0.0,0.0,0.0,0.0,0.0,0.0,0.0,0.0,0.0,0.0,0.0,0.0,0.0,0.0,0.0,0.0,0.0,0.0,0.0,0.0,0.0,0.0,0.0,0.0,0.0,0.0,0.0,0.0,0.0,0.0,0.0,0.0,0.0,0.0,0.0,0.0,0.0,0.0,0.0,0.0,0.0,0.0,0.0,0.0,0.0,0.0,0.0,0.0,0.0,0.0,0.0,0.0,0.0,0.0,0.0,0.0,0.0,0.0,0.0,0.0,0.0,0.0,0.0,0.0,0.0,0.0,0.0,0.0,0.0,0.0,0.0,0.0,0.0,0.0,0.0,0.0,0.0,0.0,1.8518,2.0562,2.0863,0.0,2.0916,0.0,0.0,0.0,0.0,0.0,0.0,0.0,0.0,0.0,0.0,0.0,0.0,0.0,0.0,0.0,0.0,0.0,0.0,0.0,0.0,0.0,0.0,0.0,0.0,0.0,0.0,0.0,0.0,0.0,0.0,0.0,0.0,0.0,0.0,0.0,0.0,0.0,0.0,0.0,0.0,0.0,0.0,0.0,0.0,0.0,0.0,0.0,0.0,0.0,0.0,0.0,0.0,0.0,0.0,0.0,0.0,0.0,0.0,0.0,0.0,0.0,0.0,0.0,0.0,0.0,0.0,0.0,0.0,0.0,0.0,0.0,0.0,0.0,0.0,0.0,0.0,0.0,0.0,0.0,0.0,0.0,0.0,0.0,0.0,0.0,0.0,0.0,0.0,0.0,0.0,0.0,0.0,0.0,0.0,0.0,0.0,0.0,0.0,0.0,0.0,0.0,0.0,0.0,0.0,0.0,0.0,0.0,0.0,0.0,0.0,1.9234,2.0329,2.0458,2.0483,0.0,0.0,0.0,0.0,0.0,0.0,0.0,0.0,0.0,0.0,0.0,0.0,0.0,0.0,0.0,0.0,0.0,0.0,0.0,0.0,0.0,0.0,0.0,0.0,0.0,0.0,0.0,0.0,0.0,0.0,0.0,0.0,0.0,0.0,0.0,0.0,0.0,0.0,0.0,0.0,0.0,0.0,0.0,0.0,0.0,0.0,0.0,0.0,0.0,0.0,0.0,0.0,0.0,0.0,0.0,0.0,0.0,0.0,0.0,0.0,0.0,0.0,0.0,0.0,0.0,0.0,0.0,0.0,0.0,0.0,0.0,0.0,0.0,0.0,0.0,0.0,0.0,0.0,0.0,0.0,0.0,0.0,0.0,0.0,0.0,0.0,0.0,0.0,0.0,0.0,0.0,0.0,0.0,0.0,0.0,0.0,0.0,0.0,0.0,0.0,0.0,0.0,0.0,0.0,0.0,0.0,0.0,0.0,0.0,0.0,1.9293,0.0,2.0576,2.0627,2.0424,2.0002,0.0,0.0,0.0,0.0,0.0,0.0,0.0,0.0,0.0,0.0,0.0,0.0,0.0,0.0,0.0,0.0,0.0,0.0,0.0,0.0,0.0,0.0,0.0,0.0,0.0,0.0,0.0,0.0,0.0,0.0,0.0,0.0,0.0,0.0,0.0,0.0,0.0,0.0,0.0,0.0,0.0,0.0,0.0,0.0,0.0,0.0,0.0,0.0,0.0,0.0,0.0,0.0,0.0,0.0,0.0,0.0,0.0,0.0,0.0,0.0,0.0,0.0,0.0,0.0,0.0,0.0,0.0,0.0,0.0,0.0,0.0,0.0,0.0,0.0,0.0,0.0,0.0,0.0,0.0,0.0,0.0,0.0,0.0,0.0,0.0,0.0,0.0,0.0,0.0,0.0,0.0,0.0,0.0,0.0,0.0,0.0,0.0,0.0,0.0,0.0,0.0,0.0,0.0,0.0,0.0,0.0,0.0,0.0,0.0,2.0374,1.9993,2.2124,2.2181,2.1488,0.0,0.0,0.0,0.0,0.0,0.0,0.0,0.0,0.0,0.0,0.0,0.0,0.0,0.0,0.0,0.0,0.0,0.0,0.0,0.0,0.0,0.0,0.0,0.0,0.0,0.0,0.0,0.0,0.0,0.0,0.0,0.0,0.0,0.0,0.0,0.0,0.0,0.0,0.0,0.0,0.0,0.0,0.0,0.0,0.0,0.0,0.0,0.0,0.0,0.0,0.0,0.0,0.0,0.0,0.0,0.0,0.0,0.0,0.0,0.0,0.0,0.0,0.0,0.0,0.0,0.0,0.0,0.0,0.0,0.0,0.0,0.0,0.0,0.0,0.0,0.0,0.0,0.0,0.0,0.0,0.0,0.0,0.0,0.0,0.0,0.0,0.0,0.0,0.0,0.0,0.0,0.0,0.0,0.0,0.0,0.0,0.0,0.0,0.0,0.0,0.0,0.0,0.0,0.0,0.0,0.0,0.0,0.0,0.0,1.9755,1.9655,2.0923,2.3477,2.1397,2.0078,0.0,0.0,0.0,0.0,0.0,0.0,0.0,0.0,0.0,0.0,0.0,0.0,0.0,0.0,0.0,0.0,0.0,0.0,0.0,0.0,0.0,0.0,0.0,0.0,0.0,0.0,0.0,0.0,0.0,0.0,0.0,0.0,0.0,0.0,0.0,0.0,0.0,0.0,0.0,0.0,0.0,0.0,0.0,0.0,0.0,0.0,0.0,0.0,0.0,0.0,0.0,0.0,0.0,0.0,0.0,0.0,0.0,0.0,0.0,0.0,0.0,0.0,0.0,0.0,0.0,0.0,0.0,0.0,0.0,0.0,0.0,0.0,0.0,0.0,0.0,0.0,0.0,0.0,0.0,0.0,0.0,0.0,0.0,0.0,0.0,0.0,0.0,0.0,0.0,0.0,0.0,0.0,0.0,0.0,0.0,0.0,0.0,0.0,0.0,0.0,0.0,0.0,0.0,0.0,0.0,0.0,0.0,0.0,0.0,1.8934,0.0,2.218,0.0,2.1027,1.9341,0.0,0.0,0.0,0.0,0.0,0.0,0.0,0.0,0.0,0.0,0.0,0.0,0.0,0.0,0.0,0.0,0.0,0.0,0.0,0.0,0.0,0.0,0.0,0.0,0.0,0.0,0.0,0.0,0.0,0.0,0.0,0.0,0.0,0.0,0.0,0.0,0.0,0.0,0.0,0.0,0.0,0.0,0.0,0.0,0.0,0.0,0.0,0.0,0.0,0.0,0.0,0.0,0.0,0.0,0.0,0.0,0.0,0.0,0.0,0.0,0.0,0.0,0.0,0.0,0.0,0.0,0.0,0.0,0.0,0.0,0.0,0.0,0.0,0.0,0.0,0.0,0.0,0.0,0.0,0.0,0.0,0.0,0.0,0.0,0.0,0.0,0.0,0.0,0.0,0.0,0.0,0.0,0.0,0.0,0.0,0.0,0.0,0.0,0.0,0.0,0.0,0.0,0.0,0.0,0.0,0.0,0.0,0.0,1.8951,2.1224,2.3443,2.3562,2.1462,2.1275,1.9498,0.0,0.0,0.0,0.0,0.0,0.0,0.0,0.0,0.0,0.0,0.0,0.0,0.0,0.0,0.0,0.0,0.0,0.0,0.0,0.0,0.0,0.0,0.0,0.0,0.0,0.0,0.0,0.0,0.0,0.0,0.0,0.0,0.0,0.0,0.0,0.0,0.0,0.0,0.0,0.0,0.0,0.0,0.0,0.0,0.0,0.0,0.0,0.0,0.0,0.0,0.0,0.0,0.0,0.0,0.0,0.0,0.0,0.0,0.0,0.0,0.0,0.0,0.0,0.0,0.0,0.0,0.0,0.0,0.0,0.0,0.0,0.0,0.0,0.0,0.0,0.0,0.0,0.0,0.0,0.0,0.0,0.0,0.0,0.0,0.0,0.0,0.0,0.0,0.0,0.0,0.0,0.0,0.0,0.0,0.0,0.0,0.0,0.0,0.0,0.0,0.0,0.0,0.0,0.0,0.0,0.0,0.0,0.0,0.0,2.0585,2.2293,2.338,2.3619,2.1174,1.9692,0.0,0.0,0.0,0.0,0.0,0.0,0.0,0.0,0.0,0.0,0.0,0.0,0.0,0.0,0.0,0.0,0.0,0.0,0.0,0.0,0.0,0.0,0.0,0.0,0.0,0.0,0.0,0.0,0.0,0.0,0.0,0.0,0.0,0.0,0.0,0.0,0.0,0.0,0.0,0.0,0.0,0.0,0.0,0.0,0.0,0.0,0.0,0.0,0.0,0.0,0.0,0.0,0.0,0.0,0.0,0.0,0.0,0.0,0.0,0.0,0.0,0.0,0.0,0.0,0.0,0.0,0.0,0.0,0.0,0.0,0.0,0.0,0.0,0.0,0.0,0.0,0.0,0.0,0.0,0.0,0.0,0.0,0.0,0.0,0.0,0.0,0.0,0.0,0.0,0.0,0.0,0.0,0.0,0.0,0.0,0.0,0.0,0.0,0.0,0.0,0.0,0.0,0.0,0.0,0.0,0.0,0.0,0.0,0.0,2.2038,2.3744,2.4871,2.5219,2.2627,2.0969,2.0457,0.0,0.0,0.0,0.0,0.0,0.0,0.0,0.0,0.0,0.0,0.0,0.0,0.0,0.0,0.0,0.0,0.0,0.0,0.0,0.0,0.0,0.0,0.0,0.0,0.0,0.0,0.0,0.0,0.0,0.0,0.0,0.0,0.0,0.0,0.0,0.0,0.0,0.0,0.0,0.0,0.0,0.0,0.0,0.0,0.0,0.0,0.0,0.0,0.0,0.0,0.0,0.0,0.0,0.0,0.0,0.0,0.0,0.0,0.0,0.0,0.0,0.0,0.0,0.0,0.0,0.0,0.0,0.0,0.0,0.0,0.0,0.0,0.0,0.0,0.0,0.0,0.0,0.0,0.0,0.0,0.0,0.0,0.0,0.0,0.0,0.0,0.0,0.0,0.0,0.0,0.0,0.0,0.0,0.0,0.0,0.0,0.0,0.0,0.0,0.0,0.0,0.0,0.0,0.0,0.0,0.0,0.0,0.0,2.5033,2.7302,2.7749,2.6272,2.5283,2.3072,0.0,0.0,0.0,0.0,0.0,0.0,0.0,0.0,0.0,0.0,0.0,0.0,0.0,0.0,0.0,0.0,0.0,0.0,0.0,0.0,0.0,0.0,0.0,0.0,0.0,0.0,0.0,0.0,0.0,0.0,0.0,0.0,0.0,0.0,0.0,0.0,0.0,0.0,0.0,0.0,0.0,0.0,0.0,0.0,0.0,0.0,0.0,0.0,0.0,0.0,0.0,0.0,0.0,0.0,0.0,0.0,0.0,0.0,0.0,0.0,0.0,0.0,0.0,0.0,0.0,0.0,0.0,0.0,0.0,0.0,0.0,0.0,0.0,0.0,0.0,0.0,0.0,0.0,0.0,0.0,0.0,0.0,0.0,0.0,0.0,0.0,0.0,0.0,0.0,0.0,0.0,0.0,0.0,0.0,0.0,0.0,0.0,0.0,0.0,0.0,0.0,0.0,0.0,0.0,0.0,0.0,0.0,0.0,0.0,2.6695,2.892,2.9627,2.8559,2.6124,2.4093,0.0,0.0,0.0,0.0,0.0,0.0,0.0,0.0,0.0,0.0,0.0,0.0,0.0,0.0,0.0,0.0,0.0,0.0,0.0,0.0,0.0,0.0,0.0,0.0,0.0,0.0,0.0,0.0,0.0,0.0,0.0,0.0,0.0,0.0,0.0,0.0,0.0,0.0,0.0,0.0,0.0,0.0,0.0,0.0,0.0,0.0,0.0,0.0,0.0,0.0,0.0,0.0,0.0,0.0,0.0,0.0,0.0,0.0,0.0,0.0,0.0,0.0,0.0,0.0,0.0,0.0,0.0,0.0,0.0,0.0,0.0,0.0,0.0,0.0,0.0,0.0,0.0,0.0,0.0,0.0,0.0,0.0,0.0,0.0,0.0,0.0,0.0,0.0,0.0,0.0,0.0,0.0,0.0,0.0,0.0,0.0,0.0,0.0,0.0,0.0,0.0,0.0,0.0,0.0,0.0,0.0,0.0,0.0,2.6195,2.7747,2.9989,3.08,3.0024,2.7891,2.5767,0.0,0.0,0.0,0.0,0.0,0.0,0.0,0.0,0.0,0.0,0.0,0.0,0.0,0.0,0.0,0.0,0.0,0.0,0.0,0.0,0.0,0.0,0.0,0.0,0.0,0.0,0.0,0.0,0.0,0.0,0.0,0.0,0.0,0.0,0.0,0.0,0.0,0.0,0.0,0.0,0.0,0.0,0.0,0.0,0.0,0.0,0.0,0.0,0.0,0.0,0.0,0.0,0.0,0.0,0.0,0.0,0.0,0.0,0.0,0.0,0.0,0.0,0.0,0.0,0.0,0.0,0.0,0.0,0.0,0.0,0.0,0.0,0.0,0.0,0.0,0.0,0.0,0.0,0.0,0.0,0.0,0.0,0.0,0.0,0.0,0.0,0.0,0.0,0.0,0.0,0.0,0.0,0.0,0.0,0.0,0.0,0.0,0.0,0.0,0.0,0.0,0.0,0.0,0.0,0.0,0.0,0.0,0.0,2.6937,2.8451,3.0627,3.1472,3.08,2.9816,2.7599,0.0,0.0,0.0,0.0,0.0,0.0,0.0,0.0,0.0,0.0,0.0,0.0,0.0,0.0,0.0,0.0,0.0,0.0,0.0,0.0,0.0,0.0,0.0,0.0,0.0,0.0,0.0,0.0,0.0,0.0,0.0,0.0,0.0,0.0,0.0,0.0,0.0,0.0,0.0,0.0,0.0,0.0,0.0,0.0,0.0,0.0,0.0,0.0,0.0,0.0,0.0,0.0,0.0,0.0,0.0,0.0,0.0,0.0,0.0,0.0,0.0,0.0,0.0,0.0,0.0,0.0,0.0,0.0,0.0,0.0,0.0,0.0,0.0,0.0,0.0,0.0,0.0,0.0,0.0,0.0,0.0,0.0,0.0,0.0,0.0,0.0,0.0,0.0,0.0,0.0,0.0,0.0,0.0,0.0,0.0,0.0,0.0,0.0,0.0,0.0,0.0,0.0,0.0,0.0,0.0,0.0,0.0,0.0,2.758,2.8718,3.0733,3.1714,3.1558,2.9592,2.7291,0.0,0.0,0.0,0.0,0.0,0.0,0.0,0.0,0.0,0.0,0.0,0.0,0.0,0.0,0.0,0.0,0.0,0.0,0.0,0.0,0.0,0.0,0.0,0.0,0.0,0.0,0.0,0.0,0.0,0.0,0.0,0.0,0.0,0.0,0.0,0.0,0.0,0.0,0.0,0.0,0.0,0.0,0.0,0.0,0.0,0.0,0.0,0.0,2.3943,0.0,0.0,0.0,0.0,0.0,0.0,0.0,0.0,0.0,0.0,0.0,0.0,0.0,0.0,0.0,0.0,0.0,0.0,0.0,0.0,0.0,0.0,0.0,0.0,0.0,0.0,0.0,0.0,0.0,0.0,0.0,0.0,0.0,0.0,0.0,0.0,0.0,0.0,0.0,0.0,0.0,0.0,0.0,0.0,0.0,0.0,0.0,0.0,0.0,0.0,0.0,0.0,0.0,0.0,0.0,0.0,0.0,0.0,0.0,2.8305,2.9372,3.1115,3.1863,3.1498,2.9951,2.7962,0.0,0.0,0.0,0.0,0.0,0.0,0.0,0.0,0.0,0.0,0.0,0.0,0.0,0.0,0.0,0.0,0.0,0.0,0.0,0.0,0.0,0.0,0.0,0.0,0.0,0.0,0.0,0.0,0.0,0.0,0.0,0.0,0.0,0.0,0.0,0.0,0.0,0.0,0.0,0.0,0.0,0.0,0.0,0.0,0.0,0.0,0.0,0.0,0.0,0.0,0.0,0.0,0.0,0.0,0.0,0.0,0.0,0.0,0.0,0.0,0.0,0.0,0.0,0.0,0.0,0.0,0.0,0.0,0.0,0.0,0.0,0.0,0.0,0.0,0.0,0.0,0.0,0.0,0.0,0.0,0.0,0.0,0.0,0.0,0.0,0.0,0.0,0.0,0.0,0.0,0.0,0.0,0.0,0.0,0.0,0.0,0.0,0.0,0.0,0.0,0.0,0.0,0.0,0.0,0.0,0.0,0.0,2.6117,2.847,2.9888,3.1278,3.1718,3.1067,3.0279,2.8596,2.6095,0.0,0.0,0.0,0.0,0.0,0.0,0.0,0.0,0.0,0.0,0.0,0.0,0.0,0.0,0.0,0.0,0.0,0.0,0.0,0.0,0.0,0.0,0.0,0.0,0.0,0.0,0.0,0.0,0.0,0.0,0.0,0.0,0.0,0.0,0.0,0.0,0.0,0.0,2.2202,2.3448,0.0,0.0,0.0,0.0,0.0,0.0,0.0,0.0,2.5196,0.0,0.0,0.0,0.0,0.0,0.0,0.0,0.0,0.0,0.0,0.0,0.0,0.0,0.0,0.0,0.0,0.0,0.0,0.0,0.0,0.0,0.0,0.0,0.0,0.0,0.0,0.0,0.0,0.0,0.0,0.0,0.0,0.0,0.0,0.0,0.0,0.0,0.0,0.0,0.0,0.0,0.0,0.0,0.0,0.0,0.0,0.0,0.0,0.0,0.0,0.0,0.0,0.0,0.0,0.0,0.0,2.3954,2.4655,2.6408,2.9325,3.0249,3.0658,3.0503,2.9545,2.7899,2.5575,0.0,0.0,0.0,0.0,0.0,0.0,0.0,0.0,0.0,0.0,0.0,0.0,0.0,0.0,0.0,0.0,0.0,0.0,0.0,0.0,0.0,0.0,0.0,0.0,0.0,0.0,0.0,0.0,0.0,0.0,0.0,0.0,0.0,0.0,0.0,0.0,0.0,0.0,0.0,2.5998,2.6391,0.0,0.0,0.0,0.0,0.0,0.0,0.0,0.0,2.5524,0.0,0.0,0.0,0.0,0.0,0.0,0.0,0.0,0.0,0.0,0.0,0.0,0.0,0.0,0.0,0.0,0.0,0.0,0.0,0.0,0.0,0.0,0.0,0.0,0.0,0.0,0.0,0.0,0.0,0.0,0.0,0.0,0.0,0.0,0.0,0.0,0.0,0.0,0.0,0.0,0.0,0.0,0.0,0.0,0.0,0.0,0.0,0.0,0.0,0.0,0.0,0.0,0.0,0.0,0.0,2.3028,2.5455,2.7589,2.9503,3.0284,3.0481,3.0068,2.8764,2.6872,0.0,0.0,0.0,0.0,0.0,0.0,0.0,0.0,0.0,0.0,0.0,0.0,0.0,0.0,0.0,0.0,0.0,0.0,0.0,0.0,0.0,0.0,0.0,0.0,0.0,0.0,0.0,0.0,0.0,0.0,0.0,0.0,0.0,0.0,0.0,0.0,0.0,0.0,0.0,0.0,2.6944,2.7406,2.7918,0.0,0.0,0.0,0.0,0.0,0.0,2.6658,2.5957,0.0,0.0,0.0,0.0,0.0,0.0,0.0,0.0,0.0,0.0,0.0,0.0,0.0,0.0,0.0,0.0,0.0,0.0,0.0,0.0,0.0,0.0,0.0,0.0,0.0,0.0,0.0,0.0,0.0,0.0,0.0,0.0,0.0,0.0,0.0,0.0,0.0,0.0,0.0,0.0,0.0,0.0,0.0,0.0,0.0,0.0,0.0,0.0,0.0,0.0,0.0,0.0,0.0,0.0,0.0,2.2089,2.6021,2.8556,2.9518,3.0178,3.0223,2.9631,2.8329,2.6255,0.0,0.0,0.0,0.0,0.0,0.0,0.0,0.0,0.0,0.0,0.0,0.0,0.0,0.0,0.0,0.0,0.0,0.0,0.0,0.0,0.0,0.0,0.0,0.0,0.0,0.0,0.0,0.0,0.0,0.0,0.0,0.0,0.0,0.0,0.0,0.0,0.0,0.0,0.0,0.0,0.0,2.8592,2.8675,2.904,0.0,0.0,0.0,0.0,2.9408,2.8261,0.0,0.0,0.0,0.0,0.0,0.0,0.0,0.0,0.0,0.0,0.0,0.0,0.0,0.0,0.0,0.0,0.0,0.0,0.0,0.0,0.0,0.0,0.0,0.0,0.0,0.0,0.0,0.0,0.0,0.0,0.0,0.0,0.0,0.0,0.0,0.0,0.0,0.0,0.0,0.0,0.0,0.0,0.0,0.0,0.0,0.0,0.0,0.0,0.0,0.0,0.0,0.0,0.0,0.0,0.0,0.0,2.1953,2.4383,2.6631,2.8619,2.9053,2.9185,2.9075,2.8664,2.6911,0.0,0.0,0.0,0.0,0.0,0.0,0.0,0.0,0.0,0.0,0.0,0.0,0.0,0.0,0.0,0.0,0.0,0.0,0.0,0.0,0.0,0.0,0.0,0.0,0.0,0.0,0.0,0.0,0.0,0.0,0.0,0.0,0.0,0.0,0.0,0.0,0.0,0.0,0.0,0.0,0.0,3.1023,3.0395,3.0331,3.0237,0.0,0.0,3.135,3.1844,3.2234,0.0,0.0,0.0,0.0,0.0,0.0,0.0,0.0,0.0,0.0,0.0,0.0,0.0,0.0,0.0,0.0,0.0,0.0,0.0,0.0,0.0,0.0,0.0,0.0,0.0,0.0,0.0,0.0,0.0,0.0,0.0,0.0,0.0,0.0,0.0,0.0,0.0,0.0,0.0,0.0,0.0,0.0,0.0,0.0,0.0,0.0,0.0,0.0,0.0,0.0,0.0,0.0,0.0,0.0,0.0,2.0362,2.2268,2.5466,2.7682,2.8779,2.8929,2.8975,2.8975,2.7565,2.5372,0.0,0.0,0.0,0.0,0.0,0.0,0.0,0.0,0.0,0.0,0.0,0.0,0.0,0.0,0.0,0.0,0.0,0.0,0.0,0.0,0.0,0.0,0.0,0.0,0.0,0.0,0.0,0.0,0.0,0.0,0.0,0.0,0.0,0.0,0.0,0.0,0.0,0.0,0.0,0.0,0.0,0.0,3.2108,3.3109,0.0,0.0,0.0,3.3118,3.3291,0.0,0.0,0.0,0.0,0.0,0.0,0.0,0.0,0.0,0.0,0.0,0.0,0.0,0.0,0.0,0.0,0.0,0.0,0.0,0.0,0.0,0.0,0.0,0.0,0.0,0.0,0.0,0.0,0.0,0.0,0.0,0.0,0.0,0.0,0.0,0.0,0.0,0.0,0.0,0.0,0.0,0.0,0.0,0.0,0.0,0.0,0.0,0.0,0.0,0.0,0.0,0.0,0.0,0.0,0.0,0.0,0.0,2.2761,2.6662,2.8791,2.8994,2.8975,2.8975,2.8957,2.7053,0.0,0.0,0.0,0.0,0.0,0.0,0.0,0.0,0.0,0.0,0.0,0.0,0.0,0.0,0.0,0.0,0.0,0.0,0.0,0.0,0.0,0.0,0.0,0.0,0.0,0.0,0.0,1.471,0.0,0.0,0.0,0.0,0.0,0.0,0.0,0.0,0.0,0.0,0.0,0.0,0.0,0.0,3.2835,3.381,3.5606,3.6435,0.0,0.0,3.4849,3.5195,3.4611,3.325,0.0,0.0,0.0,0.0,0.0,0.0,0.0,0.0,0.0,0.0,0.0,0.0,0.0,0.0,0.0,0.0,0.0,0.0,0.0,0.0,0.0,0.0,0.0,0.0,0.0,0.0,0.0,0.0,0.0,0.0,0.0,0.0,0.0,0.0,0.0,0.0,0.0,0.0,0.0,0.0,0.0,0.0,0.0,0.0,0.0,0.0,0.0,0.0,0.0,0.0,0.0,0.0,0.0,0.0,0.0,2.3584,2.7109,2.8994,2.8975,2.8975,2.8975,2.8975,2.8099,2.638,0.0,0.0,0.0,0.0,0.0,0.0,0.0,0.0,0.0,0.0,0.0,0.0,0.0,0.0,0.0,0.0,0.0,0.0,0.0,0.0,0.0,0.0,0.0,0.0,0.0,0.0,0.0,0.0,0.0,0.0,0.0,0.0,0.0,0.0,0.0,0.0,0.0,0.0,0.0,0.0,0.0,3.4456,3.5581,3.7076,3.8431,0.0,0.0,3.718,3.8248,3.831,3.6953,3.302,0.0,0.0,0.0,0.0,0.0,0.0,0.0,0.0,0.0,0.0,0.0,0.0,0.0,0.0,0.0,0.0,0.0,0.0,0.0,0.0,0.0,0.0,0.0,0.0,0.0,0.0,0.0,0.0,0.0,0.0,0.0,0.0,0.0,0.0,0.0,0.0,0.0,0.0,0.0,0.0,0.0,0.0,0.0,0.0,0.0,0.0,0.0,0.0,0.0,0.0,0.0,0.0,0.0,2.2062,2.3602,2.7169,2.8975,2.8975,2.8975,2.8975,2.8975,2.8227,2.6585,0.0,0.0,0.0,0.0,0.0,0.0,0.0,0.0,0.0,0.0,0.0,0.0,0.0,0.0,0.0,0.0,0.0,0.0,0.0,0.0,0.0,0.0,0.0,0.0,0.0,0.0,0.0,0.0,1.9085,1.9722,2.0117,0.0,0.0,0.0,0.0,0.0,0.0,0.0,0.0,0.0,0.0,3.6504,3.7856,3.9347,0.0,0.0,3.979,3.9197,3.9378,3.8615,3.689,3.3844,3.2247,0.0,0.0,0.0,0.0,0.0,0.0,0.0,0.0,0.0,0.0,0.0,0.0,0.0,0.0,0.0,0.0,0.0,0.0,0.0,0.0,0.0,0.0,0.0,0.0,0.0,0.0,0.0,0.0,0.0,0.0,0.0,0.0,0.0,0.0,0.0,0.0,0.0,0.0,0.0,0.0,0.0,0.0,0.0,0.0,0.0,0.0,0.0,0.0,0.0,0.0,0.0,0.0,2.2229,2.405,2.7319,2.8975,2.8975,2.8975,2.8975,2.8957,2.8227,2.6845,0.0,0.0,0.0,0.0,0.0,0.0,0.0,0.0,0.0,0.0,0.0,0.0,0.0,0.0,0.0,0.0,0.0,0.0,0.0,0.0,0.0,0.0,0.0,0.0,0.0,0.0,0.0,0.0,2.05,2.0721,2.0473,0.0,0.0,0.0,0.0,0.0,0.0,0.0,0.0,0.0,0.0,3.8394,4.0029,4.0994,4.1592,4.1794,4.0766,4.006,4.0235,3.9111,3.7367,3.4945,0.0,0.0,0.0,0.0,0.0,0.0,0.0,0.0,0.0,0.0,0.0,0.0,0.0,0.0,0.0,0.0,0.0,0.0,0.0,0.0,0.0,0.0,0.0,0.0,0.0,0.0,0.0,0.0,0.0,0.0,1.3588,0.0,0.0,0.0,0.0,0.0,0.0,0.0,0.0,0.0,0.0,0.0,0.0,0.0,0.0,0.0,0.0,0.0,0.0,0.0,0.0,0.0,0.0,2.256,2.5038,2.7661,2.8975,2.8975,2.8975,2.8975,2.8957,2.8227,2.7402,2.6502,0.0,0.0,0.0,0.0,0.0,0.0,0.0,0.0,0.0,0.0,0.0,0.0,0.0,0.0,0.0,0.0,0.0,0.0,0.0,0.0,0.0,0.0,0.0,0.0,0.0,0.0,2.1367,2.1718,2.1374,0.0,0.0,0.0,0.0,0.0,0.0,0.0,0.0,0.0,0.0,3.7885,4.0063,4.1959,4.1592,4.1721,4.3167,4.0836,3.9337,4.0855,4.0359,3.9019,0.0,0.0,0.0,0.0,0.0,0.0,0.0,0.0,0.0,0.0,0.0,0.0,0.0,0.0,0.0,0.0,0.0,0.0,0.0,0.0,0.0,0.0,0.0,0.0,0.0,0.0,0.0,1.7745,1.7038,0.0,0.0,0.0,0.0,0.0,0.0,0.0,0.0,0.0,0.0,0.0,2.1566,2.2306,0.0,0.0,0.0,0.0,0.0,0.0,0.0,0.0,0.0,0.0,0.0,0.0,2.3168,2.5114,2.7679,2.8975,2.8975,2.8975,2.8975,2.8975,2.8737,2.7732,2.586,0.0,0.0,0.0,0.0,0.0,0.0,0.0,0.0,0.0,0.0,0.0,0.0,0.0,0.0,0.0,0.0,0.0,0.0,0.0,0.0,0.0,0.0,0.0,0.0,0.0,2.1351,0.0,0.0,0.0,0.0,0.0,0.0,0.0,0.0,0.0,0.0,0.0,3.5403,3.8211,4.0156,4.1763,4.2947,4.2873,4.2892,0.0,0.0,0.0,0.0,0.0,0.0,0.0,0.0,0.0,0.0,0.0,0.0,0.0,0.0,4.1178,3.5566,3.4099,3.3838,3.4101,0.0,0.0,0.0,0.0,0.0,0.0,0.0,0.0,0.0,0.0,0.0,0.0,0.0,0.0,2.005,0.0,1.881,0.0,0.0,0.0,0.0,0.0,0.0,0.0,0.0,2.305,2.411,2.4101,2.5185,2.5487,0.0,2.4312,2.2494,0.0,0.0,0.0,0.0,0.0,0.0,0.0,0.0,2.4103,2.6042,2.7976,2.8975,2.8975,2.8975,2.8975,2.8975,2.8975,2.8136,2.6303,2.512,2.3783,0.0,0.0,0.0,0.0,0.0,0.0,0.0,0.0,0.0,0.0,0.0,0.0,0.0,0.0,0.0,0.0,0.0,0.0,0.0,0.0,0.0,0.0,0.0,2.2553,0.0,0.0,0.0,0.0,0.0,0.0,0.0,0.0,0.0,3.2529,3.5457,3.8432,4.0868,4.2099,4.307,4.3944,0.0,0.0,0.0,0.0,0.0,0.0,0.0,4.2001,4.2261,4.189,4.1765,4.2492,4.4213,4.5342,4.4719,0.0,0.0,4.0132,3.8674,3.8374,3.8658,3.9813,4.0669,4.0466,4.2031,4.3295,0.0,0.0,0.0,0.0,0.0,0.0,0.0,0.0,2.2875,2.247,0.0,2.166,0.0,0.0,0.0,0.0,0.0,2.1703,0.0,0.0,2.7028,2.8099,2.6869,2.8415,2.839,2.6827,2.7397,2.6764,2.4795,2.1916,0.0,0.0,0.0,0.0,0.0,0.0,2.5296,2.7695,2.8553,2.8975,2.8975,2.8975,2.8975,2.8975,2.8975,2.8631,2.7879,2.7732,2.6337,2.3327,2.2812,0.0,0.0,0.0,0.0,0.0,0.0,0.0,0.0,0.0,0.0,0.0,0.0,0.0,0.0,0.0,0.0,0.0,0.0,0.0,0.0,2.2692,0.0,0.0,0.0,0.0,0.0,0.0,0.0,0.0,0.0,0.0,3.5744,3.8155,4.0905,4.3302,0.0,0.0,0.0,0.0,4.3562,4.5444,4.4382,4.3912,4.5453,4.566,4.5406,4.4729,0.0,0.0,4.4944,4.6233,4.6992,4.5428,4.6729,4.7789,4.7403,4.5817,4.5103,4.5807,4.5433,4.5478,4.6202,4.6925,4.7854,2.6602,0.0,0.0,0.0,0.0,2.5419,2.6385,2.7489,2.6437,2.554,2.4764,2.3643,0.0,0.0,0.0,0.0,0.0,0.0,2.527,2.6918,2.8045,2.8583,2.8689,2.9186,2.939,2.9396,2.9609,2.9627,2.9418,2.8041,2.5218,2.1243,0.0,0.0,0.0,0.0,2.6497,2.7769,2.8594,2.8975,2.8975,2.8975,2.8975,2.8975,2.8975,2.8883,2.8668,2.8099,2.7383,2.6429,2.4169,0.0,0.0,0.0,0.0,0.0,0.0,0.0,0.0,0.0,0.0,0.0,0.0,0.0,0.0,0.0,0.0,0.0,0.0,0.0,2.3008,2.3745,2.4721,0.0,0.0,0.0,0.0,0.0,0.0,0.0,0.0,0.0,4.0998,4.1973,4.3208,0.0,0.0,4.5602,4.5231,4.548,4.5884,4.6477,0.0,0.0,0.0,4.6074,4.6027,4.692,4.8117,4.8804,4.8378,4.8929,4.931,4.88,4.9251,4.9641,4.9457,4.82,4.7248,4.7444,4.7752,4.8101,4.8409,4.9218,4.9873,3.0582,2.8092,2.7632,2.7454,2.7506,2.7971,2.876,2.9622,2.8624,2.7967,2.7573,2.655,2.5402,2.4281,2.3988,0.0,0.0,0.0,2.731,2.9032,2.949,2.9764,2.9939,3.0441,3.0718,3.0686,3.0697,3.0921,3.1403,3.0808,2.8657,2.5074,0.0,0.0,2.4961,2.6355,2.7475,2.8246,2.876,2.8975,2.8975,2.8975,2.8975,2.8975,2.8975,2.8975,2.8975,2.8558,2.8136,2.7787,2.5952,2.4261,0.0,0.0,0.0,0.0,0.0,0.0,0.0,0.0,0.0,0.0,0.0,1.8445,1.6316,0.0,0.0,0.0,2.1771,2.4315,2.642,2.7296,0.0,0.0,0.0,0.0,0.0,0.0,0.0,3.9425,4.1912,4.4004,4.5423,4.5613,4.5884,4.6424,4.6618,4.6675,4.6566,0.0,4.7267,4.7697,4.778,4.7894,4.8196,4.7863,4.7856,4.8794,4.9516,4.9981,5.0006,5.0169,5.0302,5.0325,5.039,5.0412,5.0457,4.9616,4.8985,4.9025,4.9431,4.9796,4.9855,5.0278,5.0663,3.422,3.293,3.0849,2.9868,2.9695,2.9747,2.9915,3.0191,2.9847,2.9845,3.012,2.9725,2.9177,2.847,2.7814,0.0,2.8608,2.8608,2.9204,3.0261,3.1298,3.1398,3.0773,3.2001,3.2119,3.1175,3.1157,3.131,3.1579,3.1354,3.0935,3.0356,2.8906,2.8099,2.8007,2.8062,2.8466,2.9159,2.9195,2.9177,2.9195,2.9122,2.9108,2.9085,2.9012,2.8975,2.8975,2.8975,2.8668,2.7952,2.7787,2.6355,2.3456,0.0,0.0,0.0,0.0,0.0,0.0,0.0,0.0,0.0,0.0,0.0,0.0,0.0,0.0,0.0,2.5948,0.0,3.0642,3.2244,0.0,0.0,0.0,3.5716,3.7451,3.9886,4.2052,4.3691,0.0,0.0,4.8869,4.8783,4.8605,4.8485,4.7702,4.7504,4.8488,4.8048,4.8022,4.9033,4.9175,4.9442,4.9949,5.0068,5.0068,5.0164,5.0344,5.0302,5.0302,5.0302,5.0367,5.0412,5.0412,5.0457,5.0582,5.0507,5.0603,5.0507,5.0586,5.0664,5.0625,5.0664,5.0683,3.5448,3.4984,3.4169,3.2814,3.1235,3.1771,3.2051,3.208,3.1462,3.1213,3.124,3.0556,3.0035,2.9592,2.9192,2.9554,3.0501,3.0534,3.1102,3.2115,3.2424,3.242,3.2259,3.2594,3.2727,3.2759,3.2759,3.293,3.322,3.3166,3.2763,3.2045,3.1659,3.0852,2.9696,3.0228,3.0632,3.0834,3.0834,3.0834,3.0815,3.0246,2.9916,2.9916,2.9305,2.8975,2.8975,2.8975,2.8902,2.8705,2.7548,2.6539,2.5768,2.241,0.0,0.0,0.0,0.0,0.0,0.0,0.0,0.0,0.0,2.482,2.0751,0.0,2.7233,0.0,3.0234,3.2405,3.2976,3.3923,0.0,0.0,3.8553,4.0019,4.3639,4.4703,4.5598,4.6854,4.8102,4.8947,4.9116,4.9666,4.9977,4.9815,4.9492,4.9148,4.877,4.9257,4.972,5.0004,5.0019,5.0115,5.031,5.0416,5.0457,5.0457,5.0457,5.0457,5.0457,5.0438,5.0478,5.0478,5.0521,5.0562,5.0603,5.0643,5.0682,5.0682,5.0702,5.0683,5.0683,5.0683,5.0683,3.6673,3.6468,3.5919,3.495,3.3743,3.3831,3.3749,3.3517,3.2961,3.2603,3.2367,3.178,3.1337,3.1036,3.0968,3.1231,3.1668,3.1835,3.2211,3.2795,3.2952,3.3032,3.3032,3.3166,3.3332,3.3522,3.3541,3.3625,3.3807,3.3807,3.3568,3.3128,3.3146,3.2687,3.1843,3.1531,3.1403,3.1403,3.1403,3.1409,3.1415,3.0638,3.0233,3.0221,2.9439,2.8975,2.8975,2.8686,2.8484,2.8429,2.7273,2.6612,2.6576,2.4116,2.2887,0.0,0.0,0.0,0.0,0.0,0.0,0.0,0.0,0.0,0.0,0.0,3.1241,3.1934,3.4412,3.6273,3.6996,3.8116,3.9861,4.2337,4.2715,4.3888,4.6641,4.7384,4.7989,4.8606,4.9433,4.9952,4.9852,5.0234,5.0478,5.0367,5.0231,4.9986,4.9616,4.9973,5.0367,5.0435,5.0393,5.0393,5.0435,5.0459,5.05,5.05,5.05,5.05,5.05,5.05,5.05,5.0521,5.0563,5.0603,5.0663,5.0663,5.0683,5.0683,5.0683,5.0683,5.0683,5.0683,5.0683,3.779,3.7599,3.6909,3.6615,3.6567,3.5905,3.5299,3.4703,3.4443,3.3993,3.3495,3.3176,3.2805,3.2437,3.2684,3.2651,3.2437,3.2731,3.289,3.2952,3.3214,3.3332,3.3379,3.3634,3.3807,3.3807,3.3807,3.3807,3.3807,3.3807,3.3807,3.3807,3.3807,3.3807,3.3752,3.2394,3.1696,3.1715,3.1696,3.1721,3.1777,3.0931,3.0491,3.0415,2.9609,2.9049,2.8828,2.8374,2.8062,2.7934,2.7405,2.7059,2.693,2.6197,2.57,0.0,2.5662,0.0,0.0,0.0,0.0,0.0,0.0,0.0,0.0,3.4389,3.5966,3.6767,3.8499,4.0098,4.139,4.3019,4.4596,4.6022,4.6606,4.7157,4.7865,4.8912,4.9567,4.9567,5.024,5.0663,5.0565,5.0562,5.0478,5.0412,5.0325,5.0306,5.0352,5.0393,5.0435,5.05,5.0521,5.05,5.0521,5.0521,5.0562,5.0521,5.0542,5.0521,5.0542,5.0521,5.0542,5.0603,5.0623,5.0623,5.0683,5.0683,5.0683,5.0683,5.0721,5.0721,5.0702,5.0683,5.0702,3.8601,3.8469,3.8303,3.8248,3.8248,3.8107,3.7266,3.5959,3.5882,3.5407,3.4668,3.434,3.3797,3.3111,3.2908,3.2939,3.3093,3.3184,3.3332,3.3625,3.368,3.3707,3.3707,3.3762,3.3807,3.3807,3.3807,3.3807,3.3807,3.3807,3.3807,3.3807,3.3807,3.3807,3.3788,0.0,0.0,0.0,3.333,3.3348,3.3338,3.2577,3.1843,3.1207,3.0393,0.0,2.8136,2.9145,2.9457,2.8833,2.944,0.0,0.0,0.0,0.0,0.0,0.0,0.0,0.0,0.0,0.0,0.0,3.4908,3.4377,3.4275,3.8497,4.0769,3.9755,4.2428,4.4131,4.3748,4.5246,4.6398,4.6743,4.7991,4.8913,4.9086,4.9894,5.0433,5.0452,5.0587,5.0643,5.0542,5.0542,5.0521,5.0435,5.039,5.0393,5.0478,5.0435,5.0457,5.0542,5.0582,5.0582,5.0563,5.0623,5.0643,5.0663,5.0663,5.0663,5.0643,5.0663,5.0663,5.0663,5.0702,5.0683,5.0683,5.0683,5.0683,5.0683,5.0775,5.0825,5.0721,5.0683,5.074,3.8881,0.0,3.875,3.8719,0.0,3.8707,3.8248,3.7459,3.7055,3.6413,3.5632,3.5451,3.503,3.4492,3.4498,3.4498,3.4492,3.4229,3.4227,3.4376,3.3972,3.3807,3.3807,3.3807,3.3807,3.3807,3.3807,3.3807,3.3807,3.3807,3.3807,3.3807,3.3807,3.3807,3.3807,3.3807,3.3807,3.3807,3.3807,3.3815,3.3823,3.3036,3.2412,3.2022,0.0,0.0,0.0,0.0,0.0,0.0,0.0,0.0,0.0,0.0,0.0,3.1274,3.1998,3.2695,3.3313,3.4919,3.6682,3.8474,3.9508,3.9661,3.8725,4.1667,4.3385,4.3,4.4589,4.5586,4.5624,4.6394,4.724,4.8067,4.8894,4.9529,5.001,5.0433,5.0683,5.0683,5.0683,5.0663,5.0542,5.0582,5.0562,5.0478,5.0435,5.0435,5.0478,5.0459,5.05,5.0642,5.0643,5.0643,5.0643,5.0663,5.0683,5.0683,5.0683,5.0683,5.0683,5.0683,5.0683,5.0683,5.0683,5.0683,5.0683,5.0683,5.0721,5.0775,5.0858,5.0902,5.0851,5.0848,5.0863,3.9124,3.8994,3.8877,3.878,3.8719,3.8738,3.8689,3.8652,0.0,0.0,0.0,3.6505,3.6259,3.5848,3.6161,3.6131,3.5793,3.54,3.521,3.5202,3.4394,3.4027,3.4009,3.388,3.3815,3.3834,3.3815,3.3834,3.3834,3.3807,3.3807,3.3807,3.3807,3.3807,3.3807,3.3807,3.3807,3.3807,3.3807,3.3815,3.3868,3.3191,3.2787,3.2691,3.2029,3.163,3.1483,3.137,3.1315,3.1299,3.1148,3.16,3.2807,3.3034,3.3919,3.573,3.6936,3.7583,3.7745,3.9949,4.1133,4.0705,4.2888,4.3924,4.312,4.3958,4.4816,4.5528,4.5586,4.5951,4.6817,4.7048,4.7721,4.924,4.9529,4.9933,5.0567,5.0683,5.0683,5.0683,5.0683,5.0682,5.0603,5.0622,5.0603,5.0521,5.0478,5.0476,5.05,5.05,5.0521,5.0643,5.0663,5.0663,5.0683,5.0683,5.0683,5.0683,5.0683,5.0683,5.0683,5.0683,5.0683,5.0683,5.0683,5.0702,5.0721,5.074,5.0794,5.0883,5.0942,5.0945,5.1008,5.1053,5.1063,3.9974,3.9786,3.9146,3.8851,3.8792,3.8792,3.875,3.8707,3.8579,3.8065,3.7331,3.7342,3.6945,3.6208,3.6303,3.6256,3.6208,3.6127,3.6119,0.0,3.5257,3.4825,3.4789,3.4173,3.3895,3.3868,3.3868,3.3895,3.3887,3.3834,3.3807,3.3825,3.3807,3.3825,3.3807,3.3807,3.3807,3.3807,3.3807,3.3807,3.3834,3.3678,3.3293,3.2676,3.273,3.2446,3.1782,3.3219,3.4041,3.4081,3.5491,3.6102,3.5608,3.6215,3.6519,3.6292,3.8142,3.9453,3.9719,4.1436,4.2814,4.3633,4.467,4.4957,4.4205,4.4913,4.547,4.5586,4.5586,4.5951,4.6797,4.7528,4.8298,4.9298,5.0067,5.0567,5.0683,5.0683,5.0683,5.0683,5.0683,5.0663,5.0623,5.0643,5.0643,5.0584,5.0562,5.0582,5.0562,5.054,5.0521,5.0603,5.0603,5.0623,5.0683,5.0683,5.0683,5.0683,5.0683,5.0721,5.0721,5.0721,5.0702,5.0702,5.0721,5.0739,5.0841,5.0874,5.0913,5.0966,5.1061,5.1152,5.1178,5.1252,5.1291,4.0566,3.9989,3.9632,3.9197,3.875,3.875,3.8719,3.8707,3.8707,3.8487,3.8175,3.8157,3.7955,3.7624,3.7606,3.7606,3.7588,3.7129,3.6945,3.6872,3.6101,3.5716,3.5624,3.4881,3.4761,3.5147,3.4724,3.4761,3.5165,3.5174,3.5147,3.5147,3.5165,3.5165,3.5147,3.5147,3.5165,3.5128,3.4266,3.3807,3.3807,3.3807,3.3623,3.3256,3.3926,3.4128,3.3799,3.5265,3.6115,3.6116,3.7034,3.7585,3.77,3.8099,3.8575,3.9108,4.0158,4.1055,4.1645,4.287,4.3943,4.4823,4.5246,4.5303,4.4938,4.5282,4.5568,4.5586,4.5586,4.6124,4.7394,4.7894,4.8625,4.9971,5.0471,5.0683,5.0683,5.0683,5.0683,5.0683,5.0683,5.0702,5.0643,5.0682,5.0702,5.0643,5.0623,5.0582,5.0562,5.054,5.0542,5.0623,5.0663,5.0663,5.0683,5.0683,5.0683,5.0683,5.0683,5.074,5.0775,5.081,5.0805,5.0848,5.0863,5.0894,5.0945,5.0959,5.0991,5.1093,5.115,5.1211,5.1271,5.1362,5.1367,4.1336,4.059,4.0388,3.9841,3.9013,3.8762,3.8707,3.8707,3.8707,3.8707,3.8707,3.8707,3.8707,3.8707,3.8707,3.8707,3.8615,3.8046,3.7753,3.7709,3.6927,3.656,3.6486,3.5697,3.5689,3.6203,3.5634,3.5689,3.6258,3.6332,3.6285,3.6285,3.6285,3.6285,3.6285,3.6285,3.6285,3.6211,3.5018,3.4357,3.4376,3.4357,3.4385,3.451,3.5286,3.5888,3.6189,3.7192,3.787,3.8041,3.8213,3.8591,3.926,3.9525,4.023,4.1455,4.2009,4.262,4.3461,4.4152,4.4786,4.5343,4.5419,4.5419,4.54,4.5438,4.5514,4.555,4.5568,4.626,4.7703,4.8049,4.876,5.0413,5.0663,5.0643,5.0682,5.0663,5.0682,5.0663,5.0683,5.0683,5.0683,5.0683,5.0683,5.0683,5.0643,5.0582,5.0542,5.0542,5.0584,5.0683,5.0721,5.0702,5.0683,5.074,5.074,5.074,5.0775,5.0822,5.0898,5.0928,5.0918,5.0959,5.0996,5.1008,5.1031,5.1042,5.1094,5.1211,5.1252,5.1291,5.1362,5.139,5.1394,4.2489,4.2197,4.1595,4.0794,3.9829,3.9068,3.8744,3.8726,3.8707,3.8707,3.8707,3.8707,3.8707,3.8707,3.8707,3.8707,3.8707,3.8615,3.856,3.8469,3.7753,3.7386,3.7323,3.6599,3.6343,3.6425,3.6315,3.6333,3.6517,3.6405,3.6321,3.6285,3.6285,3.6358,3.6321,3.634,3.6321,3.6303,3.6138,3.6064,3.6064,3.6064,3.6187,3.6445,3.6694,3.7341,3.8199,3.8709,3.9204,3.9948,4.0005,4.0081,4.0234,4.0845,4.138,4.1666,4.3025,4.425,4.5036,4.5247,4.5304,4.54,4.54,4.5419,4.54,4.54,4.54,4.5438,4.5457,4.6224,4.7759,4.8009,4.8719,5.0353,5.0582,5.0562,5.0603,5.0603,5.0603,5.0603,5.0663,5.0683,5.0702,5.0683,5.0683,5.0683,5.0663,5.0643,5.0664,5.0644,5.0664,5.0791,5.0757,5.0664,5.0702,5.081,5.0855,5.0887,5.0937,5.0966,5.0991,5.1004,5.0996,5.1053,5.1031,5.1074,5.1141,5.1195,5.1238,5.1322,5.1362,5.1367,5.1394,5.1394,5.1394,4.3069,4.2447,4.2166,4.1493,4.0575,3.9753,3.9405,3.9368,3.8909,3.8707,3.8707,3.8707,3.8707,3.8707,3.8707,3.8707,3.8707,3.8707,3.8707,3.8689,3.834,3.8193,3.812,3.7415,3.7298,3.7702,3.7298,3.7298,3.7672,3.7716,3.7734,3.7716,3.7734,3.7734,3.7716,3.7734,3.7716,3.7734,3.7716,3.7805,3.783,3.7008,3.6581,3.6782,3.7539,3.8199,3.8702,3.9357,3.9928,4.0291,4.0329,4.054,4.0979,4.1361,4.203,4.3006,4.4193,4.5016,4.5341,4.538,4.538,4.536,4.5339,4.5338,4.5341,4.5379,4.5379,4.536,4.54,4.6148,4.7701,4.8008,4.8699,5.0138,5.0521,5.0521,5.054,5.0542,5.0542,5.0542,5.0582,5.0603,5.0643,5.0663,5.0683,5.0683,5.0663,5.0702,5.0793,5.0791,5.0839,5.0937,5.0889,5.0859,5.0859,5.0918,5.0959,5.0972,5.0991,5.102,5.1113,5.1123,5.1141,5.1211,5.1211,5.1218,5.1297,5.1322,5.1352,5.1394,5.1394,5.1394,5.1394,5.1394,5.1394,4.3481,4.2797,4.2544,4.2004,4.1368,4.0579,4.0212,4.012,3.9386,3.9019,3.9019,3.8799,3.8707,3.8707,3.8707,3.8707,3.8707,3.8707,3.8707,3.8707,3.8707,3.8707,3.8634,3.812,3.812,3.8524,3.8102,3.8138,3.8652,3.8707,3.8707,3.8707,3.8707,3.8707,3.8707,3.8707,3.8707,3.867,3.878,3.8892,3.8934,3.8115,3.7573,3.766,3.8508,3.9064,3.9144,3.9872,4.0329,4.0329,4.0501,4.0883,4.1437,4.1973,4.291,4.4268,4.5016,4.536,4.5298,4.5338,4.5338,4.5297,4.5277,4.5277,4.5297,4.5338,4.5357,4.5298,4.536,4.6089,4.7622,4.7947,4.8675,5.021,5.0459,5.0438,5.0459,5.0478,5.0478,5.0478,5.05,5.0521,5.0582,5.0644,5.0721,5.074,5.0775,5.0808,5.0898,5.0942,5.0965,5.1031,5.1053,5.1031,5.102,5.1031,5.1023,5.1063,5.1084,5.1178,5.1245,5.1252,5.1278,5.1322,5.1367,5.1394,5.1367,5.139,5.1394,5.1394,5.1394,5.1394,5.1394,5.1394,5.1394,4.3923,4.3698,4.2797,4.2371,4.2176,4.1405,4.1056,4.1001,4.0212,3.9845,3.9735,3.9074,3.8726,3.8744,3.8726,3.8707,3.8707,3.8707,3.8707,3.8707,3.8707,3.8707,3.8707,3.867,3.8652,3.8707,3.8615,3.8615,3.8707,3.8707,3.8707,3.8707,3.8707,3.8707,3.8707,3.8707,3.8689,3.875,3.8968,3.9101,3.9165,3.951,3.9602,3.9624,3.9778,3.9924,4.0139,4.0253,4.0329,4.0329,4.1017,4.1457,4.1648,4.3042,4.4265,4.5086,4.5279,4.5317,4.5277,4.5317,4.5297,4.5277,4.5277,4.5277,4.5277,4.5297,4.5317,4.5277,4.5375,4.6082,4.7515,4.784,4.857,5.0122,5.0348,5.0348,5.0393,5.0412,5.0393,5.0412,5.0478,5.0523,5.0523,5.0625,5.0735,5.0819,5.0908,5.1005,5.1011,5.1016,5.1072,5.115,5.1195,5.115,5.1053,5.1123,5.1167,5.1203,5.1258,5.1357,5.1386,5.139,5.1394,5.139,5.1394,5.1394,5.1394,5.1394,5.1394,5.1394,5.1394,5.1394,5.1394,5.1394,5.1394,4.3929,4.38,4.3354,4.3125,4.2965,4.2213,4.1864,4.1791,4.102,4.0671,4.0543,3.9808,3.946,3.9441,3.8927,3.8707,3.8707,3.8707,3.8707,3.8707,3.8707,3.8707,3.8707,3.8707,3.8707,3.8707,3.8707,3.8707,3.8707,3.8707,3.8707,3.8707,3.8707,3.8707,3.8707,3.8707,3.878,3.895,3.9045,3.9272,3.9556,3.9826,3.9956,4.0157,4.0157,4.0196,4.0311,4.0329,4.054,4.1036,4.1342,4.1991,4.3061,4.4208,4.4953,4.5239,4.5277,4.5277,4.5277,4.5277,4.5277,4.5277,4.5277,4.5277,4.5277,4.5277,4.5277,4.5373,4.5812,4.6615,4.7455,4.7799,4.8487,4.9962,5.0302,5.0302,5.0325,5.0325,5.0325,5.0371,5.0502,5.0664,5.0735,5.0851,5.0898,5.0928,5.097,5.1042,5.1102,5.1133,5.117,5.1284,5.1327,5.1302,5.1284,5.1291,5.1327,5.1333,5.1367,5.1367,5.1394,5.1394,5.1394,5.1394,5.1394,5.1394,5.1394,5.1394,5.1394,5.1394,5.1394,5.1394,5.1394,5.1394,5.1394,4.3929,4.3818,4.3701,4.36,4.3458,4.2928,4.269,4.258,4.1846,4.1497,4.135,4.0653,4.0286,4.0157,3.9441,3.9093,3.9038,3.8836,3.8707,3.8707,3.8707,3.8707,3.8707,3.8707,3.8707,3.8707,3.8707,3.8707,3.8707,3.8707,3.8707,3.8707,3.8707,3.8707,3.8707,3.8707,3.884,3.9064,3.9165,3.9433,3.987,3.9977,4.0098,4.0273,4.0329,4.0329,4.0329,4.054,4.0903,4.1457,4.1991,4.2947,4.4303,4.4953,4.5277,4.5277,4.5277,4.5277,4.5277,4.5277,4.5277,4.5277,4.5277,4.5277,4.5277,4.5277,4.5277,4.5449,4.6042,4.6863,4.7627,4.8067,4.8793,5.0015,5.0302,5.0302,5.0302,5.0302,5.0348,5.044,5.0606,5.075,5.0859,5.097,5.1011,5.1037,5.1062,5.1152,5.1237,5.1269,5.1291,5.1362,5.139,5.139,5.1362,5.1362,5.1386,5.1367,5.1371,5.1394,5.1394,5.1394,5.1394,5.1394,5.1394,5.1394,5.1394,5.1394,5.1394,5.1394,5.1394,5.1394,5.1394,5.1394,5.1394,4.3942,4.3915,4.3818,4.3701,4.3582,4.344,4.3461,4.3259,4.2635,4.2304,4.2194,4.146,4.1111,4.0946,4.0267,3.9882,3.9662,3.9111,3.8762,3.8707,3.8707,3.8707,3.8707,3.8707,3.8707,3.8707,3.8707,3.8707,3.8707,3.8707,3.8707,3.8707,3.8707,3.8707,3.8707,3.8707,3.8822,3.9073,3.9324,3.958,3.9892,4.0118,4.0253,4.0291,4.0368,4.0425,4.0406,4.1055,4.1457,4.1724,4.3061,4.4341,4.5029,4.5277,4.5277,4.5277,4.5277,4.5277,4.5277,4.5277,4.5277,4.5277,4.5277,4.5277,4.5277,4.5277,4.5277,4.5392,4.6137,4.694,4.7761,4.8582,4.9404,5.0149,5.0302,5.0302,5.0302,5.0302,5.0355,5.0567,5.0731,5.0809,5.0855,5.1005,5.1109,5.1122,5.12,5.1269,5.1356,5.1375,5.1391,5.1381,5.139,5.1394,5.1394,5.1394,5.1394,5.1394,5.1394,5.1394,5.1394,5.1394,5.1394,5.1394,5.1394,5.1394,5.1394,5.1394,5.1394,5.1394,5.1394,5.1394,5.1394,5.1394,5.1394,4.3942,4.3915,4.3837,4.3719,4.3582,4.3532,4.3479,4.3461,4.3204,4.313,4.2965,4.2286,4.1937,4.1754,4.1093,4.0432,3.99,3.9606,3.9239,3.8781,3.8707,3.8707,3.8707,3.8707,3.8707,3.8707,3.8707,3.8707,3.8707,3.8707,3.8707,3.8707,3.8707,3.8707,3.8707,3.8707,3.8822,3.9055,3.9165,3.9452,3.987,3.9956,4.0098,4.033,4.0826,4.1132,4.1132,4.1361,4.18,4.2374,4.3424,4.4399,4.5105,4.5277,4.5277,4.5277,4.5277,4.5277,4.5277,4.5277,4.5277,4.5277,4.5277,4.5277,4.5277,4.5277,4.5297,4.5449,4.6538,4.757,4.7971,4.9117,4.9958,5.0264,5.0302,5.0302,5.0325,5.044,5.0567,5.0731,5.0903,5.103,5.1131,5.123,5.123,5.1219,5.1273,5.1323,5.1369,5.14,5.1391,5.1386,5.139,5.1394,5.1394,5.1394,5.1394,5.1394,5.1394,5.1394,5.1394,5.1394,5.1394,5.1394,5.1394,5.1394,5.1394,5.1394,5.1394,5.1394,5.1394,5.1394,5.1394,5.1394,5.1394,4.3974,4.3929,4.3851,4.3786,4.3667,4.3582,4.3513,4.3479,4.3479,4.3479,4.3351,4.2965,4.2727,4.258,4.1901,4.1111,4.0359,4.0047,3.9478,3.8799,3.8707,3.8707,3.8707,3.8707,3.8707,3.8707,3.8707,3.8707,3.8707,3.8707,3.8707,3.8707,3.8707,3.8707,3.8707,3.8707,3.884,3.9045,3.9082,3.9305,3.9675,3.9829,4.011,4.0614,4.1189,4.1648,4.1934,4.224,4.2679,4.3271,4.4036,4.4743,4.5258,4.5277,4.5277,4.5277,4.5277,4.5277,4.5277,4.5277,4.5277,4.5277,4.5277,4.5277,4.5277,4.5277,4.5373,4.5908,4.6978,4.7952,4.8411,4.9442,5.0225,5.0302,5.0302,5.0302,5.0348,5.0527,5.0696,5.0844,5.1017,5.1191,5.1265,5.13,5.13,5.13,5.13,5.1308,5.1356,5.1388,5.1391,5.1386,5.139,5.1394,5.1394,5.1394,5.1394,5.1394,5.1394,5.1394,5.1394,5.1394,5.1394,5.1394,5.1394,5.1394,5.1394,5.1394,5.1394,5.1394,5.1394,5.1394,5.1394,5.1394,5.1394,4.4005,4.4005,4.3929,4.3851,4.3771,4.3634,4.3548,4.3497,4.3479,4.3479,4.3461,4.3406,4.3406,4.3296,4.2653,4.1937,4.1167,4.0543,3.9753,3.9093,3.8872,3.8836,3.8726,3.8707,3.8707,3.8707,3.8707,3.8707,3.8707,3.8707,3.8707,3.8707,3.8707,3.8707,3.8707,3.8707,3.884,3.8989,3.9045,3.9192,3.9496,3.9853,4.0309,4.1054,4.1587,4.2144,4.2832,4.3539,4.3997,4.4169,4.48,4.5182,4.5277,4.5277,4.5277,4.5277,4.5277,4.5277,4.5277,4.5277,4.5277,4.5277,4.5277,4.5277,4.5277,4.5297,4.5602,4.6309,4.7245,4.8143,4.8926,4.9786,5.0245,5.0302,5.0302,5.0302,5.0352,5.0605,5.0793,5.0884,5.11,5.13,5.13,5.13,5.13,5.13,5.13,5.1296,5.1336,5.1375,5.1386,5.1396,5.139,5.1394,5.1394,5.1394,5.1394,5.1394,5.1394,5.1394,5.1394,5.1394,5.1394,5.1394,5.1394,5.1394,5.1394,5.1394,5.1394,5.1394,5.1394,5.1394,5.1394,5.1394,5.1394,4.4005,4.4005,4.3929,4.3851,4.3804,4.3667,4.3548,4.3479,4.3479,4.3479,4.3479,4.3479,4.3479,4.3461,4.3277,4.2745,4.2044,4.175,4.0855,3.9735,3.957,3.9221,3.8799,3.8707,3.8707,3.8707,3.8707,3.8707,3.8707,3.8707,3.8707,3.8707,3.8707,3.8707,3.8707,3.8707,3.8719,3.8792,3.8829,3.8987,3.9349,4.0103,4.0679,4.1146,4.254,4.3347,4.3749,4.4513,4.4953,4.4972,4.5144,4.5277,4.5277,4.5277,4.5277,4.5277,4.5277,4.5277,4.5277,4.5277,4.5277,4.5277,4.5277,4.5277,4.5277,4.5277,4.5698,4.6443,4.7283,4.8162,4.9003,4.9824,5.0245,5.0302,5.0302,5.0352,5.0526,5.0677,5.0855,5.1017,5.1191,5.1284,5.13,5.13,5.13,5.13,5.1296,5.1303,5.1343,5.1375,5.1391,5.1381,5.1394,5.1394,5.1394,5.1394,5.1394,5.1394,5.1394,5.1394,5.1394,5.1394,5.1394,5.1394,5.1394,5.1394,5.1394,5.1394,5.1394,5.1394,5.1394,5.1394,5.1394,5.1394,5.1394,4.3929,4.3929,4.3897,4.3832,4.3719,4.3686,4.36,4.3513,4.3479,4.3479,4.3479,4.3479,4.3479,4.3513,4.3631,4.3254,4.2535,4.2461,4.1538,4.0161,3.954,3.9093,3.8762,3.8707,3.8707,3.8707,3.8726,3.8707,3.8707,3.8707,3.8707,3.8707,3.8707,3.8707,3.8707,3.8707,3.8707,3.8762,3.8982,3.9319,3.964,4.0648,4.1531,4.2147,4.3433,4.4131,4.4532,4.5029,4.5277,4.5277,4.5277,4.5277,4.5277,4.5277,4.5277,4.5277,4.5277,4.5277,4.5277,4.5277,4.5277,4.5277,4.5277,4.5277,4.5277,4.5297,4.5679,4.6959,4.7532,4.8372,4.9385,5.0054,5.0264,5.0302,5.0302,5.0374,5.0586,5.0711,5.0889,5.1074,5.122,5.13,5.13,5.13,5.13,5.13,5.1308,5.1303,5.1343,5.138,5.1396,5.1386,5.1394,5.1394,5.1394,5.1394,5.1394,5.1394,5.1394,5.1394,5.1394,5.1394,5.1394,5.1394,5.1394,5.1394,5.1394,5.1394,5.1394,5.1394,5.1394,5.1394,5.1394,5.1394,5.1394,4.3804,4.3786,4.3851,4.3767,4.3615,4.3701,4.3652,4.3532,4.3479,4.3479,4.3479,4.3479,4.3548,4.3548,4.3828,4.3578,4.2914,4.2965,4.1846,4.0522,3.9448,3.8726,3.8744,3.8909,3.8964,3.8982,3.8909,3.8982,3.9001,3.8909,3.8781,3.8726,3.8707,3.8799,3.8927,3.8909,3.8891,3.9239,3.9753,4.0161,4.055,4.1472,4.2417,4.3232,4.3912,4.4571,4.501,4.5277,4.5277,4.5277,4.5277,4.5277,4.5277,4.5277,4.5277,4.5277,4.5277,4.5277,4.5277,4.5277,4.5277,4.5277,4.5277,4.5277,4.5277,4.5316,4.587,4.7207,4.7723,4.8582,4.9843,5.0302,5.0302,5.0302,5.0302,5.0377,5.0567,5.0748,5.0903,5.1086,5.1239,5.1292,5.13,5.13,5.13,5.13,5.1308,5.1303,5.1336,5.1369,5.1386,5.1401,5.1386,5.139,5.1394,5.1394,5.1394,5.1394,5.1394,5.1394,5.1394,5.1394,5.1394,5.1394,5.1394,5.1394,5.1394,5.1394,5.1394,5.1394,5.1394,5.1394,5.1394,5.1394,5.1394,4.3804,4.3804,4.3804,4.3753,4.3615,4.3634,4.36,4.3479,4.3479,4.3479,4.3479,4.3479,4.3649,4.3878,4.3974,4.396,4.3847,4.3588,4.273,4.0877,3.9357,3.8762,3.8854,3.927,3.9588,3.9717,4.0286,4.0194,3.9772,3.9478,3.9294,3.8744,3.8817,3.9019,3.9515,3.9625,3.9992,4.0487,4.0763,4.1003,4.1473,4.2369,4.3177,4.3748,4.4503,4.5029,4.5201,4.5277,4.5277,4.5277,4.5277,4.5277,4.5277,4.5277,4.5277,4.5277,4.5277,4.5277,4.5277,4.5277,4.5277,4.5277,4.5277,4.5277,4.5277,4.5277,4.5755,4.671,4.7417,4.8525,4.9996,5.0302,5.0302,5.0302,5.0302,5.0442,5.0696,5.0793,5.0945,5.1162,5.1265,5.13,5.13,5.13,5.13,5.13,5.1308,5.1303,5.1336,5.1362,5.138,5.1391,5.1386,5.139,5.1394,5.1394,5.1394,5.1394,5.1394,5.1394,5.1394,5.1394,5.1394,5.1394,5.1394,5.1394,5.1394,5.1394,5.1394,5.1394,5.1394,5.1394,5.1394,5.1394,5.1394,4.3634,4.3652,4.3667,4.3634,4.3548,4.3582,4.3548,4.3479,4.3479,4.3479,4.3479,4.3479,4.3615,4.3763,4.3942,4.4091,4.3908,4.3185,4.2236,4.0896,3.962,3.8859,3.8915,3.9547,4.005,4.0042,4.0689,4.0616,4.0084,3.9827,3.946,3.8836,3.9056,3.946,3.9937,4.0267,4.0712,4.1256,4.1699,4.2043,4.2592,4.3408,4.4102,4.4376,4.4968,4.5277,4.5277,4.5277,4.5277,4.5277,4.5277,4.5277,4.5277,4.5277,4.5277,4.5277,4.5277,4.5277,4.5277,4.5277,4.5277,4.5277,4.5277,4.5277,4.5277,4.5277,4.5679,4.6443,4.736,4.8487,5.0054,5.0302,5.0302,5.0302,5.0302,5.0445,5.0728,5.0809,5.094,5.121,5.13,5.13,5.13,5.13,5.13,5.13,5.13,5.1296,5.1323,5.1356,5.1369,5.1386,5.1401,5.139,5.1394,5.1394,5.1394,5.1394,5.1394,5.1394,5.1394,5.1394,5.1394,5.1394,5.1394,5.1394,5.1394,5.1394,5.1394,5.1394,5.1394,5.1394,5.1394,5.1394,5.1394,4.3479,4.3479,4.3548,4.3548,4.3532,4.3548,4.3548,4.3479,4.3479,4.3479,4.3479,4.3479,4.3548,4.3649,4.3878,4.4005,4.3615,4.2593,4.1718,4.0993,3.9847,3.911,3.9056,3.9607,4.008,4.0024,4.0726,4.0671,4.0286,3.99,3.9478,3.8964,3.9478,3.9937,4.0212,4.0855,4.1521,4.2001,4.2495,4.3021,4.3573,4.426,4.4711,4.5099,4.522,4.5277,4.5277,4.5277,4.5277,4.5277,4.5277,4.5277,4.5277,4.5277,4.5277,4.5277,4.5277,4.5277,4.5277,4.5277,4.5277,4.5277,4.5277,4.5277,4.5277,4.5335,4.5717,4.6538,4.7494,4.8716,5.0073,5.0302,5.0302,5.0302,5.0302,5.0446,5.0711,5.0825,5.0966,5.1219,5.13,5.13,5.13,5.13,5.13,5.13,5.13,5.13,5.1316,5.1342,5.1362,5.138,5.1396,5.1386,5.1394,5.1394,5.1394,5.1394,5.1394,5.1394,5.1394,5.1394,5.1394,5.1394,5.1394,5.1394,5.1394,5.1394,5.1394,5.1394,5.1394,5.1394,5.1394,5.1394,5.1394,4.3479,4.3479,4.3513,4.3532,4.3479,4.3513,4.3513,4.3479,4.3479,4.3479,4.3479,4.3479,4.3649,4.3846,4.3923,4.4005,4.3695,4.2773,4.1927,4.1162,4.0173,3.9461,3.9118,3.951,3.9921,4.0134,4.0634,4.0855,4.0634,4.023,3.9533,3.9038,3.957,4.0212,4.0983,4.1699,4.2411,4.2871,4.3236,4.3627,4.412,4.4421,4.477,4.5235,4.5277,4.5277,4.5277,4.5277,4.5277,4.5277,4.5277,4.5277,4.5277,4.5277,4.5277,4.5277,4.5277,4.5277,4.5277,4.5277,4.5277,4.5277,4.5277,4.5277,4.5277,4.5335,4.5755,4.6729,4.7933,4.9251,5.0168,5.0302,5.0302,5.0302,5.0306,5.0425,5.0711,5.084,5.094,5.1228,5.1292,5.13,5.13,5.13,5.13,5.13,5.13,5.13,5.1308,5.1323,5.1343,5.1375,5.1391,5.1401,5.139,5.1394,5.1394,5.1394,5.1394,5.1394,5.1394,5.1394,5.1394,5.1394,5.1394,5.1394,5.1394,5.1394,5.1394,5.1394,5.1394,5.1394,5.1394,5.1394,5.1394,4.3479,4.3479,4.3479,4.3479,4.3479,4.3479,4.3479,4.3479,4.3479,4.3479,4.3479,4.3479,4.3582,4.3716,4.373,4.3749,4.356,4.2881,4.2212,4.1548,4.0627,3.9872,3.9301,3.954,3.997,4.0312,4.0561,4.0543,4.0451,4.0102,3.9698,3.9662,4.012,4.0928,4.1735,4.2525,4.314,4.3646,4.3763,4.3936,4.4355,4.4493,4.4862,4.5151,4.5277,4.5277,4.5277,4.5277,4.5277,4.5277,4.5277,4.5277,4.5277,4.5277,4.5277,4.5277,4.5277,4.5277,4.5277,4.5277,4.5277,4.5277,4.5277,4.5277,4.5277,4.5392,4.5908,4.7092,4.8162,4.9423,5.0206,5.0283,5.0302,5.0302,5.0302,5.0446,5.0694,5.0793,5.0998,5.1228,5.1273,5.13,5.13,5.13,5.13,5.13,5.13,5.1308,5.1296,5.133,5.1349,5.1366,5.1396,5.1386,5.1394,5.1394,5.1394,5.1394,5.1394,5.1394,5.1394,5.1394,5.1394,5.1394,5.1394,5.1394,5.1394,5.1394,5.1394,5.1394,5.1394,5.1394,5.1394,5.1394,5.1394,4.3649,4.3679,4.3679,4.3697,4.3697,4.3697,4.3679,4.3679,4.3679,4.3712,4.3679,4.3679,4.3712,4.3679,4.3712,4.3712,4.3642,4.301,4.2682,4.217,4.1403,4.0633,4.0093,3.9884,4.0117,4.0795,4.0616,4.023,4.0616,4.0359,4.0194,4.0359,4.0946,4.1607,4.2286,4.2965,4.3605,4.3814,4.3892,4.403,4.4318,4.4591,4.4819,4.5106,4.5173,4.5173,4.5132,4.5256,4.5277,4.5277,4.5277,4.5277,4.5277,4.5277,4.5277,4.5277,4.5277,4.5277,4.5277,4.5277,4.5277,4.5277,4.5277,4.5277,4.5488,4.5793,4.6462,4.7665,4.8831,4.9576,5.0187,5.0302,5.0302,5.0302,5.0325,5.0421,5.0677,5.0855,5.0985,5.1152,5.1256,5.13,5.1292,5.13,5.13,5.13,5.13,5.1296,5.1303,5.1356,5.1375,5.1377,5.1386,5.139,5.1394,5.1394,5.1394,5.1394,5.1394,5.1394,5.1394,5.1394,5.1394,5.1394,5.1394,5.1394,5.1394,5.1394,5.1394,5.1394,5.1394,5.1394,5.1394,5.1394,5.1394,4.4091,4.427,4.427,4.4289,4.426,4.4231,4.426,4.4231,4.4184,4.4318,4.4173,4.426,4.4213,4.4184,4.4231,4.426,4.4204,4.4015,4.3506,4.2835,4.2382,4.176,4.1084,4.091,4.0841,4.124,4.1093,4.1423,4.157,4.1203,4.0965,4.1111,4.1658,4.2249,4.2506,4.3198,4.3495,4.3548,4.3582,4.3749,4.4048,4.4318,4.4438,4.4591,4.4745,4.4891,4.4934,4.509,4.5256,4.5277,4.5277,4.5277,4.5277,4.5277,4.5277,4.5277,4.5277,4.5277,4.5277,4.5277,4.5277,4.5277,4.5277,4.5277,4.5679,4.6596,4.7398,4.7742,4.9156,5.0015,5.0245,5.0283,5.0302,5.0302,5.0302,5.0486,5.0711,5.0745,5.0898,5.1089,5.1191,5.1248,5.1284,5.1292,5.13,5.13,5.13,5.1296,5.131,5.1369,5.1386,5.1381,5.139,5.1394,5.1394,5.1394,5.1394,5.1394,5.1394,5.1394,5.1394,5.1394,5.1394,5.1394,5.1394,5.1394,5.1394,5.1394,5.1394,5.1394,5.1394,5.1394,5.1394,5.1394,5.1394,4.4213,4.3886,4.3886,4.3886,4.3886,4.3886,4.3886,4.3918,4.4102,4.4162,4.4181,4.4181,4.4181,4.4221,4.4318,4.4402,4.4402,4.4402,4.4177,4.3577,4.3183,4.2627,4.2026,4.1582,4.1409,4.1801,4.1864,4.2231,4.2378,4.1879,4.1277,4.1842,4.2249,4.2724,4.2886,4.348,4.3612,4.3582,4.3513,4.3701,4.3923,4.4121,4.4231,4.4402,4.4519,4.4624,4.4795,4.4891,4.5132,4.5235,4.5277,4.5277,4.5277,4.5277,4.5277,4.5277,4.5277,4.5277,4.5277,4.5277,4.5277,4.5277,4.5335,4.5488,4.6061,4.7016,4.8067,4.8544,4.9595,5.0206,5.0302,5.0302,5.0302,5.0302,5.0302,5.0464,5.0625,5.0642,5.0764,5.0945,5.112,5.1181,5.1239,5.1284,5.1292,5.13,5.1308,5.1316,5.1343,5.1372,5.1401,5.139,5.1394,5.1394,5.1394,5.1394,5.1394,5.1394,5.1394,5.1394,5.1394,5.1394,5.1394,5.1394,5.1394,5.1394,5.1394,5.1394,5.1394,5.1394,5.1394,5.1394,5.1394,5.1394,5.1394,4.4327,4.3744,4.3791,4.3823,4.3823,4.3777,4.3744,4.3777,4.3999,4.4121,4.4109,4.4121,4.4121,4.414,4.4318,4.4402,4.4402,4.4402,4.4346,4.4074,4.3746,4.3285,4.2921,4.2451,4.2477,4.2807,4.2902,4.3198,4.3167,4.2783,4.24,4.2595,4.2797,4.3107,4.3413,4.3664,4.3682,4.3513,4.3479,4.3615,4.3795,4.3828,4.3968,4.4132,4.426,4.4383,4.4572,4.4676,4.4862,4.4976,4.5109,4.5109,4.5132,4.5235,4.5277,4.5277,4.5277,4.5277,4.5277,4.5277,4.5277,4.5277,4.5316,4.5507,4.6061,4.7111,4.7971,4.8544,4.971,5.0149,5.0302,5.0302,5.0302,5.0302,5.0302,5.0421,5.0546,5.0587,5.0661,5.0855,5.1011,5.1097,5.1161,5.1248,5.1292,5.13,5.1308,5.1323,5.1349,5.1377,5.1386,5.139,5.1394,5.1394,5.1394,5.1394,5.1394,5.1394,5.1394,5.1394,5.1394,5.1394,5.1394,5.1394,5.1394,5.1394,5.1394,5.1394,5.1394,5.1394,5.1394,5.1394,5.1394,5.1394,5.1394,4.4402,4.4374,4.458,4.4631,4.4606,4.4419,4.4327,4.4242,4.4346,4.4374,4.4374,4.4402,4.4402,4.4402,4.4457,4.4493,4.4438,4.443,4.4374,4.4192,4.3943,4.3946,4.3785,4.3729,4.3785,4.3997,4.3882,4.3986,4.4233,4.3911,4.3584,4.3505,4.343,4.3468,4.3495,4.3548,4.3582,4.3513,4.3566,4.3548,4.3615,4.3615,4.3631,4.3716,4.391,4.4048,4.406,4.4289,4.4465,4.4591,4.4745,4.4843,4.4887,4.5106,4.5194,4.5213,4.5277,4.5277,4.5277,4.5277,4.5277,4.5277,4.5316,4.5411,4.5831,4.6997,4.7742,4.82,4.9442,5.0111,5.0245,5.0302,5.0302,5.0302,5.0302,5.0374,5.0464,5.0526,5.0625,5.0793,5.0884,5.0965,5.1074,5.1161,5.1256,5.1292,5.1308,5.1323,5.1343,5.1366,5.1381,5.139,5.139,5.1394,5.1394,5.1394,5.1394,5.1394,5.1394,5.1394,5.1394,5.1394,5.1394,5.1394,5.1394,5.1394,5.1394,5.1394,5.1394,5.1394,5.1394,5.1394,5.1394,5.1394,5.1394,4.4934,4.4953,4.4843,4.4701,4.4546,4.4457,4.4402,4.4457,4.4572,4.465,4.465,4.4838,4.4838,4.4745,4.4887,4.4934,4.4953,4.4972,4.4833,4.4833,4.4808,4.4688,4.4538,4.4289,4.4184,4.4221,4.4192,4.4132,4.4102,4.4374,4.4299,4.4095,4.4023,4.3758,4.3646,4.3548,4.3513,4.3582,4.3682,4.3763,4.3795,4.3814,4.3814,4.3846,4.3615,4.3846,4.4005,4.4091,4.425,4.4402,4.4519,4.4572,4.4669,4.491,4.5042,4.5087,4.5194,4.5277,4.5277,4.5277,4.5277,4.5277,4.5316,4.5449,4.5793,4.671,4.7646,4.8372,4.9079,4.9614,5.0245,5.0283,5.0302,5.0302,5.0325,5.0352,5.0396,5.0442,5.0464,5.0587,5.0696,5.0784,5.0923,5.1074,5.1181,5.1273,5.1289,5.1303,5.1343,5.1355,5.1372,5.1381,5.1386,5.139,5.1394,5.1394,5.1394,5.1394,5.1394,5.1394,5.1394,5.1394,5.1394,5.1394,5.1394,5.1394,5.1394,5.1394,5.1394,5.1394,5.1394,5.1394,5.1394,5.1394,5.1394,4.4914,4.4913,4.495,4.4814,4.4519,4.4438,4.4402,4.4457,4.4572,4.4676,4.472,4.4929,4.4929,4.4795,4.4887,4.4976,4.4929,4.4929,4.4976,4.4929,4.4862,4.4953,4.4795,4.4624,4.4493,4.4365,4.4383,4.4439,4.4318,4.4538,4.4493,4.4438,4.4438,4.4184,4.3899,4.3664,4.3649,4.3697,4.3716,4.3828,4.3828,4.3814,4.391,4.386,4.3682,4.3777,4.3986,4.4121,4.4181,4.4346,4.4493,4.4519,4.4624,4.4745,4.491,4.5023,4.5132,4.5277,4.5277,4.5277,4.5277,4.5277,4.5297,4.5602,4.6003,4.6347,4.715,4.7857,4.843,4.9041,4.9805,4.9843,5.0092,5.013,5.0283,5.0325,5.0325,5.0352,5.0329,5.0377,5.0528,5.0764,5.0889,5.1054,5.1201,5.1292,5.13,5.1296,5.1317,5.133,5.1361,5.1372,5.1401,5.1386,5.139,5.1394,5.1394,5.1394,5.1394,5.1394,5.1394,5.1394,5.1394,5.1394,5.1394,5.1394,5.1394,5.1394,5.1394,5.1394,5.1394,5.1394,5.1394,5.1394,5.1394,4.4015,4.415,4.4855,4.5011,4.4675,4.4519,4.4438,4.4511,4.4511,4.4519,4.4546,4.4572,4.4591,4.4565,4.4695,4.4739,4.4714,4.4643,4.4617,4.4695,4.477,4.472,4.477,4.4795,4.4751,4.5173,4.5042,4.4814,4.472,4.4976,4.4862,4.4695,4.472,4.4624,4.4355,4.4121,4.4005,4.3955,4.3749,4.373,4.3697,4.373,4.386,4.386,4.3682,4.3744,4.3999,4.4079,4.414,4.4308,4.4546,4.4624,4.4701,4.4976,4.5132,4.5173,4.5235,4.5277,4.5277,4.5277,4.5277,4.5277,4.5277,4.5392,4.5526,4.5946,4.6519,4.715,4.7474,4.82,4.8754,4.9156,4.9519,4.9748,4.9843,5.0054,5.0034,5.0302,5.0302,5.0325,5.0568,5.0805,5.0907,5.1047,5.121,5.13,5.13,5.1308,5.1303,5.131,5.1343,5.1355,5.1366,5.1377,5.1386,5.139,5.1394,5.1394,5.1394,5.1394,5.1394,5.1394,5.1394,5.1394,5.1394,5.1394,5.1394,5.1394,5.1394,5.1394,5.1394,5.1394,5.1394,5.1394,5.1394,4.3134,4.3092,4.3397,4.3773,4.4216,4.4791,4.4976,4.5,4.4976,4.4995,4.5019,4.5,4.5,4.5,4.4877,4.4858,4.4957,4.5019,4.5,4.4976,4.4934,4.5042,4.5087,4.4934,4.4891,4.4915,4.4957,4.4981,4.4795,4.5151,4.5213,4.5084,4.4976,4.4838,4.4493,4.4289,4.426,4.4289,4.4318,4.4299,4.4114,4.4053,4.4042,4.4017,4.373,4.373,4.398,4.403,4.4151,4.4279,4.4519,4.4624,4.465,4.491,4.5004,4.5045,4.5109,4.5277,4.5277,4.5277,4.5277,4.5277,4.5277,4.5277,4.5373,4.5488,4.5908,4.6328,4.6691,4.7417,4.8009,4.82,4.8468,4.8602,4.8812,4.927,4.9519,5.0034,5.0302,5.0352,5.0528,5.0809,5.0985,5.11,5.1256,5.13,5.13,5.13,5.1308,5.1296,5.1323,5.1317,5.133,5.1347,5.1377,5.1386,5.139,5.139,5.1394,5.1394,5.1394,5.1394,5.1394,5.1394,5.1394,5.1394,5.1394,5.1394,5.1394,5.1394,5.1394,5.1394,5.1394,5.1394,5.1394,4.2233,4.221,4.2495,4.2914,4.3564,4.4429,4.4949,4.5218,4.5277,4.5144,4.4876,4.4819,4.4588,4.4435,4.4437,4.4704,4.48,4.4838,4.5182,4.5201,4.5277,4.5256,4.5194,4.5109,4.5045,4.4957,4.4957,4.4957,4.48,4.5132,4.5235,4.5256,4.5277,4.5087,4.477,4.4669,4.4546,4.4565,4.4546,4.4465,4.4383,4.4374,4.4346,4.425,4.4102,4.398,4.4114,4.4231,4.4327,4.4421,4.4565,4.4695,4.4764,4.4862,4.4957,4.5045,4.5132,4.5297,4.5277,4.5277,4.5277,4.5277,4.5277,4.5277,4.5277,4.5354,4.5583,4.5889,4.6099,4.6596,4.7169,4.7302,4.7513,4.7665,4.8086,4.8563,4.8812,4.9308,4.9847,4.9972,5.0548,5.0809,5.1066,5.1181,5.1292,5.13,5.13,5.1281,5.1261,5.13,5.1308,5.1303,5.1317,5.1355,5.1372,5.1381,5.1386,5.139,5.139,5.1394,5.1394,5.1394,5.1394,5.1394,5.1394,5.1394,5.1394,5.1394,5.1394,5.1394,5.1394,5.1394,5.1394,5.1394,5.1394,4.1335,4.1468,4.2191,4.2495,4.2686,4.3485,4.4328,4.5077,4.5123,4.4666,4.3958,4.3958,4.369,4.3023,4.2889,4.3329,4.3959,4.4055,4.4532,4.5029,4.5201,4.5239,4.5277,4.5256,4.5194,4.5235,4.5216,4.5068,4.4891,4.5132,4.5277,4.5277,4.5277,4.5194,4.5087,4.4976,4.4862,4.4838,4.4745,4.4624,4.4519,4.4465,4.4511,4.4484,4.4383,4.4465,4.4643,4.477,4.4862,4.5042,4.5213,4.5235,4.5256,4.5277,4.5277,4.5297,4.5297,4.5297,4.5277,4.5277,4.5277,4.5277,4.5277,4.5277,4.5277,4.5277,4.5411,4.5468,4.5583,4.5946,4.6328,4.6538,4.6768,4.7111,4.7532,4.7799,4.7933,4.8372,4.8968,4.9562,5.0387,5.0835,5.1103,5.1242,5.0911,5.1086,5.1047,5.1008,5.1047,5.13,5.1308,5.1296,5.1336,5.1388,5.138,5.1377,5.1386,5.1386,5.139,5.1394,5.1394,5.1394,5.1394,5.1394,5.1394,5.1394,5.1394,5.1394,5.1394,5.1394,5.1394,5.1394,5.1394,5.1394,5.1394,4.0376,4.0352,4.058,4.1016,4.1702,4.2522,4.3444,4.4157,4.3702,4.3228,4.3097,4.3078,4.2868,4.2813,4.2794,4.2928,4.3271,4.3711,4.4074,4.4513,4.4953,4.5182,4.5277,4.5277,4.5277,4.5277,4.5256,4.5235,4.5173,4.5277,4.5277,4.5277,4.5277,4.5277,4.5256,4.5194,4.5151,4.5109,4.5019,4.4862,4.4745,4.4695,4.4695,4.4599,4.4546,4.4669,4.4739,4.4843,4.4934,4.4957,4.5213,4.5297,4.5277,4.5277,4.5277,4.5277,4.5297,4.5277,4.5277,4.5277,4.5277,4.5277,4.5277,4.5277,4.5277,4.5277,4.5277,4.5277,4.5277,4.564,4.5774,4.5927,4.6042,4.629,4.6672,4.6942,4.7114,4.7592,4.8228,4.9183,5.0024,5.0474,5.078,5.056,5.0307,5.0618,5.0735,5.0618,5.0735,5.093,5.1281,5.1277,5.1264,5.1297,5.1349,5.1341,5.1377,5.1386,5.1371,5.1375,5.1394,5.1394,5.1394,5.1394,5.1394,5.1394,5.1394,5.1394,5.1394,5.1394,5.1394,5.1394,5.1394,5.1394,5.1394,3.9914,3.9889,3.9889,4.0382,4.1143,4.1415,4.1987,4.2658,4.2626,4.2498,4.2197,4.2177,4.2026,4.1704,4.1685,4.1896,4.2297,4.2679,4.3233,4.4208,4.4532,4.4934,4.5125,4.5258,4.5277,4.5277,4.5277,4.5277,4.5277,4.5277,4.5277,4.5277,4.5277,4.5277,4.5277,4.5256,4.5277,4.5256,4.5235,4.5173,4.5087,4.5,4.4887,4.477,4.472,4.4739,4.4739,4.4934,4.4957,4.4981,4.5256,4.5297,4.5277,4.5277,4.5277,4.5277,4.5277,4.5277,4.5277,4.5277,4.5277,4.5277,4.5277,4.5277,4.5277,4.5277,4.5277,4.5277,4.5277,4.5316,4.5297,4.5297,4.5316,4.5354,4.57,4.6046,4.6447,4.6868,4.7722,4.8714,4.9378,4.9845,4.9954,4.9707,4.9566,4.9703,4.9742,4.9644,4.9898,5.0287,5.0852,5.125,5.1218,5.1206,5.118,5.1004,5.1001,5.103,5.1293,5.1293,5.1336,5.1336,5.1277,5.1316,5.1394,5.1297,5.1121,5.1336,5.1394,5.1297,5.1219,5.1316,5.1336,5.1394,5.1394,3.9889,3.9889,3.9889,4.0328,4.0915,4.0328,4.046,4.1124,4.1898,4.1963,4.1354,4.1277,4.0936,4.0634,4.0596,4.0883,4.1322,4.1743,4.2468,4.3786,4.3864,4.4188,4.4647,4.5125,4.4953,4.5105,4.5258,4.5277,4.5277,4.5277,4.5277,4.5277,4.5277,4.5277,4.5277,4.5277,4.5277,4.5277,4.5277,4.5256,4.5256,4.5256,4.5277,4.5256,4.5235,4.5235,4.5235,4.5277,4.5277,4.5277,4.5277,4.5277,4.5277,4.5277,4.5277,4.5277,4.5277,4.5277,4.5277,4.5277,4.5277,4.5277,4.5277,4.5277,4.5277,4.5277,4.5277,4.5277,4.5277,4.5277,4.5277,4.5277,4.5277,4.5319,4.5532,4.5726,4.5937,4.6493,4.7342,4.8227,4.8805,4.9226,4.9281,4.906,4.8943,4.8884,4.8514,4.8436,4.8982,4.9488,4.9937,5.0638,5.0568,5.038,5.0258,5.0173,5.0366,5.0557,5.0761,5.0746,5.0438,5.0711,5.1121,5.0809,5.0457,5.075,5.0789,5.075,5.0653,5.0711,5.075,5.1121,5.1238,5.1199,5.1394,3.9889,3.9889,3.9889,4.0041,4.0176,3.9984,4.0025,4.0233,4.0426,4.0545,4.0359,4.034,4.0304,4.0155,4.0118,4.0366,4.0597,4.1093,4.1628,4.2354,4.2774,4.3251,4.3596,4.415,4.4284,4.4551,4.4838,4.5182,4.5163,4.5201,4.5277,4.5277,4.5277,4.5277,4.5277,4.5277,4.5277,4.5277,4.5277,4.5277,4.5277,4.5277,4.5277,4.5277,4.5277,4.5277,4.5277,4.5277,4.5277,4.5277,4.5277,4.5277,4.5277,4.5277,4.5277,4.5277,4.5277,4.5277,4.5277,4.5277,4.5277,4.5277,4.5277,4.5277,4.5277,4.5297,4.5277,4.5277,4.5277,4.5277,4.5298,4.5298,4.5319,4.5341,4.54,4.5456,4.5507,4.6248,4.7049,4.7594,4.8186,4.8377,4.8448,4.8436,4.8378,4.7891,4.7131,4.7053,4.7949,4.8534,4.8534,4.906,4.9352,4.9262,4.9218,4.9367,4.958,4.9499,4.9547,4.9536,4.956,4.9794,5.0028,4.9599,4.9345,4.9755,4.9852,4.9442,4.9442,4.9794,5.0067,5.036,5.0614,5.0653,5.1063,3.9848,3.9889,3.9889,3.9889,3.9889,3.9889,3.9889,3.9889,3.9889,3.9911,3.9954,3.9954,3.9994,4.0057,4.0057,4.0077,4.0233,4.0576,4.1129,4.1569,4.1876,4.241,4.2831,4.3194,4.3367,4.3692,4.4303,4.4685,4.484,4.5182,4.5277,4.5298,4.5298,4.5298,4.5298,4.5297,4.5298,4.5277,4.5277,4.5277,4.5277,4.5277,4.5277,4.5277,4.5277,4.5277,4.5277,4.5277,4.5277,4.5277,4.5277,4.5277,4.5277,4.5277,4.5277,4.5277,4.5277,4.5277,4.5277,4.5277,4.5277,4.5277,4.5297,4.5317,4.5319,4.5319,4.5341,4.5341,4.5298,4.5277,4.5381,4.54,4.54,4.5438,4.5524,4.5603,4.5708,4.6118,4.6496,4.6674,4.7067,4.7186,4.7228,4.7209,4.717,4.715,4.6332,4.6274,4.7053,4.7618,4.7579,4.7715,4.8125,4.83,4.8268,4.8503,4.8808,4.8674,4.8435,4.879,4.9009,4.8935,4.8837,4.8681,4.8681,4.8954,4.8896,4.8564,4.874,4.9189,4.9364,4.952,4.9774,5.0008,5.0321,3.9758,3.9826,3.9848,3.9867,3.987,3.9889,3.9889,3.9889,3.9889,3.9889,3.9911,3.9911,3.9933,3.9975,3.9994,4.0036,4.0134,4.0248,4.0668,4.0974,4.1167,4.1491,4.1951,4.2487,4.2737,4.3101,4.3656,4.402,4.4288,4.4748,4.5132,4.5303,4.536,4.5341,4.5339,4.5338,4.5339,4.5298,4.5277,4.5277,4.5277,4.5277,4.5277,4.5277,4.5277,4.5277,4.5277,4.5277,4.5277,4.5277,4.5277,4.5277,4.5277,4.5277,4.5277,4.5277,4.5277,4.5277,4.5277,4.5277,4.5277,4.5297,4.5317,4.5339,4.5361,4.54,4.5419,4.5419,4.5381,4.54,4.5472,4.5505,4.5505,4.5539,4.5645,4.5757,4.5925,4.6037,4.6076,4.6105,4.6191,4.6332,4.6313,4.6254,4.6235,4.6215,4.6196,4.6196,4.6332,4.6663,4.6839,4.7014,4.7345,4.7423,4.7372,4.758,4.7905,4.7722,4.7587,4.8103,4.8385,4.8017,4.792,4.8154,4.8213,4.8115,4.8135,4.7939,4.8213,4.8388,4.8584,4.8681,4.8818,4.9072,4.9364,3.9532,3.9599,3.9693,3.9758,3.9758,3.9848,3.9889,3.9889,3.9889,3.9889,3.9889,3.9889,3.9911,3.9911,3.9911,3.9954,4.0015,4.0017,4.0057,4.0326,4.0538,4.0594,4.0901,4.1666,4.2295,4.2694,4.3073,4.3602,4.3803,4.4347,4.5001,4.5472,4.5584,4.5555,4.5455,4.5456,4.5419,4.5381,4.5341,4.536,4.5298,4.5298,4.5277,4.5277,4.5277,4.5277,4.5277,4.5277,4.5277,4.5277,4.5277,4.5277,4.5277,4.5277,4.5277,4.5277,4.5277,4.5319,4.5319,4.5339,4.5339,4.5361,4.54,4.5455,4.5507,4.5607,4.5619,4.563,4.5619,4.5619,4.5694,4.566,4.566,4.5736,4.5803,4.5947,4.6093,4.6138,4.6166,4.6166,4.6193,4.6254,4.6254,4.6215,4.6215,4.6196,4.6196,4.6196,4.6196,4.6196,4.6196,4.6449,4.6722,4.6527,4.6468,4.6638,4.6826,4.6683,4.6718,4.7162,4.7253,4.6807,4.6827,4.7276,4.712,4.6905,4.6944,4.7295,4.712,4.7237,4.7627,4.7842,4.7959,4.8135,4.8447]}]]